Wetterdaten: Sonntag, 17.07.2016
Datum Zeit Temp. A. Feuchte A. Luftdruck Regen Wind Richtung Richtung Sonnenschein ET UV Solar Taupunkt Windchill Windben Empfang
17.07.2016 00:00 15,1 C 73 % 1021,1 hPa 0,0 l/m 11,5 km/h (2 Bft) W-SW 241 0 min 0,000 mm 0,0 UV-I 0 W/m 10,3 C 12,6 C 19,3 km/h (3 Bft) 97,87 %
17.07.2016 00:02 15,2 C 73 % 1021,1 hPa 0,0 l/m 12,8 km/h (3 Bft) SW 230 0 min 0,000 mm 0,0 UV-I 0 W/m 10,4 C 12,2 C 20,9 km/h (4 Bft) 97,62 %
17.07.2016 00:04 15,2 C 73 % 1021,0 hPa 0,0 l/m 14,3 km/h (3 Bft) W-SW 245 0 min 0,000 mm 0,0 UV-I 0 W/m 10,4 C 11,7 C 20,9 km/h (4 Bft) 100,00 %
17.07.2016 00:06 15,2 C 73 % 1021,0 hPa 0,0 l/m 15,3 km/h (3 Bft) SW 233 0 min 0,000 mm 0,0 UV-I 0 W/m 10,4 C 11,3 C 19,3 km/h (3 Bft) 97,87 %
17.07.2016 00:08 15,2 C 73 % 1021,0 hPa 0,0 l/m 13,3 km/h (3 Bft) SW 226 0 min 0,000 mm 0,0 UV-I 0 W/m 10,4 C 12,0 C 19,3 km/h (3 Bft) 97,87 %
17.07.2016 00:10 15,2 C 73 % 1021,0 hPa 0,0 l/m 12,0 km/h (2 Bft) SW 230 0 min 0,000 mm 0,0 UV-I 0 W/m 10,4 C 12,5 C 20,9 km/h (4 Bft) 95,74 %
17.07.2016 00:12 15,2 C 73 % 1021,0 hPa 0,0 l/m 13,4 km/h (3 Bft) W-SW 240 0 min 0,000 mm 0,0 UV-I 0 W/m 10,4 C 12,0 C 19,3 km/h (3 Bft) 95,74 %
17.07.2016 00:14 15,2 C 73 % 1021,0 hPa 0,0 l/m 10,8 km/h (2 Bft) SW 216 0 min 0,000 mm 0,0 UV-I 0 W/m 10,4 C 13,0 C 16,1 km/h (3 Bft) 100,00 %
17.07.2016 00:16 15,2 C 73 % 1021,0 hPa 0,0 l/m 10,7 km/h (2 Bft) SW 220 0 min 0,000 mm 0,0 UV-I 0 W/m 10,4 C 13,0 C 14,5 km/h (3 Bft) 98,00 %
17.07.2016 00:18 15,2 C 72 % 1021,0 hPa 0,0 l/m 13,3 km/h (3 Bft) W-SW 240 0 min 0,000 mm 0,0 UV-I 0 W/m 10,2 C 12,0 C 19,3 km/h (3 Bft) 97,87 %
17.07.2016 00:20 15,2 C 72 % 1021,0 hPa 0,0 l/m 12,5 km/h (3 Bft) SW 221 0 min 0,000 mm 0,0 UV-I 0 W/m 10,2 C 12,3 C 19,3 km/h (3 Bft) 97,87 %
17.07.2016 00:22 15,2 C 72 % 1021,0 hPa 0,0 l/m 10,7 km/h (2 Bft) SW 226 0 min 0,000 mm 0,0 UV-I 0 W/m 10,2 C 13,0 C 16,1 km/h (3 Bft) 100,00 %
17.07.2016 00:24 15,2 C 72 % 1020,9 hPa 0,0 l/m 12,8 km/h (3 Bft) SW 223 0 min 0,000 mm 0,0 UV-I 0 W/m 10,2 C 12,2 C 17,7 km/h (3 Bft) 98,00 %
17.07.2016 00:26 15,2 C 73 % 1021,0 hPa 0,0 l/m 12,4 km/h (3 Bft) SW 228 0 min 0,000 mm 0,0 UV-I 0 W/m 10,4 C 12,3 C 19,3 km/h (3 Bft) 100,00 %
17.07.2016 00:28 15,2 C 72 % 1021,0 hPa 0,0 l/m 12,7 km/h (3 Bft) SW 229 0 min 0,000 mm 0,0 UV-I 0 W/m 10,2 C 12,2 C 19,3 km/h (3 Bft) 100,00 %
17.07.2016 00:30 15,2 C 72 % 1021,0 hPa 0,0 l/m 11,9 km/h (2 Bft) SW 234 0 min 0,000 mm 0,0 UV-I 0 W/m 10,2 C 12,5 C 16,1 km/h (3 Bft) 100,00 %
17.07.2016 00:32 15,2 C 72 % 1021,0 hPa 0,0 l/m 11,8 km/h (2 Bft) W-SW 242 0 min 0,000 mm 0,0 UV-I 0 W/m 10,2 C 12,6 C 17,7 km/h (3 Bft) 100,00 %
17.07.2016 00:34 15,2 C 72 % 1021,0 hPa 0,0 l/m 11,6 km/h (2 Bft) W-SW 244 0 min 0,000 mm 0,0 UV-I 0 W/m 10,2 C 12,7 C 17,7 km/h (3 Bft) 100,00 %
17.07.2016 00:36 15,3 C 72 % 1021,0 hPa 0,0 l/m 9,9 km/h (2 Bft) W-SW 239 0 min 0,000 mm 0,0 UV-I 0 W/m 10,3 C 13,5 C 16,1 km/h (3 Bft) 100,00 %
17.07.2016 00:38 15,3 C 72 % 1021,0 hPa 0,0 l/m 9,2 km/h (2 Bft) W-SW 248 0 min 0,000 mm 0,0 UV-I 0 W/m 10,3 C 13,8 C 12,9 km/h (3 Bft) 97,87 %
17.07.2016 00:40 15,3 C 72 % 1021,0 hPa 0,0 l/m 8,1 km/h (2 Bft) W-SW 242 0 min 0,000 mm 0,0 UV-I 0 W/m 10,3 C 14,4 C 12,9 km/h (3 Bft) 97,44 %
17.07.2016 00:42 15,3 C 72 % 1020,9 hPa 0,0 l/m 8,5 km/h (2 Bft) W-SW 240 0 min 0,000 mm 0,0 UV-I 0 W/m 10,3 C 14,2 C 17,7 km/h (3 Bft) 97,87 %
17.07.2016 00:44 15,3 C 72 % 1020,9 hPa 0,0 l/m 10,7 km/h (2 Bft) SW 223 0 min 0,000 mm 0,0 UV-I 0 W/m 10,3 C 13,1 C 14,5 km/h (3 Bft) 97,87 %
17.07.2016 00:46 15,3 C 72 % 1020,9 hPa 0,0 l/m 12,7 km/h (3 Bft) S-SW 213 0 min 0,000 mm 0,0 UV-I 0 W/m 10,3 C 12,4 C 16,1 km/h (3 Bft) 100,00 %
17.07.2016 00:48 15,3 C 72 % 1020,9 hPa 0,0 l/m 10,8 km/h (2 Bft) S 170 0 min 0,000 mm 0,0 UV-I 0 W/m 10,3 C 13,1 C 16,1 km/h (3 Bft) 100,00 %
17.07.2016 00:50 15,3 C 71 % 1020,9 hPa 0,0 l/m 12,4 km/h (3 Bft) SW 234 0 min 0,000 mm 0,0 UV-I 0 W/m 10,1 C 12,5 C 16,1 km/h (3 Bft) 100,00 %
17.07.2016 00:52 15,3 C 71 % 1020,9 hPa 0,0 l/m 11,2 km/h (2 Bft) S-SW 209 0 min 0,000 mm 0,0 UV-I 0 W/m 10,1 C 12,9 C 17,7 km/h (3 Bft) 93,62 %
17.07.2016 00:54 15,3 C 72 % 1020,9 hPa 0,0 l/m 9,1 km/h (2 Bft) SW 230 0 min 0,000 mm 0,0 UV-I 0 W/m 10,3 C 13,9 C 12,9 km/h (3 Bft) 95,74 %
17.07.2016 00:56 15,3 C 72 % 1020,9 hPa 0,0 l/m 11,5 km/h (2 Bft) W-SW 238 0 min 0,000 mm 0,0 UV-I 0 W/m 10,3 C 12,8 C 16,1 km/h (3 Bft) 95,74 %
17.07.2016 00:58 15,3 C 72 % 1020,9 hPa 0,0 l/m 10,1 km/h (2 Bft) SW 236 0 min 0,000 mm 0,0 UV-I 0 W/m 10,3 C 13,4 C 14,5 km/h (3 Bft) 95,74 %
17.07.2016 01:00 15,2 C 72 % 1020,8 hPa 0,0 l/m 9,8 km/h (2 Bft) SW 232 0 min 0,051 mm 0,0 UV-I 0 W/m 10,2 C 13,4 C 14,5 km/h (3 Bft) 97,87 %
17.07.2016 01:02 15,2 C 72 % 1020,8 hPa 0,0 l/m 9,5 km/h (2 Bft) SW 218 0 min 0,000 mm 0,0 UV-I 0 W/m 10,2 C 13,6 C 12,9 km/h (3 Bft) 95,74 %
17.07.2016 01:04 15,2 C 72 % 1020,8 hPa 0,0 l/m 9,3 km/h (2 Bft) SW 232 0 min 0,000 mm 0,0 UV-I 0 W/m 10,2 C 13,7 C 14,5 km/h (3 Bft) 97,87 %
17.07.2016 01:06 15,2 C 72 % 1020,8 hPa 0,0 l/m 7,6 km/h (2 Bft) W-SW 237 0 min 0,000 mm 0,0 UV-I 0 W/m 10,2 C 14,5 C 9,7 km/h (2 Bft) 97,87 %
17.07.2016 01:08 15,2 C 72 % 1020,7 hPa 0,0 l/m 9,9 km/h (2 Bft) SW 234 0 min 0,000 mm 0,0 UV-I 0 W/m 10,2 C 13,4 C 16,1 km/h (3 Bft) 97,87 %
17.07.2016 01:10 15,2 C 72 % 1020,7 hPa 0,0 l/m 8,2 km/h (2 Bft) SW 233 0 min 0,000 mm 0,0 UV-I 0 W/m 10,2 C 14,2 C 14,5 km/h (3 Bft) 97,87 %
17.07.2016 01:12 15,2 C 72 % 1020,7 hPa 0,0 l/m 9,0 km/h (2 Bft) W-SW 239 0 min 0,000 mm 0,0 UV-I 0 W/m 10,2 C 13,8 C 11,3 km/h (2 Bft) 93,62 %
17.07.2016 01:14 15,2 C 72 % 1020,7 hPa 0,0 l/m 8,8 km/h (2 Bft) S-SW 201 0 min 0,000 mm 0,0 UV-I 0 W/m 10,2 C 13,9 C 12,9 km/h (3 Bft) 97,87 %
17.07.2016 01:16 15,2 C 72 % 1020,7 hPa 0,0 l/m 6,9 km/h (2 Bft) W-SW 242 0 min 0,000 mm 0,0 UV-I 0 W/m 10,2 C 14,9 C 9,7 km/h (2 Bft) 94,00 %
17.07.2016 01:18 15,2 C 72 % 1020,8 hPa 0,0 l/m 6,5 km/h (2 Bft) W-SW 237 0 min 0,000 mm 0,0 UV-I 0 W/m 10,2 C 15,2 C 9,7 km/h (2 Bft) 97,87 %
17.07.2016 01:20 15,2 C 73 % 1020,7 hPa 0,0 l/m 5,7 km/h (1 Bft) W-SW 242 0 min 0,000 mm 0,0 UV-I 0 W/m 10,4 C 15,2 C 9,7 km/h (2 Bft) 97,44 %
17.07.2016 01:22 15,1 C 72 % 1020,7 hPa 0,0 l/m 7,3 km/h (2 Bft) SW 225 0 min 0,000 mm 0,0 UV-I 0 W/m 10,1 C 14,6 C 11,3 km/h (2 Bft) 95,74 %
17.07.2016 01:24 15,1 C 72 % 1020,7 hPa 0,0 l/m 6,6 km/h (2 Bft) W-SW 257 0 min 0,000 mm 0,0 UV-I 0 W/m 10,1 C 15,0 C 9,7 km/h (2 Bft) 95,74 %
17.07.2016 01:26 15,1 C 72 % 1020,7 hPa 0,0 l/m 7,9 km/h (2 Bft) SW 235 0 min 0,000 mm 0,0 UV-I 0 W/m 10,1 C 14,3 C 12,9 km/h (3 Bft) 97,87 %
17.07.2016 01:28 15,1 C 72 % 1020,7 hPa 0,0 l/m 8,4 km/h (2 Bft) SW 221 0 min 0,000 mm 0,0 UV-I 0 W/m 10,1 C 14,0 C 11,3 km/h (2 Bft) 98,00 %
17.07.2016 01:30 15,1 C 72 % 1020,7 hPa 0,0 l/m 7,7 km/h (2 Bft) W-SW 244 0 min 0,000 mm 0,0 UV-I 0 W/m 10,1 C 14,4 C 12,9 km/h (3 Bft) 100,00 %
17.07.2016 01:32 15,0 C 73 % 1020,6 hPa 0,0 l/m 7,8 km/h (2 Bft) W-SW 242 0 min 0,000 mm 0,0 UV-I 0 W/m 10,2 C 14,2 C 12,9 km/h (3 Bft) 97,87 %
17.07.2016 01:34 15,0 C 73 % 1020,6 hPa 0,0 l/m 7,5 km/h (2 Bft) W-SW 239 0 min 0,000 mm 0,0 UV-I 0 W/m 10,2 C 14,4 C 11,3 km/h (2 Bft) 97,87 %
17.07.2016 01:36 14,9 C 73 % 1020,6 hPa 0,0 l/m 7,6 km/h (2 Bft) SW 224 0 min 0,000 mm 0,0 UV-I 0 W/m 10,1 C 14,2 C 9,7 km/h (2 Bft) 100,00 %
17.07.2016 01:38 14,9 C 73 % 1020,6 hPa 0,0 l/m 7,2 km/h (2 Bft) SW 228 0 min 0,000 mm 0,0 UV-I 0 W/m 10,1 C 14,4 C 11,3 km/h (2 Bft) 100,00 %
17.07.2016 01:40 14,9 C 73 % 1020,6 hPa 0,0 l/m 8,7 km/h (2 Bft) SW 232 0 min 0,000 mm 0,0 UV-I 0 W/m 10,1 C 13,6 C 14,5 km/h (3 Bft) 100,00 %
17.07.2016 01:42 14,9 C 73 % 1020,6 hPa 0,0 l/m 8,6 km/h (2 Bft) W-SW 242 0 min 0,000 mm 0,0 UV-I 0 W/m 10,1 C 13,7 C 14,5 km/h (3 Bft) 94,29 %
17.07.2016 01:44 14,9 C 73 % 1020,5 hPa 0,0 l/m 8,5 km/h (2 Bft) SW 222 0 min 0,000 mm 0,0 UV-I 0 W/m 10,1 C 13,7 C 12,9 km/h (3 Bft) 98,11 %
17.07.2016 01:46 14,9 C 73 % 1020,6 hPa 0,0 l/m 7,5 km/h (2 Bft) W 271 0 min 0,000 mm 0,0 UV-I 0 W/m 10,1 C 14,3 C 12,9 km/h (3 Bft) 97,87 %
17.07.2016 01:48 14,9 C 73 % 1020,6 hPa 0,0 l/m 10,2 km/h (2 Bft) SW 234 0 min 0,000 mm 0,0 UV-I 0 W/m 10,1 C 12,9 C 14,5 km/h (3 Bft) 97,87 %
17.07.2016 01:50 15,0 C 73 % 1020,6 hPa 0,0 l/m 5,2 km/h (1 Bft) W-SW 258 0 min 0,000 mm 0,0 UV-I 0 W/m 10,2 C 15,0 C 9,7 km/h (2 Bft) 100,00 %
17.07.2016 01:52 15,0 C 73 % 1020,6 hPa 0,0 l/m 3,6 km/h (1 Bft) NW 323 0 min 0,000 mm 0,0 UV-I 0 W/m 10,2 C 15,0 C 9,7 km/h (2 Bft) 97,87 %
17.07.2016 01:54 14,9 C 75 % 1020,6 hPa 0,0 l/m 2,4 km/h (1 Bft) NW 317 0 min 0,000 mm 0,0 UV-I 0 W/m 10,5 C 14,9 C 4,8 km/h (1 Bft) 100,00 %
17.07.2016 01:56 14,9 C 75 % 1020,6 hPa 0,0 l/m 2,2 km/h (1 Bft) W 268 0 min 0,000 mm 0,0 UV-I 0 W/m 10,5 C 14,9 C 4,8 km/h (1 Bft) 97,92 %
17.07.2016 01:58 14,8 C 74 % 1020,6 hPa 0,0 l/m 3,1 km/h (1 Bft) W-NW 292 0 min 0,000 mm 0,0 UV-I 0 W/m 10,2 C 14,8 C 6,4 km/h (2 Bft) 100,00 %
17.07.2016 02:00 14,8 C 74 % 1020,5 hPa 0,0 l/m 3,4 km/h (1 Bft) W 267 0 min 0,025 mm 0,0 UV-I 0 W/m 10,2 C 14,8 C 4,8 km/h (1 Bft) 95,74 %
17.07.2016 02:02 14,8 C 74 % 1020,5 hPa 0,0 l/m 4,1 km/h (1 Bft) W-SW 258 0 min 0,000 mm 0,0 UV-I 0 W/m 10,2 C 14,8 C 9,7 km/h (2 Bft) 100,00 %
17.07.2016 02:04 14,9 C 73 % 1020,6 hPa 0,0 l/m 4,8 km/h (1 Bft) W-SW 255 0 min 0,000 mm 0,0 UV-I 0 W/m 10,1 C 14,9 C 6,4 km/h (2 Bft) 97,87 %
17.07.2016 02:06 14,9 C 73 % 1020,5 hPa 0,0 l/m 4,8 km/h (1 Bft) W-SW 250 0 min 0,000 mm 0,0 UV-I 0 W/m 10,1 C 14,9 C 6,4 km/h (2 Bft) 97,87 %
17.07.2016 02:08 14,9 C 73 % 1020,5 hPa 0,0 l/m 5,2 km/h (1 Bft) W-SW 248 0 min 0,000 mm 0,0 UV-I 0 W/m 10,1 C 14,9 C 6,4 km/h (2 Bft) 98,00 %
17.07.2016 02:10 15,0 C 73 % 1020,5 hPa 0,0 l/m 4,2 km/h (1 Bft) W 262 0 min 0,000 mm 0,0 UV-I 0 W/m 10,2 C 15,0 C 6,4 km/h (2 Bft) 100,00 %
17.07.2016 02:12 15,0 C 73 % 1020,5 hPa 0,0 l/m 4,2 km/h (1 Bft) W-SW 246 0 min 0,000 mm 0,0 UV-I 0 W/m 10,2 C 15,0 C 6,4 km/h (2 Bft) 97,87 %
17.07.2016 02:14 15,0 C 73 % 1020,4 hPa 0,0 l/m 5,2 km/h (1 Bft) W-SW 250 0 min 0,000 mm 0,0 UV-I 0 W/m 10,2 C 15,0 C 6,4 km/h (2 Bft) 100,00 %
17.07.2016 02:16 14,9 C 73 % 1020,4 hPa 0,0 l/m 4,6 km/h (1 Bft) W-SW 240 0 min 0,000 mm 0,0 UV-I 0 W/m 10,1 C 14,9 C 6,4 km/h (2 Bft) 100,00 %
17.07.2016 02:18 14,9 C 73 % 1020,4 hPa 0,0 l/m 4,7 km/h (1 Bft) SW 236 0 min 0,000 mm 0,0 UV-I 0 W/m 10,1 C 14,9 C 8,0 km/h (2 Bft) 97,87 %
17.07.2016 02:20 14,9 C 73 % 1020,4 hPa 0,0 l/m 6,3 km/h (2 Bft) W-SW 246 0 min 0,000 mm 0,0 UV-I 0 W/m 10,1 C 14,9 C 12,9 km/h (3 Bft) 100,00 %
17.07.2016 02:22 14,8 C 73 % 1020,4 hPa 0,0 l/m 5,4 km/h (1 Bft) W-SW 253 0 min 0,000 mm 0,0 UV-I 0 W/m 10,0 C 14,8 C 9,7 km/h (2 Bft) 97,87 %
17.07.2016 02:24 14,8 C 73 % 1020,4 hPa 0,0 l/m 6,1 km/h (2 Bft) W-SW 240 0 min 0,000 mm 0,0 UV-I 0 W/m 10,0 C 14,8 C 8,0 km/h (2 Bft) 100,00 %
17.07.2016 02:26 14,8 C 73 % 1020,4 hPa 0,0 l/m 7,3 km/h (2 Bft) W-SW 256 0 min 0,000 mm 0,0 UV-I 0 W/m 10,0 C 14,3 C 11,3 km/h (2 Bft) 100,00 %
17.07.2016 02:28 14,8 C 73 % 1020,3 hPa 0,0 l/m 7,4 km/h (2 Bft) W 276 0 min 0,000 mm 0,0 UV-I 0 W/m 10,0 C 14,2 C 12,9 km/h (3 Bft) 100,00 %
17.07.2016 02:30 14,7 C 74 % 1020,3 hPa 0,0 l/m 7,5 km/h (2 Bft) W-SW 258 0 min 0,000 mm 0,0 UV-I 0 W/m 10,1 C 14,1 C 11,3 km/h (2 Bft) 100,00 %
17.07.2016 02:32 14,6 C 74 % 1020,3 hPa 0,0 l/m 6,9 km/h (2 Bft) SW 229 0 min 0,000 mm 0,0 UV-I 0 W/m 10,0 C 14,3 C 12,9 km/h (3 Bft) 100,00 %
17.07.2016 02:34 14,6 C 75 % 1020,3 hPa 0,0 l/m 6,6 km/h (2 Bft) SW 230 0 min 0,000 mm 0,0 UV-I 0 W/m 10,2 C 14,5 C 9,7 km/h (2 Bft) 93,62 %
17.07.2016 02:36 14,4 C 75 % 1020,3 hPa 0,0 l/m 6,4 km/h (2 Bft) SW 221 0 min 0,000 mm 0,0 UV-I 0 W/m 10,0 C 14,4 C 12,9 km/h (3 Bft) 100,00 %
17.07.2016 02:38 14,3 C 76 % 1020,3 hPa 0,0 l/m 6,5 km/h (2 Bft) SW 216 0 min 0,000 mm 0,0 UV-I 0 W/m 10,1 C 14,3 C 8,0 km/h (2 Bft) 100,00 %
17.07.2016 02:40 14,2 C 76 % 1020,3 hPa 0,0 l/m 6,7 km/h (2 Bft) SW 223 0 min 0,000 mm 0,0 UV-I 0 W/m 10,0 C 14,0 C 9,7 km/h (2 Bft) 97,87 %
17.07.2016 02:42 14,2 C 76 % 1020,2 hPa 0,0 l/m 6,5 km/h (2 Bft) SW 231 0 min 0,000 mm 0,0 UV-I 0 W/m 10,0 C 14,2 C 9,7 km/h (2 Bft) 100,00 %
17.07.2016 02:44 14,1 C 77 % 1020,3 hPa 0,0 l/m 5,5 km/h (1 Bft) SW 219 0 min 0,000 mm 0,0 UV-I 0 W/m 10,1 C 14,1 C 8,0 km/h (2 Bft) 97,87 %
17.07.2016 02:46 14,0 C 77 % 1020,3 hPa 0,0 l/m 5,9 km/h (2 Bft) SW 220 0 min 0,000 mm 0,0 UV-I 0 W/m 10,0 C 14,0 C 11,3 km/h (2 Bft) 100,00 %
17.07.2016 02:48 14,1 C 77 % 1020,3 hPa 0,0 l/m 6,6 km/h (2 Bft) SW 226 0 min 0,000 mm 0,0 UV-I 0 W/m 10,1 C 14,0 C 9,7 km/h (2 Bft) 100,00 %
17.07.2016 02:50 14,1 C 77 % 1020,3 hPa 0,0 l/m 7,7 km/h (2 Bft) W-SW 240 0 min 0,000 mm 0,0 UV-I 0 W/m 10,1 C 13,3 C 11,3 km/h (2 Bft) 100,00 %
17.07.2016 02:52 14,1 C 77 % 1020,3 hPa 0,0 l/m 8,2 km/h (2 Bft) SW 234 0 min 0,000 mm 0,0 UV-I 0 W/m 10,1 C 13,0 C 12,9 km/h (3 Bft) 100,00 %
17.07.2016 02:54 14,0 C 77 % 1020,3 hPa 0,0 l/m 9,0 km/h (2 Bft) SW 217 0 min 0,000 mm 0,0 UV-I 0 W/m 10,0 C 12,5 C 14,5 km/h (3 Bft) 97,87 %
17.07.2016 02:56 13,9 C 78 % 1020,3 hPa 0,0 l/m 9,7 km/h (2 Bft) S-SW 194 0 min 0,000 mm 0,0 UV-I 0 W/m 10,1 C 12,0 C 12,9 km/h (3 Bft) 96,00 %
17.07.2016 02:58 13,8 C 78 % 1020,3 hPa 0,0 l/m 9,2 km/h (2 Bft) SW 236 0 min 0,000 mm 0,0 UV-I 0 W/m 10,0 C 12,2 C 12,9 km/h (3 Bft) 97,87 %
17.07.2016 03:00 13,8 C 79 % 1020,3 hPa 0,0 l/m 9,7 km/h (2 Bft) SW 234 0 min 0,026 mm 0,0 UV-I 0 W/m 10,2 C 11,9 C 14,5 km/h (3 Bft) 98,00 %
17.07.2016 03:02 13,7 C 79 % 1020,2 hPa 0,0 l/m 7,8 km/h (2 Bft) W-SW 239 0 min 0,000 mm 0,0 UV-I 0 W/m 10,1 C 12,9 C 12,9 km/h (3 Bft) 93,75 %
17.07.2016 03:04 13,6 C 79 % 1020,3 hPa 0,0 l/m 8,1 km/h (2 Bft) SW 225 0 min 0,000 mm 0,0 UV-I 0 W/m 10,0 C 12,6 C 11,3 km/h (2 Bft) 97,87 %
17.07.2016 03:06 13,6 C 79 % 1020,3 hPa 0,0 l/m 7,1 km/h (2 Bft) W-SW 240 0 min 0,000 mm 0,0 UV-I 0 W/m 10,0 C 13,2 C 9,7 km/h (2 Bft) 97,87 %
17.07.2016 03:08 13,6 C 79 % 1020,4 hPa 0,0 l/m 9,1 km/h (2 Bft) SW 219 0 min 0,000 mm 0,0 UV-I 0 W/m 10,0 C 12,0 C 12,9 km/h (3 Bft) 97,87 %
17.07.2016 03:10 13,6 C 79 % 1020,3 hPa 0,0 l/m 8,4 km/h (2 Bft) SW 232 0 min 0,000 mm 0,0 UV-I 0 W/m 10,0 C 12,4 C 11,3 km/h (2 Bft) 93,62 %
17.07.2016 03:12 13,6 C 80 % 1020,3 hPa 0,0 l/m 7,6 km/h (2 Bft) SW 236 0 min 0,000 mm 0,0 UV-I 0 W/m 10,2 C 12,9 C 9,7 km/h (2 Bft) 97,22 %
17.07.2016 03:14 13,6 C 80 % 1020,3 hPa 0,0 l/m 6,4 km/h (2 Bft) SW 234 0 min 0,000 mm 0,0 UV-I 0 W/m 10,2 C 13,6 C 9,7 km/h (2 Bft) 96,00 %
17.07.2016 03:16 13,6 C 80 % 1020,3 hPa 0,0 l/m 7,7 km/h (2 Bft) SW 234 0 min 0,000 mm 0,0 UV-I 0 W/m 10,2 C 12,8 C 9,7 km/h (2 Bft) 97,92 %
17.07.2016 03:18 13,6 C 80 % 1020,3 hPa 0,0 l/m 8,0 km/h (2 Bft) SW 217 0 min 0,000 mm 0,0 UV-I 0 W/m 10,2 C 12,6 C 11,3 km/h (2 Bft) 97,87 %
17.07.2016 03:20 13,6 C 80 % 1020,3 hPa 0,0 l/m 7,6 km/h (2 Bft) SW 232 0 min 0,000 mm 0,0 UV-I 0 W/m 10,2 C 12,9 C 11,3 km/h (2 Bft) 97,87 %
17.07.2016 03:22 13,5 C 80 % 1020,3 hPa 0,0 l/m 6,3 km/h (2 Bft) SW 234 0 min 0,000 mm 0,0 UV-I 0 W/m 10,1 C 13,5 C 9,7 km/h (2 Bft) 97,87 %
17.07.2016 03:24 13,6 C 80 % 1020,4 hPa 0,0 l/m 5,6 km/h (1 Bft) SW 224 0 min 0,000 mm 0,0 UV-I 0 W/m 10,2 C 13,6 C 8,0 km/h (2 Bft) 95,74 %
17.07.2016 03:26 13,6 C 80 % 1020,4 hPa 0,0 l/m 5,3 km/h (1 Bft) SW 227 0 min 0,000 mm 0,0 UV-I 0 W/m 10,2 C 13,6 C 8,0 km/h (2 Bft) 97,87 %
17.07.2016 03:28 13,5 C 80 % 1020,4 hPa 0,0 l/m 5,0 km/h (1 Bft) SW 230 0 min 0,000 mm 0,0 UV-I 0 W/m 10,1 C 13,5 C 6,4 km/h (2 Bft) 97,87 %
17.07.2016 03:30 13,5 C 80 % 1020,4 hPa 0,0 l/m 4,5 km/h (1 Bft) SW 221 0 min 0,000 mm 0,0 UV-I 0 W/m 10,1 C 13,5 C 6,4 km/h (2 Bft) 97,87 %
17.07.2016 03:32 13,5 C 80 % 1020,4 hPa 0,0 l/m 5,4 km/h (1 Bft) W-SW 239 0 min 0,000 mm 0,0 UV-I 0 W/m 10,1 C 13,5 C 8,0 km/h (2 Bft) 97,87 %
17.07.2016 03:34 13,5 C 80 % 1020,4 hPa 0,0 l/m 6,0 km/h (2 Bft) SW 229 0 min 0,000 mm 0,0 UV-I 0 W/m 10,1 C 13,5 C 8,0 km/h (2 Bft) 100,00 %
17.07.2016 03:36 13,6 C 80 % 1020,4 hPa 0,0 l/m 4,9 km/h (1 Bft) SW 222 0 min 0,000 mm 0,0 UV-I 0 W/m 10,2 C 13,6 C 6,4 km/h (2 Bft) 100,00 %
17.07.2016 03:38 13,6 C 80 % 1020,4 hPa 0,0 l/m 4,8 km/h (1 Bft) SW 218 0 min 0,000 mm 0,0 UV-I 0 W/m 10,2 C 13,6 C 6,4 km/h (2 Bft) 100,00 %
17.07.2016 03:40 13,6 C 80 % 1020,4 hPa 0,0 l/m 4,7 km/h (1 Bft) SW 218 0 min 0,000 mm 0,0 UV-I 0 W/m 10,2 C 13,6 C 6,4 km/h (2 Bft) 95,74 %
17.07.2016 03:42 13,6 C 80 % 1020,4 hPa 0,0 l/m 5,0 km/h (1 Bft) SW 219 0 min 0,000 mm 0,0 UV-I 0 W/m 10,2 C 13,6 C 8,0 km/h (2 Bft) 100,00 %
17.07.2016 03:44 13,6 C 80 % 1020,3 hPa 0,0 l/m 5,7 km/h (1 Bft) S-SW 207 0 min 0,000 mm 0,0 UV-I 0 W/m 10,2 C 13,6 C 8,0 km/h (2 Bft) 97,87 %
17.07.2016 03:46 13,7 C 80 % 1020,3 hPa 0,0 l/m 5,2 km/h (1 Bft) S-SW 198 0 min 0,000 mm 0,0 UV-I 0 W/m 10,3 C 13,7 C 8,0 km/h (2 Bft) 100,00 %
17.07.2016 03:48 13,7 C 79 % 1020,3 hPa 0,0 l/m 5,5 km/h (1 Bft) S-SW 210 0 min 0,000 mm 0,0 UV-I 0 W/m 10,1 C 13,7 C 8,0 km/h (2 Bft) 100,00 %
17.07.2016 03:50 13,7 C 79 % 1020,3 hPa 0,0 l/m 5,6 km/h (1 Bft) SW 233 0 min 0,000 mm 0,0 UV-I 0 W/m 10,1 C 13,7 C 11,3 km/h (2 Bft) 100,00 %
17.07.2016 03:52 13,7 C 79 % 1020,3 hPa 0,0 l/m 5,1 km/h (1 Bft) SW 229 0 min 0,000 mm 0,0 UV-I 0 W/m 10,1 C 13,7 C 8,0 km/h (2 Bft) 97,87 %
17.07.2016 03:54 13,8 C 79 % 1020,3 hPa 0,0 l/m 5,7 km/h (1 Bft) SW 234 0 min 0,000 mm 0,0 UV-I 0 W/m 10,2 C 13,8 C 9,7 km/h (2 Bft) 100,00 %
17.07.2016 03:56 13,8 C 79 % 1020,3 hPa 0,0 l/m 5,2 km/h (1 Bft) SW 221 0 min 0,000 mm 0,0 UV-I 0 W/m 10,2 C 13,8 C 8,0 km/h (2 Bft) 100,00 %
17.07.2016 03:58 13,8 C 79 % 1020,3 hPa 0,0 l/m 5,6 km/h (1 Bft) SW 229 0 min 0,000 mm 0,0 UV-I 0 W/m 10,2 C 13,8 C 8,0 km/h (2 Bft) 97,87 %
17.07.2016 04:00 13,8 C 79 % 1020,3 hPa 0,0 l/m 6,5 km/h (2 Bft) W-SW 241 0 min 0,025 mm 0,0 UV-I 0 W/m 10,2 C 13,8 C 9,7 km/h (2 Bft) 96,00 %
17.07.2016 04:02 13,8 C 80 % 1020,2 hPa 0,0 l/m 5,3 km/h (1 Bft) S-SW 198 0 min 0,000 mm 0,0 UV-I 0 W/m 10,4 C 13,8 C 9,7 km/h (2 Bft) 100,00 %
17.07.2016 04:04 13,8 C 79 % 1020,2 hPa 0,0 l/m 7,2 km/h (2 Bft) SW 220 0 min 0,000 mm 0,0 UV-I 0 W/m 10,2 C 13,3 C 9,7 km/h (2 Bft) 97,87 %
17.07.2016 04:06 13,8 C 80 % 1020,2 hPa 0,0 l/m 7,1 km/h (2 Bft) SW 236 0 min 0,000 mm 0,0 UV-I 0 W/m 10,4 C 13,4 C 9,7 km/h (2 Bft) 97,87 %
17.07.2016 04:08 13,7 C 80 % 1020,2 hPa 0,0 l/m 8,2 km/h (2 Bft) SW 235 0 min 0,000 mm 0,0 UV-I 0 W/m 10,3 C 12,6 C 11,3 km/h (2 Bft) 100,00 %
17.07.2016 04:10 13,7 C 80 % 1020,3 hPa 0,0 l/m 7,1 km/h (2 Bft) S-SW 200 0 min 0,000 mm 0,0 UV-I 0 W/m 10,3 C 13,3 C 9,7 km/h (2 Bft) 98,00 %
17.07.2016 04:12 13,7 C 80 % 1020,3 hPa 0,0 l/m 7,0 km/h (2 Bft) W-SW 240 0 min 0,000 mm 0,0 UV-I 0 W/m 10,3 C 13,3 C 11,3 km/h (2 Bft) 100,00 %
17.07.2016 04:14 13,7 C 81 % 1020,2 hPa 0,0 l/m 7,7 km/h (2 Bft) SW 235 0 min 0,000 mm 0,0 UV-I 0 W/m 10,5 C 12,9 C 11,3 km/h (2 Bft) 95,74 %
17.07.2016 04:16 13,7 C 81 % 1020,2 hPa 0,0 l/m 7,9 km/h (2 Bft) W-SW 239 0 min 0,000 mm 0,0 UV-I 0 W/m 10,5 C 12,8 C 9,7 km/h (2 Bft) 100,00 %
17.07.2016 04:18 13,7 C 81 % 1020,3 hPa 0,0 l/m 7,7 km/h (2 Bft) W-SW 252 0 min 0,000 mm 0,0 UV-I 0 W/m 10,5 C 12,9 C 11,3 km/h (2 Bft) 100,00 %
17.07.2016 04:20 13,7 C 81 % 1020,3 hPa 0,0 l/m 7,0 km/h (2 Bft) SW 231 0 min 0,000 mm 0,0 UV-I 0 W/m 10,5 C 13,3 C 9,7 km/h (2 Bft) 100,00 %
17.07.2016 04:22 13,7 C 81 % 1020,2 hPa 0,0 l/m 8,5 km/h (2 Bft) SW 229 0 min 0,000 mm 0,0 UV-I 0 W/m 10,5 C 12,5 C 12,9 km/h (3 Bft) 95,74 %
17.07.2016 04:24 13,8 C 81 % 1020,3 hPa 0,0 l/m 7,1 km/h (2 Bft) W-SW 243 0 min 0,000 mm 0,0 UV-I 0 W/m 10,6 C 13,4 C 11,3 km/h (2 Bft) 100,00 %
17.07.2016 04:26 13,8 C 81 % 1020,3 hPa 0,0 l/m 6,8 km/h (2 Bft) W-SW 239 0 min 0,000 mm 0,0 UV-I 0 W/m 10,6 C 13,6 C 9,7 km/h (2 Bft) 100,00 %
17.07.2016 04:28 13,9 C 80 % 1020,3 hPa 0,0 l/m 7,5 km/h (2 Bft) W-SW 246 0 min 0,000 mm 0,0 UV-I 0 W/m 10,5 C 13,2 C 9,7 km/h (2 Bft) 97,87 %
17.07.2016 04:30 13,9 C 80 % 1020,3 hPa 0,0 l/m 7,5 km/h (2 Bft) W-SW 237 0 min 0,000 mm 0,0 UV-I 0 W/m 10,5 C 13,2 C 9,7 km/h (2 Bft) 100,00 %
17.07.2016 04:32 13,9 C 80 % 1020,3 hPa 0,0 l/m 7,2 km/h (2 Bft) SW 227 0 min 0,000 mm 0,0 UV-I 0 W/m 10,5 C 13,4 C 9,7 km/h (2 Bft) 97,87 %
17.07.2016 04:34 13,9 C 80 % 1020,3 hPa 0,0 l/m 7,0 km/h (2 Bft) SW 223 0 min 0,000 mm 0,0 UV-I 0 W/m 10,5 C 13,5 C 9,7 km/h (2 Bft) 95,83 %
17.07.2016 04:36 13,9 C 80 % 1020,3 hPa 0,0 l/m 6,5 km/h (2 Bft) W-SW 238 0 min 0,000 mm 0,0 UV-I 0 W/m 10,5 C 13,9 C 9,7 km/h (2 Bft) 97,87 %
17.07.2016 04:38 13,9 C 80 % 1020,2 hPa 0,0 l/m 7,0 km/h (2 Bft) W-SW 254 0 min 0,000 mm 0,0 UV-I 0 W/m 10,5 C 13,5 C 12,9 km/h (3 Bft) 97,87 %
17.07.2016 04:40 13,9 C 80 % 1020,2 hPa 0,0 l/m 7,7 km/h (2 Bft) W-SW 252 0 min 0,000 mm 0,0 UV-I 0 W/m 10,5 C 13,1 C 12,9 km/h (3 Bft) 97,87 %
17.07.2016 04:42 13,9 C 80 % 1020,2 hPa 0,0 l/m 6,0 km/h (2 Bft) W-SW 249 0 min 0,000 mm 0,0 UV-I 0 W/m 10,5 C 13,9 C 8,0 km/h (2 Bft) 97,87 %
17.07.2016 04:44 14,0 C 80 % 1020,3 hPa 0,0 l/m 6,3 km/h (2 Bft) S-SW 213 0 min 0,000 mm 0,0 UV-I 0 W/m 10,6 C 14,0 C 8,0 km/h (2 Bft) 100,00 %
17.07.2016 04:46 14,0 C 80 % 1020,3 hPa 0,0 l/m 7,2 km/h (2 Bft) SW 223 0 min 0,000 mm 0,0 UV-I 0 W/m 10,6 C 13,5 C 11,3 km/h (2 Bft) 95,74 %
17.07.2016 04:48 14,0 C 80 % 1020,3 hPa 0,0 l/m 8,2 km/h (2 Bft) SW 232 0 min 0,000 mm 0,0 UV-I 0 W/m 10,6 C 12,9 C 11,3 km/h (2 Bft) 97,87 %
17.07.2016 04:50 14,0 C 80 % 1020,3 hPa 0,0 l/m 8,1 km/h (2 Bft) SW 234 0 min 0,000 mm 0,0 UV-I 0 W/m 10,6 C 13,0 C 11,3 km/h (2 Bft) 100,00 %
17.07.2016 04:52 14,1 C 80 % 1020,3 hPa 0,0 l/m 8,2 km/h (2 Bft) SW 221 0 min 0,000 mm 0,0 UV-I 0 W/m 10,7 C 13,0 C 11,3 km/h (2 Bft) 100,00 %
17.07.2016 04:54 14,1 C 80 % 1020,3 hPa 0,0 l/m 7,1 km/h (2 Bft) W 263 0 min 0,000 mm 0,0 UV-I 0 W/m 10,7 C 13,7 C 9,7 km/h (2 Bft) 97,56 %
17.07.2016 04:56 14,1 C 80 % 1020,4 hPa 0,0 l/m 5,6 km/h (1 Bft) W-SW 240 0 min 0,000 mm 0,0 UV-I 0 W/m 10,7 C 14,1 C 8,0 km/h (2 Bft) 97,87 %
17.07.2016 04:58 14,2 C 80 % 1020,4 hPa 0,0 l/m 6,9 km/h (2 Bft) W-SW 237 0 min 0,000 mm 0,0 UV-I 0 W/m 10,8 C 13,9 C 9,7 km/h (2 Bft) 95,74 %
17.07.2016 05:00 14,2 C 80 % 1020,4 hPa 0,0 l/m 7,1 km/h (2 Bft) W-SW 247 0 min 0,025 mm 0,0 UV-I 0 W/m 10,8 C 13,8 C 12,9 km/h (3 Bft) 95,74 %
17.07.2016 05:02 14,2 C 80 % 1020,4 hPa 0,0 l/m 6,5 km/h (2 Bft) SW 232 0 min 0,000 mm 0,0 UV-I 0 W/m 10,8 C 14,2 C 11,3 km/h (2 Bft) 97,87 %
17.07.2016 05:04 14,3 C 80 % 1020,3 hPa 0,0 l/m 6,5 km/h (2 Bft) SW 234 0 min 0,000 mm 0,0 UV-I 0 W/m 10,9 C 14,3 C 9,7 km/h (2 Bft) 95,74 %
17.07.2016 05:06 14,2 C 80 % 1020,4 hPa 0,0 l/m 7,5 km/h (2 Bft) SW 222 0 min 0,000 mm 0,0 UV-I 0 W/m 10,8 C 13,5 C 9,7 km/h (2 Bft) 95,74 %
17.07.2016 05:08 14,3 C 80 % 1020,3 hPa 0,0 l/m 8,4 km/h (2 Bft) W-SW 242 0 min 0,000 mm 0,0 UV-I 0 W/m 10,9 C 13,1 C 11,3 km/h (2 Bft) 97,87 %
17.07.2016 05:10 14,3 C 79 % 1020,4 hPa 0,0 l/m 6,4 km/h (2 Bft) W-SW 245 0 min 0,000 mm 0,0 UV-I 0 W/m 10,7 C 14,3 C 12,9 km/h (3 Bft) 91,49 %
17.07.2016 05:12 14,3 C 80 % 1020,3 hPa 0,0 l/m 8,8 km/h (2 Bft) W-SW 252 0 min 0,000 mm 0,0 UV-I 0 W/m 10,9 C 12,9 C 12,9 km/h (3 Bft) 97,92 %
17.07.2016 05:14 14,3 C 79 % 1020,3 hPa 0,0 l/m 8,4 km/h (2 Bft) W-SW 257 0 min 0,000 mm 0,0 UV-I 0 W/m 10,7 C 13,1 C 11,3 km/h (2 Bft) 95,74 %
17.07.2016 05:16 14,4 C 79 % 1020,3 hPa 0,0 l/m 9,5 km/h (2 Bft) W-SW 250 0 min 0,000 mm 0,0 UV-I 0 W/m 10,8 C 12,7 C 12,9 km/h (3 Bft) 93,62 %
17.07.2016 05:18 14,4 C 80 % 1020,3 hPa 0,0 l/m 6,1 km/h (2 Bft) W-SW 252 0 min 0,000 mm 0,0 UV-I 0 W/m 11,0 C 14,4 C 8,0 km/h (2 Bft) 97,87 %
17.07.2016 05:20 14,4 C 79 % 1020,4 hPa 0,0 l/m 6,9 km/h (2 Bft) W-SW 251 0 min 0,000 mm 0,0 UV-I 0 W/m 10,8 C 14,1 C 11,3 km/h (2 Bft) 95,74 %
17.07.2016 05:22 14,5 C 79 % 1020,3 hPa 0,0 l/m 7,5 km/h (2 Bft) W 263 0 min 0,000 mm 0,0 UV-I 0 W/m 10,9 C 13,9 C 11,3 km/h (2 Bft) 98,00 %
17.07.2016 05:24 14,6 C 79 % 1020,3 hPa 0,0 l/m 7,4 km/h (2 Bft) SW 221 0 min 0,000 mm 0,0 UV-I 0 W/m 11,0 C 14,0 C 11,3 km/h (2 Bft) 97,87 %
17.07.2016 05:26 14,6 C 79 % 1020,3 hPa 0,0 l/m 5,7 km/h (1 Bft) W-SW 257 0 min 0,000 mm 0,0 UV-I 0 W/m 11,0 C 14,6 C 8,0 km/h (2 Bft) 97,87 %
17.07.2016 05:28 14,7 C 79 % 1020,3 hPa 0,0 l/m 6,3 km/h (2 Bft) W-SW 242 0 min 0,000 mm 0,0 UV-I 0 W/m 11,1 C 14,7 C 8,0 km/h (2 Bft) 97,87 %
17.07.2016 05:30 14,7 C 79 % 1020,3 hPa 0,0 l/m 4,9 km/h (1 Bft) W-SW 244 0 min 0,000 mm 0,0 UV-I 0 W/m 11,1 C 14,7 C 8,0 km/h (2 Bft) 93,62 %
17.07.2016 05:32 14,7 C 79 % 1020,3 hPa 0,0 l/m 7,4 km/h (2 Bft) W-SW 242 0 min 0,000 mm 0,0 UV-I 0 W/m 11,1 C 14,1 C 9,7 km/h (2 Bft) 100,00 %
17.07.2016 05:34 14,7 C 79 % 1020,2 hPa 0,0 l/m 5,5 km/h (1 Bft) SW 220 0 min 0,000 mm 0,0 UV-I 0 W/m 11,1 C 14,7 C 8,0 km/h (2 Bft) 97,87 %
17.07.2016 05:36 14,7 C 79 % 1020,2 hPa 0,0 l/m 6,7 km/h (2 Bft) W-SW 242 0 min 0,000 mm 0,0 UV-I 0 W/m 11,1 C 14,5 C 11,3 km/h (2 Bft) 97,87 %
17.07.2016 05:38 14,7 C 79 % 1020,3 hPa 0,0 l/m 6,0 km/h (2 Bft) SW 231 0 min 0,000 mm 0,0 UV-I 0 W/m 11,1 C 14,7 C 8,0 km/h (2 Bft) 97,87 %
17.07.2016 05:40 14,7 C 79 % 1020,3 hPa 0,0 l/m 5,7 km/h (1 Bft) SW 220 0 min 0,000 mm 0,0 UV-I 0 W/m 11,1 C 14,7 C 11,3 km/h (2 Bft) 100,00 %
17.07.2016 05:42 14,7 C 80 % 1020,3 hPa 0,0 l/m 5,5 km/h (1 Bft) W-SW 246 0 min 0,000 mm 0,0 UV-I 0 W/m 11,3 C 14,7 C 8,0 km/h (2 Bft) 100,00 %
17.07.2016 05:44 14,7 C 80 % 1020,3 hPa 0,0 l/m 5,5 km/h (1 Bft) W-SW 249 0 min 0,000 mm 0,0 UV-I 0 W/m 11,3 C 14,7 C 6,4 km/h (2 Bft) 100,00 %
17.07.2016 05:46 14,7 C 80 % 1020,4 hPa 0,0 l/m 6,1 km/h (2 Bft) W-SW 239 0 min 0,000 mm 0,0 UV-I 0 W/m 11,3 C 14,7 C 8,0 km/h (2 Bft) 96,00 %
17.07.2016 05:48 14,6 C 80 % 1020,3 hPa 0,0 l/m 7,9 km/h (2 Bft) W 259 0 min 0,000 mm 0,0 UV-I 1 W/m 11,2 C 13,7 C 11,3 km/h (2 Bft) 100,00 %
17.07.2016 05:50 14,6 C 80 % 1020,3 hPa 0,0 l/m 7,9 km/h (2 Bft) W-SW 244 0 min 0,000 mm 0,0 UV-I 5 W/m 11,2 C 13,7 C 12,9 km/h (3 Bft) 100,00 %
17.07.2016 05:52 14,6 C 80 % 1020,3 hPa 0,0 l/m 7,9 km/h (2 Bft) SW 223 0 min 0,000 mm 0,0 UV-I 6 W/m 11,2 C 13,7 C 12,9 km/h (3 Bft) 97,44 %
17.07.2016 05:54 14,7 C 80 % 1020,3 hPa 0,0 l/m 10,3 km/h (2 Bft) W-SW 249 0 min 0,000 mm 0,0 UV-I 7 W/m 11,3 C 12,6 C 14,5 km/h (3 Bft) 100,00 %
17.07.2016 05:56 14,7 C 80 % 1020,3 hPa 0,0 l/m 10,9 km/h (2 Bft) W-SW 241 0 min 0,000 mm 0,0 UV-I 5 W/m 11,3 C 12,4 C 16,1 km/h (3 Bft) 100,00 %
17.07.2016 05:58 14,7 C 80 % 1020,3 hPa 0,0 l/m 12,5 km/h (3 Bft) W-SW 246 0 min 0,000 mm 0,0 UV-I 5 W/m 11,3 C 11,7 C 17,7 km/h (3 Bft) 100,00 %
17.07.2016 06:00 14,8 C 80 % 1020,4 hPa 0,0 l/m 10,6 km/h (2 Bft) W 268 0 min 0,000 mm 0,0 UV-I 2 W/m 11,4 C 12,6 C 16,1 km/h (3 Bft) 100,00 %
17.07.2016 06:02 14,8 C 80 % 1020,3 hPa 0,0 l/m 11,8 km/h (2 Bft) W-SW 244 0 min 0,026 mm 0,0 UV-I 0 W/m 11,4 C 12,1 C 19,3 km/h (3 Bft) 100,00 %
17.07.2016 06:04 14,9 C 80 % 1020,3 hPa 0,0 l/m 9,6 km/h (2 Bft) W 262 0 min 0,000 mm 0,0 UV-I 5 W/m 11,5 C 13,2 C 17,7 km/h (3 Bft) 100,00 %
17.07.2016 06:06 14,9 C 80 % 1020,4 hPa 0,0 l/m 12,0 km/h (2 Bft) W-SW 254 0 min 0,000 mm 0,0 UV-I 5 W/m 11,5 C 12,2 C 19,3 km/h (3 Bft) 97,87 %
17.07.2016 06:08 14,9 C 80 % 1020,4 hPa 0,0 l/m 10,2 km/h (2 Bft) W-SW 252 0 min 0,000 mm 0,0 UV-I 5 W/m 11,5 C 12,9 C 16,1 km/h (3 Bft) 100,00 %
17.07.2016 06:10 14,9 C 80 % 1020,4 hPa 0,0 l/m 11,5 km/h (2 Bft) W 265 0 min 0,000 mm 0,0 UV-I 5 W/m 11,5 C 12,4 C 19,3 km/h (3 Bft) 100,00 %
17.07.2016 06:12 14,9 C 80 % 1020,4 hPa 0,0 l/m 10,6 km/h (2 Bft) W 272 0 min 0,000 mm 0,0 UV-I 5 W/m 11,5 C 12,7 C 14,5 km/h (3 Bft) 100,00 %
17.07.2016 06:14 14,9 C 80 % 1020,4 hPa 0,0 l/m 11,5 km/h (2 Bft) W-SW 248 0 min 0,000 mm 0,0 UV-I 7 W/m 11,5 C 12,4 C 19,3 km/h (3 Bft) 100,00 %
17.07.2016 06:16 14,9 C 80 % 1020,4 hPa 0,0 l/m 12,3 km/h (3 Bft) SW 215 0 min 0,000 mm 0,0 UV-I 7 W/m 11,5 C 12,0 C 17,7 km/h (3 Bft) 97,87 %
17.07.2016 06:18 15,0 C 81 % 1020,4 hPa 0,0 l/m 11,3 km/h (2 Bft) SW 225 0 min 0,000 mm 0,0 UV-I 10 W/m 11,8 C 12,6 C 14,5 km/h (3 Bft) 100,00 %
17.07.2016 06:20 14,9 C 81 % 1020,5 hPa 0,0 l/m 11,9 km/h (2 Bft) W-SW 249 0 min 0,000 mm 0,0 UV-I 11 W/m 11,7 C 12,2 C 16,1 km/h (3 Bft) 100,00 %
17.07.2016 06:22 14,9 C 81 % 1020,5 hPa 0,0 l/m 11,8 km/h (2 Bft) SW 227 0 min 0,000 mm 0,0 UV-I 12 W/m 11,7 C 12,2 C 17,7 km/h (3 Bft) 100,00 %
17.07.2016 06:24 14,9 C 81 % 1020,5 hPa 0,0 l/m 11,1 km/h (2 Bft) W-SW 258 0 min 0,000 mm 0,0 UV-I 11 W/m 11,7 C 12,5 C 17,7 km/h (3 Bft) 100,00 %
17.07.2016 06:26 14,9 C 82 % 1020,6 hPa 0,0 l/m 11,5 km/h (2 Bft) W-SW 246 0 min 0,000 mm 0,0 UV-I 11 W/m 11,9 C 12,4 C 17,7 km/h (3 Bft) 100,00 %
17.07.2016 06:28 14,9 C 82 % 1020,5 hPa 0,0 l/m 9,8 km/h (2 Bft) S-SW 209 0 min 0,000 mm 0,0 UV-I 11 W/m 11,9 C 13,1 C 14,5 km/h (3 Bft) 97,87 %
17.07.2016 06:30 14,9 C 82 % 1020,5 hPa 0,0 l/m 12,7 km/h (3 Bft) W-SW 252 0 min 0,000 mm 0,0 UV-I 12 W/m 11,9 C 11,9 C 19,3 km/h (3 Bft) 100,00 %
17.07.2016 06:32 14,8 C 83 % 1020,5 hPa 0,0 l/m 13,8 km/h (3 Bft) W-SW 248 0 min 0,000 mm 0,0 UV-I 13 W/m 11,9 C 11,4 C 17,7 km/h (3 Bft) 100,00 %
17.07.2016 06:34 14,8 C 83 % 1020,6 hPa 0,0 l/m 13,6 km/h (3 Bft) W 260 0 min 0,000 mm 0,0 UV-I 14 W/m 11,9 C 11,4 C 20,9 km/h (4 Bft) 100,00 %
17.07.2016 06:36 14,8 C 83 % 1020,5 hPa 0,0 l/m 12,8 km/h (3 Bft) W-SW 237 0 min 0,000 mm 0,0 UV-I 16 W/m 11,9 C 11,7 C 19,3 km/h (3 Bft) 100,00 %
17.07.2016 06:38 14,7 C 84 % 1020,5 hPa 0,0 l/m 13,3 km/h (3 Bft) S-SW 209 0 min 0,000 mm 0,0 UV-I 19 W/m 12,0 C 11,4 C 19,3 km/h (3 Bft) 100,00 %
17.07.2016 06:40 14,7 C 84 % 1020,5 hPa 0,0 l/m 13,2 km/h (3 Bft) W-SW 256 0 min 0,000 mm 0,0 UV-I 25 W/m 12,0 C 11,5 C 17,7 km/h (3 Bft) 100,00 %
17.07.2016 06:42 14,6 C 85 % 1020,4 hPa 0,0 l/m 13,1 km/h (3 Bft) SW 219 0 min 0,000 mm 0,0 UV-I 30 W/m 12,1 C 11,4 C 22,5 km/h (4 Bft) 100,00 %
17.07.2016 06:44 14,6 C 85 % 1020,5 hPa 0,0 l/m 16,3 km/h (3 Bft) SW 225 0 min 0,000 mm 0,0 UV-I 34 W/m 12,1 C 10,3 C 22,5 km/h (4 Bft) 98,00 %
17.07.2016 06:46 14,6 C 85 % 1020,5 hPa 0,0 l/m 14,8 km/h (3 Bft) SW 235 0 min 0,000 mm 0,0 UV-I 42 W/m 12,1 C 10,8 C 24,1 km/h (4 Bft) 97,87 %
17.07.2016 06:48 14,5 C 85 % 1020,5 hPa 0,0 l/m 12,5 km/h (3 Bft) W-SW 250 0 min 0,000 mm 0,0 UV-I 61 W/m 12,0 C 11,5 C 20,9 km/h (4 Bft) 100,00 %
17.07.2016 06:50 14,5 C 86 % 1020,4 hPa 0,0 l/m 14,0 km/h (3 Bft) W-SW 249 0 min 0,000 mm 0,0 UV-I 76 W/m 12,2 C 10,9 C 22,5 km/h (4 Bft) 100,00 %
17.07.2016 06:52 14,6 C 86 % 1020,4 hPa 0,0 l/m 14,5 km/h (3 Bft) W-SW 247 0 min 0,000 mm 0,0 UV-I 114 W/m 12,3 C 10,9 C 19,3 km/h (3 Bft) 98,04 %
17.07.2016 06:54 14,6 C 85 % 1020,3 hPa 0,0 l/m 15,6 km/h (3 Bft) W-SW 239 2 min 0,000 mm 0,0 UV-I 126 W/m 12,1 C 10,5 C 22,5 km/h (4 Bft) 100,00 %
17.07.2016 06:56 14,6 C 85 % 1020,3 hPa 0,0 l/m 13,1 km/h (3 Bft) W-SW 240 2 min 0,000 mm 0,0 UV-I 134 W/m 12,1 C 11,4 C 20,9 km/h (4 Bft) 97,87 %
17.07.2016 06:58 14,7 C 85 % 1020,3 hPa 0,0 l/m 16,6 km/h (3 Bft) W-SW 258 2 min 0,000 mm 0,0 UV-I 164 W/m 12,2 C 10,3 C 25,7 km/h (4 Bft) 100,00 %
17.07.2016 07:00 14,7 C 85 % 1020,3 hPa 0,0 l/m 18,4 km/h (3 Bft) SW 227 2 min 0,051 mm 0,0 UV-I 180 W/m 12,2 C 9,8 C 25,7 km/h (4 Bft) 95,74 %
17.07.2016 07:02 14,8 C 85 % 1020,3 hPa 0,0 l/m 16,0 km/h (3 Bft) W-SW 252 2 min 0,000 mm 0,0 UV-I 191 W/m 12,3 C 10,6 C 25,7 km/h (4 Bft) 97,92 %
17.07.2016 07:04 14,9 C 84 % 1020,3 hPa 0,0 l/m 13,4 km/h (3 Bft) W-SW 247 2 min 0,000 mm 0,0 UV-I 199 W/m 12,2 C 11,6 C 22,5 km/h (4 Bft) 95,74 %
17.07.2016 07:06 15,1 C 84 % 1020,3 hPa 0,0 l/m 17,0 km/h (3 Bft) W-SW 248 2 min 0,000 mm 0,0 UV-I 205 W/m 12,4 C 10,7 C 22,5 km/h (4 Bft) 97,44 %
17.07.2016 07:08 15,2 C 83 % 1020,3 hPa 0,0 l/m 14,6 km/h (3 Bft) W-SW 244 2 min 0,000 mm 0,0 UV-I 221 W/m 12,3 C 11,6 C 25,7 km/h (4 Bft) 97,87 %
17.07.2016 07:10 15,2 C 82 % 1020,3 hPa 0,0 l/m 18,2 km/h (3 Bft) W-SW 238 2 min 0,000 mm 0,0 UV-I 236 W/m 12,1 C 10,5 C 30,6 km/h (5 Bft) 97,87 %
17.07.2016 07:12 15,3 C 82 % 1020,3 hPa 0,0 l/m 17,8 km/h (3 Bft) SW 220 2 min 0,000 mm 0,0 UV-I 237 W/m 12,2 C 10,7 C 30,6 km/h (5 Bft) 97,92 %
17.07.2016 07:14 15,3 C 82 % 1020,3 hPa 0,0 l/m 19,9 km/h (4 Bft) SW 232 2 min 0,000 mm 0,0 UV-I 238 W/m 12,2 C 10,2 C 30,6 km/h (5 Bft) 96,00 %
17.07.2016 07:16 15,3 C 82 % 1020,1 hPa 0,0 l/m 19,5 km/h (3 Bft) S-SW 212 2 min 0,000 mm 0,0 UV-I 211 W/m 12,2 C 10,3 C 27,4 km/h (4 Bft) 95,74 %
17.07.2016 07:18 15,3 C 82 % 1020,1 hPa 0,0 l/m 18,6 km/h (3 Bft) SW 236 2 min 0,000 mm 0,0 UV-I 230 W/m 12,2 C 10,5 C 32,2 km/h (5 Bft) 95,74 %
17.07.2016 07:20 15,3 C 82 % 1020,2 hPa 0,0 l/m 19,2 km/h (3 Bft) SW 229 0 min 0,000 mm 0,0 UV-I 160 W/m 12,2 C 10,3 C 25,7 km/h (4 Bft) 97,87 %
17.07.2016 07:22 15,3 C 82 % 1020,1 hPa 0,0 l/m 20,8 km/h (4 Bft) W-SW 240 0 min 0,000 mm 0,0 UV-I 126 W/m 12,2 C 9,9 C 29,0 km/h (5 Bft) 100,00 %
17.07.2016 07:24 15,2 C 82 % 1020,1 hPa 0,0 l/m 20,4 km/h (4 Bft) W-SW 244 0 min 0,000 mm 0,0 UV-I 109 W/m 12,1 C 9,9 C 27,4 km/h (4 Bft) 97,87 %
17.07.2016 07:26 15,1 C 82 % 1020,2 hPa 0,0 l/m 15,2 km/h (3 Bft) S-SW 213 0 min 0,000 mm 0,0 UV-I 99 W/m 12,0 C 11,2 C 22,5 km/h (4 Bft) 97,87 %
17.07.2016 07:28 15,1 C 82 % 1020,3 hPa 0,0 l/m 16,9 km/h (3 Bft) W-SW 247 0 min 0,000 mm 0,0 UV-I 90 W/m 12,0 C 10,7 C 30,6 km/h (5 Bft) 95,74 %
17.07.2016 07:30 15,0 C 82 % 1020,4 hPa 0,0 l/m 17,2 km/h (3 Bft) SW 218 0 min 0,000 mm 0,0 UV-I 86 W/m 12,0 C 10,5 C 29,0 km/h (5 Bft) 93,62 %
17.07.2016 07:32 14,9 C 83 % 1020,4 hPa 0,0 l/m 12,6 km/h (3 Bft) W-SW 249 0 min 0,000 mm 0,0 UV-I 90 W/m 12,0 C 11,9 C 20,9 km/h (4 Bft) 96,00 %
17.07.2016 07:34 14,8 C 83 % 1020,4 hPa 0,0 l/m 14,7 km/h (3 Bft) S-SW 211 0 min 0,000 mm 0,0 UV-I 100 W/m 11,9 C 11,1 C 24,1 km/h (4 Bft) 97,87 %
17.07.2016 07:36 14,8 C 83 % 1020,5 hPa 0,0 l/m 14,1 km/h (3 Bft) SW 214 0 min 0,000 mm 0,0 UV-I 91 W/m 11,9 C 11,3 C 22,5 km/h (4 Bft) 92,11 %
17.07.2016 07:38 14,7 C 83 % 1020,5 hPa 0,0 l/m 16,0 km/h (3 Bft) SW 222 0 min 0,000 mm 0,0 UV-I 80 W/m 11,8 C 10,5 C 22,5 km/h (4 Bft) 97,87 %
17.07.2016 07:40 14,7 C 83 % 1020,5 hPa 0,0 l/m 14,2 km/h (3 Bft) SW 214 0 min 0,000 mm 0,0 UV-I 75 W/m 11,8 C 11,1 C 24,1 km/h (4 Bft) 100,00 %
17.07.2016 07:42 14,7 C 83 % 1020,5 hPa 0,0 l/m 17,2 km/h (3 Bft) S-SW 213 0 min 0,000 mm 0,0 UV-I 74 W/m 11,8 C 10,1 C 33,8 km/h (5 Bft) 96,00 %
17.07.2016 07:44 14,6 C 84 % 1020,5 hPa 0,0 l/m 11,6 km/h (2 Bft) S-SW 206 0 min 0,000 mm 0,0 UV-I 77 W/m 11,9 C 12,0 C 17,7 km/h (3 Bft) 100,00 %
17.07.2016 07:46 14,7 C 84 % 1020,5 hPa 0,0 l/m 12,9 km/h (3 Bft) SW 221 0 min 0,000 mm 0,0 UV-I 81 W/m 12,0 C 11,6 C 24,1 km/h (4 Bft) 97,87 %
17.07.2016 07:48 14,6 C 84 % 1020,6 hPa 0,0 l/m 17,5 km/h (3 Bft) W-SW 250 0 min 0,000 mm 0,0 UV-I 84 W/m 11,9 C 9,9 C 29,0 km/h (5 Bft) 97,87 %
17.07.2016 07:50 14,6 C 84 % 1020,7 hPa 0,0 l/m 14,6 km/h (3 Bft) SW 219 0 min 0,000 mm 0,0 UV-I 82 W/m 11,9 C 10,8 C 25,7 km/h (4 Bft) 98,00 %
17.07.2016 07:52 14,6 C 84 % 1020,6 hPa 0,0 l/m 15,9 km/h (3 Bft) W-SW 243 0 min 0,000 mm 0,0 UV-I 84 W/m 11,9 C 10,4 C 27,4 km/h (4 Bft) 100,00 %
17.07.2016 07:54 14,6 C 84 % 1020,7 hPa 0,0 l/m 12,4 km/h (3 Bft) S 174 0 min 0,000 mm 0,0 UV-I 84 W/m 11,9 C 11,7 C 17,7 km/h (3 Bft) 100,00 %
17.07.2016 07:56 14,6 C 84 % 1020,7 hPa 0,0 l/m 14,9 km/h (3 Bft) SW 218 0 min 0,000 mm 0,0 UV-I 77 W/m 11,9 C 10,7 C 24,1 km/h (4 Bft) 95,74 %
17.07.2016 07:58 14,7 C 84 % 1020,7 hPa 0,0 l/m 16,0 km/h (3 Bft) S-SW 212 0 min 0,000 mm 0,0 UV-I 70 W/m 12,0 C 10,5 C 24,1 km/h (4 Bft) 100,00 %
17.07.2016 08:00 14,7 C 84 % 1020,8 hPa 0,0 l/m 13,7 km/h (3 Bft) SW 229 0 min 0,101 mm 0,0 UV-I 69 W/m 12,0 C 11,3 C 19,3 km/h (3 Bft) 97,87 %
17.07.2016 08:02 14,7 C 84 % 1020,7 hPa 0,0 l/m 16,3 km/h (3 Bft) SW 219 0 min 0,000 mm 0,0 UV-I 73 W/m 12,0 C 10,4 C 27,4 km/h (4 Bft) 100,00 %
17.07.2016 08:04 14,7 C 84 % 1020,8 hPa 0,0 l/m 20,1 km/h (4 Bft) W 259 0 min 0,000 mm 0,0 UV-I 77 W/m 12,0 C 9,3 C 29,0 km/h (5 Bft) 100,00 %
17.07.2016 08:06 14,7 C 84 % 1020,8 hPa 0,0 l/m 16,2 km/h (3 Bft) W 259 0 min 0,000 mm 0,0 UV-I 75 W/m 12,0 C 10,4 C 24,1 km/h (4 Bft) 96,00 %
17.07.2016 08:08 14,7 C 84 % 1020,8 hPa 0,0 l/m 15,0 km/h (3 Bft) SW 217 0 min 0,000 mm 0,0 UV-I 64 W/m 12,0 C 10,8 C 24,1 km/h (4 Bft) 97,87 %
17.07.2016 08:10 14,7 C 84 % 1020,8 hPa 0,0 l/m 15,0 km/h (3 Bft) SW 232 0 min 0,000 mm 0,0 UV-I 52 W/m 12,0 C 10,8 C 22,5 km/h (4 Bft) 100,00 %
17.07.2016 08:12 14,7 C 84 % 1020,8 hPa 0,0 l/m 16,1 km/h (3 Bft) SW 223 0 min 0,000 mm 0,0 UV-I 48 W/m 12,0 C 10,5 C 24,1 km/h (4 Bft) 100,00 %
17.07.2016 08:14 14,7 C 84 % 1020,8 hPa 0,0 l/m 16,4 km/h (3 Bft) SW 228 0 min 0,000 mm 0,0 UV-I 50 W/m 12,0 C 10,4 C 27,4 km/h (4 Bft) 97,87 %
17.07.2016 08:16 14,6 C 84 % 1020,8 hPa 0,0 l/m 11,8 km/h (2 Bft) W-SW 250 0 min 0,000 mm 0,0 UV-I 44 W/m 11,9 C 11,9 C 20,9 km/h (4 Bft) 100,00 %
17.07.2016 08:18 14,6 C 85 % 1020,8 hPa 0,0 l/m 12,2 km/h (2 Bft) W-SW 253 0 min 0,000 mm 0,0 UV-I 40 W/m 12,1 C 11,7 C 17,7 km/h (3 Bft) 95,74 %
17.07.2016 08:20 14,6 C 85 % 1020,8 hPa 0,0 l/m 11,6 km/h (2 Bft) W-SW 247 0 min 0,000 mm 0,0 UV-I 45 W/m 12,1 C 12,0 C 17,7 km/h (3 Bft) 100,00 %
17.07.2016 08:22 14,6 C 85 % 1020,7 hPa 0,0 l/m 10,8 km/h (2 Bft) S 173 0 min 0,000 mm 0,0 UV-I 54 W/m 12,1 C 12,3 C 17,7 km/h (3 Bft) 100,00 %
17.07.2016 08:24 14,6 C 85 % 1020,8 hPa 0,0 l/m 15,5 km/h (3 Bft) W-SW 254 0 min 0,000 mm 0,0 UV-I 55 W/m 12,1 C 10,5 C 22,5 km/h (4 Bft) 95,83 %
17.07.2016 08:26 14,6 C 85 % 1020,8 hPa 0,0 l/m 14,8 km/h (3 Bft) S-SW 196 0 min 0,000 mm 0,0 UV-I 55 W/m 12,1 C 10,8 C 20,9 km/h (4 Bft) 97,87 %
17.07.2016 08:28 14,6 C 85 % 1020,8 hPa 0,0 l/m 14,8 km/h (3 Bft) W-SW 242 0 min 0,000 mm 0,0 UV-I 55 W/m 12,1 C 10,8 C 22,5 km/h (4 Bft) 100,00 %
17.07.2016 08:30 14,6 C 85 % 1020,7 hPa 0,0 l/m 15,7 km/h (3 Bft) W-SW 248 0 min 0,000 mm 0,0 UV-I 51 W/m 12,1 C 10,5 C 29,0 km/h (5 Bft) 100,00 %
17.07.2016 08:32 14,6 C 85 % 1020,8 hPa 0,0 l/m 12,0 km/h (2 Bft) SW 223 0 min 0,000 mm 0,0 UV-I 41 W/m 12,1 C 11,8 C 19,3 km/h (3 Bft) 100,00 %
17.07.2016 08:34 14,6 C 85 % 1020,7 hPa 0,0 l/m 19,7 km/h (3 Bft) SW 226 0 min 0,000 mm 0,0 UV-I 36 W/m 12,1 C 9,3 C 27,4 km/h (4 Bft) 100,00 %
17.07.2016 08:36 14,6 C 85 % 1020,7 hPa 0,0 l/m 15,4 km/h (3 Bft) S-SW 197 0 min 0,000 mm 0,0 UV-I 37 W/m 12,1 C 10,6 C 22,5 km/h (4 Bft) 97,87 %
17.07.2016 08:38 14,6 C 86 % 1020,7 hPa 0,0 l/m 14,4 km/h (3 Bft) W 261 0 min 0,000 mm 0,0 UV-I 38 W/m 12,3 C 10,9 C 25,7 km/h (4 Bft) 100,00 %
17.07.2016 08:40 14,6 C 86 % 1020,7 hPa 0,0 l/m 12,8 km/h (3 Bft) SW 223 0 min 0,000 mm 0,0 UV-I 37 W/m 12,3 C 11,5 C 19,3 km/h (3 Bft) 100,00 %
17.07.2016 08:42 14,5 C 86 % 1020,7 hPa 0,0 l/m 15,9 km/h (3 Bft) SW 226 0 min 0,000 mm 0,0 UV-I 38 W/m 12,2 C 10,3 C 22,5 km/h (4 Bft) 100,00 %
17.07.2016 08:44 14,6 C 86 % 1020,7 hPa 0,0 l/m 15,1 km/h (3 Bft) W 261 0 min 0,000 mm 0,0 UV-I 46 W/m 12,3 C 10,7 C 20,9 km/h (4 Bft) 100,00 %
17.07.2016 08:46 14,5 C 86 % 1020,7 hPa 0,0 l/m 14,9 km/h (3 Bft) SW 230 0 min 0,000 mm 0,0 UV-I 48 W/m 12,2 C 10,6 C 24,1 km/h (4 Bft) 100,00 %
17.07.2016 08:48 14,5 C 87 % 1020,8 hPa 0,0 l/m 11,8 km/h (2 Bft) W-SW 241 0 min 0,000 mm 0,0 UV-I 45 W/m 12,4 C 11,8 C 17,7 km/h (3 Bft) 100,00 %
17.07.2016 08:50 14,6 C 86 % 1020,7 hPa 0,0 l/m 11,9 km/h (2 Bft) W-SW 238 0 min 0,000 mm 0,0 UV-I 48 W/m 12,3 C 11,9 C 20,9 km/h (4 Bft) 100,00 %
17.07.2016 08:52 14,5 C 87 % 1020,8 hPa 0,0 l/m 14,7 km/h (3 Bft) SW 219 0 min 0,000 mm 0,0 UV-I 54 W/m 12,4 C 10,7 C 22,5 km/h (4 Bft) 100,00 %
17.07.2016 08:54 14,5 C 87 % 1020,8 hPa 0,0 l/m 15,5 km/h (3 Bft) SW 225 0 min 0,000 mm 0,0 UV-I 55 W/m 12,4 C 10,4 C 20,9 km/h (4 Bft) 100,00 %
17.07.2016 08:56 14,5 C 87 % 1020,7 hPa 0,0 l/m 12,9 km/h (3 Bft) SW 224 0 min 0,000 mm 0,0 UV-I 53 W/m 12,4 C 11,3 C 24,1 km/h (4 Bft) 95,74 %
17.07.2016 08:58 14,5 C 87 % 1020,8 hPa 0,0 l/m 15,3 km/h (3 Bft) W 265 0 min 0,000 mm 0,0 UV-I 46 W/m 12,4 C 10,5 C 29,0 km/h (5 Bft) 96,00 %
17.07.2016 09:00 14,4 C 88 % 1020,8 hPa 0,0 l/m 10,3 km/h (2 Bft) W-SW 256 0 min 0,051 mm 0,0 UV-I 39 W/m 12,4 C 12,3 C 22,5 km/h (4 Bft) 95,74 %
17.07.2016 09:02 14,4 C 88 % 1020,8 hPa 0,0 l/m 11,6 km/h (2 Bft) SW 227 0 min 0,000 mm 0,0 UV-I 35 W/m 12,4 C 11,7 C 19,3 km/h (3 Bft) 97,44 %
17.07.2016 09:04 14,4 C 88 % 1020,8 hPa 0,0 l/m 14,2 km/h (3 Bft) W 269 0 min 0,000 mm 0,0 UV-I 31 W/m 12,4 C 10,7 C 20,9 km/h (4 Bft) 96,00 %
17.07.2016 09:06 14,3 C 89 % 1020,8 hPa 0,0 l/m 11,9 km/h (2 Bft) SW 218 0 min 0,000 mm 0,0 UV-I 27 W/m 12,5 C 11,5 C 19,3 km/h (3 Bft) 95,74 %
17.07.2016 09:08 14,3 C 89 % 1020,8 hPa 0,0 l/m 9,2 km/h (2 Bft) W-SW 248 0 min 0,000 mm 0,0 UV-I 22 W/m 12,5 C 12,7 C 14,5 km/h (3 Bft) 93,62 %
17.07.2016 09:10 14,2 C 90 % 1020,9 hPa 0,0 l/m 11,6 km/h (2 Bft) SW 217 0 min 0,000 mm 0,0 UV-I 19 W/m 12,6 C 11,5 C 17,7 km/h (3 Bft) 97,87 %
17.07.2016 09:12 14,2 C 90 % 1020,9 hPa 0,0 l/m 10,9 km/h (2 Bft) SW 223 0 min 0,000 mm 0,0 UV-I 16 W/m 12,6 C 11,8 C 17,7 km/h (3 Bft) 97,87 %
17.07.2016 09:14 14,1 C 90 % 1020,9 hPa 0,0 l/m 12,0 km/h (2 Bft) SW 222 0 min 0,000 mm 0,0 UV-I 17 W/m 12,5 C 11,2 C 20,9 km/h (4 Bft) 97,87 %
17.07.2016 09:16 14,1 C 91 % 1020,9 hPa 0,0 l/m 12,5 km/h (3 Bft) SW 227 0 min 0,000 mm 0,0 UV-I 17 W/m 12,7 C 11,0 C 17,7 km/h (3 Bft) 97,87 %
17.07.2016 09:18 14,0 C 91 % 1020,9 hPa 0,0 l/m 10,6 km/h (2 Bft) W-SW 246 0 min 0,000 mm 0,0 UV-I 17 W/m 12,6 C 11,7 C 17,7 km/h (3 Bft) 95,74 %
17.07.2016 09:20 13,9 C 91 % 1020,9 hPa 0,0 l/m 9,4 km/h (2 Bft) W-SW 249 0 min 0,000 mm 0,0 UV-I 19 W/m 12,5 C 12,2 C 16,1 km/h (3 Bft) 97,87 %
17.07.2016 09:22 13,9 C 91 % 1020,9 hPa 0,0 l/m 12,2 km/h (2 Bft) W-SW 250 0 min 0,000 mm 0,0 UV-I 20 W/m 12,5 C 10,9 C 17,7 km/h (3 Bft) 97,87 %
17.07.2016 09:24 13,9 C 92 % 1020,9 hPa 0,0 l/m 10,0 km/h (2 Bft) W 259 0 min 0,000 mm 0,0 UV-I 24 W/m 12,6 C 11,9 C 14,5 km/h (3 Bft) 97,87 %
17.07.2016 09:26 13,9 C 92 % 1020,9 hPa 0,0 l/m 8,9 km/h (2 Bft) SW 234 0 min 0,000 mm 0,0 UV-I 28 W/m 12,6 C 12,5 C 12,9 km/h (3 Bft) 97,87 %
17.07.2016 09:28 13,9 C 92 % 1020,9 hPa 0,0 l/m 7,0 km/h (2 Bft) W-SW 250 0 min 0,000 mm 0,0 UV-I 36 W/m 12,6 C 13,5 C 12,9 km/h (3 Bft) 95,74 %
17.07.2016 09:30 13,9 C 92 % 1020,8 hPa 0,0 l/m 6,3 km/h (2 Bft) S-SW 204 0 min 0,000 mm 0,0 UV-I 38 W/m 12,6 C 13,9 C 9,7 km/h (2 Bft) 95,74 %
17.07.2016 09:32 13,9 C 92 % 1020,8 hPa 0,0 l/m 9,9 km/h (2 Bft) SW 224 0 min 0,000 mm 0,0 UV-I 44 W/m 12,6 C 12,0 C 17,7 km/h (3 Bft) 100,00 %
17.07.2016 09:34 13,8 C 92 % 1020,7 hPa 0,0 l/m 10,9 km/h (2 Bft) S-SW 202 0 min 0,000 mm 0,0 UV-I 52 W/m 12,5 C 11,4 C 17,7 km/h (3 Bft) 100,00 %
17.07.2016 09:36 13,8 C 92 % 1020,7 hPa 0,0 l/m 8,6 km/h (2 Bft) W-SW 250 0 min 0,000 mm 0,0 UV-I 65 W/m 12,5 C 12,5 C 16,1 km/h (3 Bft) 100,00 %
17.07.2016 09:38 13,9 C 93 % 1020,7 hPa 0,0 l/m 9,9 km/h (2 Bft) W-SW 254 0 min 0,000 mm 0,0 UV-I 65 W/m 12,8 C 12,0 C 14,5 km/h (3 Bft) 97,87 %
17.07.2016 09:40 13,8 C 93 % 1020,8 hPa 0,0 l/m 8,7 km/h (2 Bft) SW 220 0 min 0,000 mm 0,0 UV-I 56 W/m 12,7 C 12,5 C 14,5 km/h (3 Bft) 100,00 %
17.07.2016 09:42 13,9 C 93 % 1020,7 hPa 0,0 l/m 7,9 km/h (2 Bft) W-SW 238 0 min 0,000 mm 0,0 UV-I 58 W/m 12,8 C 13,0 C 12,9 km/h (3 Bft) 100,00 %
17.07.2016 09:44 13,9 C 93 % 1020,7 hPa 0,0 l/m 10,3 km/h (2 Bft) S-SW 197 0 min 0,000 mm 0,3 UV-I 72 W/m 12,8 C 11,8 C 17,7 km/h (3 Bft) 100,00 %
17.07.2016 09:46 13,9 C 93 % 1020,7 hPa 0,0 l/m 10,6 km/h (2 Bft) W-SW 244 0 min 0,000 mm 0,5 UV-I 84 W/m 12,8 C 11,6 C 16,1 km/h (3 Bft) 100,00 %
17.07.2016 09:48 13,9 C 93 % 1020,7 hPa 0,0 l/m 10,0 km/h (2 Bft) SW 221 0 min 0,000 mm 0,5 UV-I 83 W/m 12,8 C 11,9 C 17,7 km/h (3 Bft) 100,00 %
17.07.2016 09:50 13,9 C 93 % 1020,7 hPa 0,0 l/m 12,2 km/h (2 Bft) SW 214 0 min 0,000 mm 0,5 UV-I 85 W/m 12,8 C 10,9 C 16,1 km/h (3 Bft) 98,00 %
17.07.2016 09:52 14,0 C 93 % 1020,7 hPa 0,0 l/m 13,0 km/h (3 Bft) W-SW 238 0 min 0,000 mm 0,6 UV-I 93 W/m 12,9 C 10,7 C 19,3 km/h (3 Bft) 100,00 %
17.07.2016 09:54 14,0 C 93 % 1020,7 hPa 0,0 l/m 14,7 km/h (3 Bft) SW 227 0 min 0,000 mm 0,7 UV-I 105 W/m 12,9 C 10,1 C 22,5 km/h (4 Bft) 100,00 %
17.07.2016 09:56 14,1 C 92 % 1020,6 hPa 0,0 l/m 11,9 km/h (2 Bft) S 191 0 min 0,000 mm 0,9 UV-I 134 W/m 12,8 C 11,3 C 17,7 km/h (3 Bft) 97,87 %
17.07.2016 09:58 14,1 C 92 % 1020,6 hPa 0,0 l/m 13,2 km/h (3 Bft) SW 229 0 min 0,000 mm 1,0 UV-I 158 W/m 12,8 C 10,8 C 20,9 km/h (4 Bft) 100,00 %
17.07.2016 10:00 14,2 C 92 % 1020,7 hPa 0,0 l/m 14,6 km/h (3 Bft) SW 225 0 min 0,051 mm 1,1 UV-I 168 W/m 12,9 C 10,4 C 24,1 km/h (4 Bft) 100,00 %
17.07.2016 10:02 14,3 C 92 % 1020,6 hPa 0,0 l/m 14,0 km/h (3 Bft) W-SW 255 0 min 0,000 mm 1,1 UV-I 177 W/m 13,0 C 10,7 C 20,9 km/h (4 Bft) 98,00 %
17.07.2016 10:04 14,3 C 92 % 1020,6 hPa 0,0 l/m 15,8 km/h (3 Bft) W-SW 250 0 min 0,000 mm 1,3 UV-I 197 W/m 13,0 C 10,1 C 22,5 km/h (4 Bft) 100,00 %
17.07.2016 10:06 14,4 C 92 % 1020,7 hPa 0,0 l/m 12,4 km/h (3 Bft) W 259 0 min 0,000 mm 1,4 UV-I 227 W/m 13,1 C 11,4 C 20,9 km/h (4 Bft) 100,00 %
17.07.2016 10:08 14,6 C 91 % 1020,7 hPa 0,0 l/m 10,5 km/h (2 Bft) W-SW 258 0 min 0,000 mm 1,5 UV-I 231 W/m 13,1 C 12,4 C 20,9 km/h (4 Bft) 100,00 %
17.07.2016 10:10 14,7 C 91 % 1020,7 hPa 0,0 l/m 11,2 km/h (2 Bft) W-SW 250 0 min 0,000 mm 1,5 UV-I 221 W/m 13,2 C 12,3 C 22,5 km/h (4 Bft) 100,00 %
17.07.2016 10:12 14,7 C 91 % 1020,7 hPa 0,0 l/m 12,7 km/h (3 Bft) W-SW 246 0 min 0,000 mm 1,2 UV-I 175 W/m 13,2 C 11,7 C 19,3 km/h (3 Bft) 100,00 %
17.07.2016 10:14 14,8 C 90 % 1020,7 hPa 0,0 l/m 13,2 km/h (3 Bft) W-SW 251 0 min 0,000 mm 1,0 UV-I 148 W/m 13,2 C 11,6 C 24,1 km/h (4 Bft) 100,00 %
17.07.2016 10:16 14,8 C 90 % 1020,6 hPa 0,0 l/m 15,0 km/h (3 Bft) W-SW 238 0 min 0,000 mm 1,1 UV-I 166 W/m 13,2 C 10,9 C 22,5 km/h (4 Bft) 100,00 %
17.07.2016 10:18 14,8 C 90 % 1020,6 hPa 0,0 l/m 18,6 km/h (3 Bft) SW 235 0 min 0,000 mm 1,3 UV-I 201 W/m 13,2 C 9,9 C 30,6 km/h (5 Bft) 100,00 %
17.07.2016 10:20 14,7 C 90 % 1020,6 hPa 0,0 l/m 16,9 km/h (3 Bft) W-SW 245 0 min 0,000 mm 1,3 UV-I 201 W/m 13,1 C 10,2 C 29,0 km/h (5 Bft) 100,00 %
17.07.2016 10:22 14,8 C 90 % 1020,6 hPa 0,0 l/m 15,3 km/h (3 Bft) SW 226 0 min 0,000 mm 1,3 UV-I 194 W/m 13,2 C 10,9 C 25,7 km/h (4 Bft) 97,44 %
17.07.2016 10:24 14,7 C 90 % 1020,6 hPa 0,0 l/m 16,4 km/h (3 Bft) W-SW 258 0 min 0,000 mm 1,4 UV-I 203 W/m 13,1 C 10,4 C 25,7 km/h (4 Bft) 100,00 %
17.07.2016 10:26 14,8 C 91 % 1020,5 hPa 0,0 l/m 17,8 km/h (3 Bft) SW 230 0 min 0,000 mm 1,5 UV-I 218 W/m 13,3 C 10,1 C 29,0 km/h (5 Bft) 100,00 %
17.07.2016 10:28 14,7 C 91 % 1020,5 hPa 0,0 l/m 12,5 km/h (3 Bft) W 263 0 min 0,000 mm 1,4 UV-I 210 W/m 13,2 C 11,7 C 17,7 km/h (3 Bft) 100,00 %
17.07.2016 10:30 14,7 C 91 % 1020,5 hPa 0,0 l/m 12,2 km/h (2 Bft) SW 236 0 min 0,000 mm 1,4 UV-I 207 W/m 13,2 C 11,8 C 25,7 km/h (4 Bft) 100,00 %
17.07.2016 10:32 14,7 C 91 % 1020,5 hPa 0,0 l/m 14,8 km/h (3 Bft) W-SW 242 0 min 0,000 mm 1,5 UV-I 213 W/m 13,2 C 10,9 C 24,1 km/h (4 Bft) 97,87 %
17.07.2016 10:34 14,7 C 92 % 1020,5 hPa 0,0 l/m 13,9 km/h (3 Bft) SW 224 0 min 0,000 mm 1,5 UV-I 216 W/m 13,4 C 11,2 C 20,9 km/h (4 Bft) 100,00 %
17.07.2016 10:36 14,7 C 92 % 1020,5 hPa 0,0 l/m 17,7 km/h (3 Bft) W-SW 239 0 min 0,000 mm 1,6 UV-I 217 W/m 13,4 C 10,0 C 25,7 km/h (4 Bft) 100,00 %
17.07.2016 10:38 14,7 C 92 % 1020,5 hPa 0,0 l/m 13,7 km/h (3 Bft) W-SW 246 0 min 0,000 mm 1,6 UV-I 218 W/m 13,4 C 11,3 C 24,1 km/h (4 Bft) 100,00 %
17.07.2016 10:40 14,7 C 92 % 1020,5 hPa 0,0 l/m 12,6 km/h (3 Bft) SW 235 0 min 0,000 mm 1,7 UV-I 219 W/m 13,4 C 11,7 C 25,7 km/h (4 Bft) 100,00 %
17.07.2016 10:42 14,7 C 92 % 1020,5 hPa 0,0 l/m 17,1 km/h (3 Bft) W-SW 248 0 min 0,000 mm 1,4 UV-I 193 W/m 13,4 C 10,2 C 30,6 km/h (5 Bft) 100,00 %
17.07.2016 10:44 14,8 C 92 % 1020,5 hPa 0,0 l/m 12,6 km/h (3 Bft) W-SW 248 0 min 0,000 mm 1,3 UV-I 178 W/m 13,5 C 11,8 C 22,5 km/h (4 Bft) 95,74 %
17.07.2016 10:46 14,8 C 92 % 1020,5 hPa 0,0 l/m 13,2 km/h (3 Bft) SW 233 0 min 0,000 mm 1,3 UV-I 181 W/m 13,5 C 11,6 C 19,3 km/h (3 Bft) 100,00 %
17.07.2016 10:48 14,8 C 92 % 1020,5 hPa 0,0 l/m 16,1 km/h (3 Bft) SW 230 0 min 0,000 mm 1,3 UV-I 179 W/m 13,5 C 10,6 C 25,7 km/h (4 Bft) 100,00 %
17.07.2016 10:50 14,8 C 91 % 1020,6 hPa 0,0 l/m 15,2 km/h (3 Bft) SW 235 0 min 0,000 mm 1,3 UV-I 163 W/m 13,3 C 10,9 C 20,9 km/h (4 Bft) 100,00 %
17.07.2016 10:52 14,8 C 92 % 1020,5 hPa 0,0 l/m 14,6 km/h (3 Bft) W-SW 254 0 min 0,000 mm 1,2 UV-I 143 W/m 13,5 C 11,1 C 22,5 km/h (4 Bft) 100,00 %
17.07.2016 10:54 14,8 C 91 % 1020,5 hPa 0,0 l/m 15,2 km/h (3 Bft) SW 214 0 min 0,000 mm 1,0 UV-I 128 W/m 13,3 C 10,9 C 24,1 km/h (4 Bft) 100,00 %
17.07.2016 10:56 14,8 C 91 % 1020,5 hPa 0,0 l/m 18,4 km/h (3 Bft) SW 231 0 min 0,000 mm 1,1 UV-I 143 W/m 13,3 C 9,9 C 25,7 km/h (4 Bft) 97,87 %
17.07.2016 10:58 14,8 C 91 % 1020,5 hPa 0,0 l/m 17,9 km/h (3 Bft) W 266 0 min 0,000 mm 1,4 UV-I 194 W/m 13,3 C 10,1 C 27,4 km/h (4 Bft) 97,87 %
17.07.2016 11:00 14,9 C 91 % 1020,4 hPa 0,0 l/m 16,6 km/h (3 Bft) SW 221 0 min 0,127 mm 1,8 UV-I 250 W/m 13,4 C 10,6 C 25,7 km/h (4 Bft) 97,44 %
17.07.2016 11:02 15,0 C 91 % 1020,6 hPa 0,0 l/m 14,7 km/h (3 Bft) SW 232 0 min 0,000 mm 2,3 UV-I 320 W/m 13,5 C 11,3 C 20,9 km/h (4 Bft) 95,74 %
17.07.2016 11:04 15,1 C 91 % 1020,5 hPa 0,0 l/m 16,6 km/h (3 Bft) SW 232 0 min 0,000 mm 2,4 UV-I 345 W/m 13,6 C 10,8 C 27,4 km/h (4 Bft) 97,87 %
17.07.2016 11:06 15,2 C 91 % 1020,5 hPa 0,0 l/m 19,2 km/h (3 Bft) W-SW 246 0 min 0,000 mm 2,1 UV-I 287 W/m 13,7 C 10,2 C 32,2 km/h (5 Bft) 97,87 %
17.07.2016 11:08 15,2 C 91 % 1020,5 hPa 0,0 l/m 18,4 km/h (3 Bft) SW 221 0 min 0,000 mm 2,2 UV-I 294 W/m 13,7 C 10,4 C 33,8 km/h (5 Bft) 97,87 %
17.07.2016 11:10 15,2 C 90 % 1020,5 hPa 0,0 l/m 15,6 km/h (3 Bft) SW 231 0 min 0,000 mm 2,3 UV-I 305 W/m 13,6 C 11,2 C 25,7 km/h (4 Bft) 95,74 %
17.07.2016 11:12 15,3 C 91 % 1020,5 hPa 0,0 l/m 14,9 km/h (3 Bft) W-SW 254 0 min 0,000 mm 1,8 UV-I 240 W/m 13,8 C 11,6 C 22,5 km/h (4 Bft) 97,87 %
17.07.2016 11:14 15,2 C 90 % 1020,5 hPa 0,0 l/m 18,1 km/h (3 Bft) W-SW 238 0 min 0,000 mm 1,5 UV-I 199 W/m 13,6 C 10,5 C 25,7 km/h (4 Bft) 95,74 %
17.07.2016 11:16 15,2 C 90 % 1020,5 hPa 0,0 l/m 18,4 km/h (3 Bft) W 264 0 min 0,000 mm 1,5 UV-I 194 W/m 13,6 C 10,4 C 27,4 km/h (4 Bft) 96,00 %
17.07.2016 11:18 15,1 C 90 % 1020,5 hPa 0,0 l/m 21,5 km/h (4 Bft) SW 233 0 min 0,000 mm 1,6 UV-I 204 W/m 13,5 C 9,5 C 30,6 km/h (5 Bft) 95,74 %
17.07.2016 11:20 15,1 C 91 % 1020,5 hPa 0,0 l/m 15,6 km/h (3 Bft) SW 219 0 min 0,000 mm 1,6 UV-I 192 W/m 13,6 C 11,1 C 24,1 km/h (4 Bft) 93,62 %
17.07.2016 11:22 15,1 C 91 % 1020,6 hPa 0,0 l/m 11,3 km/h (2 Bft) W-SW 246 0 min 0,000 mm 1,4 UV-I 177 W/m 13,6 C 12,7 C 16,1 km/h (3 Bft) 98,00 %
17.07.2016 11:24 15,0 C 91 % 1020,6 hPa 0,0 l/m 8,5 km/h (2 Bft) W 261 0 min 0,000 mm 1,1 UV-I 145 W/m 13,5 C 13,8 C 16,1 km/h (3 Bft) 97,87 %
17.07.2016 11:26 15,0 C 92 % 1020,6 hPa 0,0 l/m 14,0 km/h (3 Bft) W-SW 253 0 min 0,000 mm 1,0 UV-I 117 W/m 13,7 C 11,5 C 20,9 km/h (4 Bft) 95,74 %
17.07.2016 11:28 14,9 C 92 % 1020,7 hPa 0,0 l/m 10,8 km/h (2 Bft) W-SW 255 0 min 0,000 mm 0,8 UV-I 97 W/m 13,6 C 12,7 C 19,3 km/h (3 Bft) 100,00 %
17.07.2016 11:30 14,9 C 92 % 1020,7 hPa 0,0 l/m 13,9 km/h (3 Bft) W-SW 246 0 min 0,000 mm 0,7 UV-I 87 W/m 13,6 C 11,4 C 19,3 km/h (3 Bft) 100,00 %
17.07.2016 11:32 14,8 C 91 % 1020,6 hPa 0,0 l/m 17,3 km/h (3 Bft) W-SW 241 0 min 0,000 mm 0,6 UV-I 75 W/m 13,3 C 10,2 C 24,1 km/h (4 Bft) 97,87 %
17.07.2016 11:34 14,7 C 92 % 1020,6 hPa 0,0 l/m 15,6 km/h (3 Bft) SW 225 0 min 0,000 mm 0,7 UV-I 81 W/m 13,4 C 10,6 C 25,7 km/h (4 Bft) 100,00 %
17.07.2016 11:36 14,7 C 92 % 1020,7 hPa 0,0 l/m 12,3 km/h (3 Bft) W-SW 242 0 min 0,000 mm 0,8 UV-I 95 W/m 13,4 C 11,8 C 20,9 km/h (4 Bft) 97,87 %
17.07.2016 11:38 14,6 C 92 % 1020,6 hPa 0,0 l/m 12,5 km/h (3 Bft) W 280 0 min 0,000 mm 1,1 UV-I 128 W/m 13,3 C 11,6 C 20,9 km/h (4 Bft) 97,87 %
17.07.2016 11:40 14,6 C 93 % 1020,6 hPa 0,0 l/m 14,4 km/h (3 Bft) W-SW 238 0 min 0,000 mm 1,3 UV-I 153 W/m 13,5 C 10,9 C 22,5 km/h (4 Bft) 100,00 %
17.07.2016 11:42 14,6 C 92 % 1020,6 hPa 0,0 l/m 10,5 km/h (2 Bft) W-SW 242 0 min 0,000 mm 1,1 UV-I 132 W/m 13,3 C 12,4 C 19,3 km/h (3 Bft) 97,92 %
17.07.2016 11:44 14,6 C 92 % 1020,6 hPa 0,0 l/m 15,3 km/h (3 Bft) W 268 0 min 0,000 mm 0,9 UV-I 106 W/m 13,3 C 10,6 C 22,5 km/h (4 Bft) 100,00 %
17.07.2016 11:46 14,6 C 93 % 1020,7 hPa 0,0 l/m 13,3 km/h (3 Bft) S-SW 210 0 min 0,000 mm 0,7 UV-I 81 W/m 13,5 C 11,3 C 22,5 km/h (4 Bft) 100,00 %
17.07.2016 11:48 14,5 C 93 % 1020,8 hPa 0,0 l/m 12,1 km/h (2 Bft) SW 232 0 min 0,000 mm 0,5 UV-I 66 W/m 13,4 C 11,7 C 17,7 km/h (3 Bft) 100,00 %
17.07.2016 11:50 14,5 C 93 % 1020,7 hPa 0,0 l/m 11,5 km/h (2 Bft) W-SW 248 0 min 0,000 mm 0,5 UV-I 58 W/m 13,4 C 11,9 C 17,7 km/h (3 Bft) 97,37 %
17.07.2016 11:52 14,4 C 93 % 1020,7 hPa 0,0 l/m 13,3 km/h (3 Bft) SW 223 0 min 0,000 mm 0,6 UV-I 71 W/m 13,3 C 11,1 C 25,7 km/h (4 Bft) 97,87 %
17.07.2016 11:54 14,4 C 93 % 1020,7 hPa 0,0 l/m 8,4 km/h (2 Bft) SW 229 0 min 0,000 mm 0,8 UV-I 92 W/m 13,3 C 13,3 C 14,5 km/h (3 Bft) 97,87 %
17.07.2016 11:56 14,4 C 94 % 1020,7 hPa 0,0 l/m 11,4 km/h (2 Bft) W 275 0 min 0,000 mm 0,8 UV-I 93 W/m 13,4 C 11,8 C 17,7 km/h (3 Bft) 95,74 %
17.07.2016 11:58 14,4 C 94 % 1020,7 hPa 0,2 l/m 13,9 km/h (3 Bft) SW 235 0 min 0,000 mm 0,8 UV-I 93 W/m 13,4 C 10,9 C 22,5 km/h (4 Bft) 100,00 %
17.07.2016 12:00 14,3 C 94 % 1020,7 hPa 0,2 l/m 12,7 km/h (3 Bft) SW 236 0 min 0,101 mm 0,8 UV-I 97 W/m 13,3 C 11,2 C 19,3 km/h (3 Bft) 100,00 %
17.07.2016 12:02 14,3 C 94 % 1020,7 hPa 0,0 l/m 13,1 km/h (3 Bft) SW 225 0 min 0,000 mm 1,1 UV-I 132 W/m 13,3 C 11,0 C 20,9 km/h (4 Bft) 95,74 %
17.07.2016 12:04 14,3 C 94 % 1020,8 hPa 0,0 l/m 11,0 km/h (2 Bft) SW 234 0 min 0,000 mm 1,2 UV-I 134 W/m 13,3 C 11,9 C 17,7 km/h (3 Bft) 100,00 %
17.07.2016 12:06 14,3 C 94 % 1020,8 hPa 0,2 l/m 13,9 km/h (3 Bft) SW 236 0 min 0,000 mm 1,1 UV-I 123 W/m 13,3 C 10,7 C 19,3 km/h (3 Bft) 100,00 %
17.07.2016 12:08 14,3 C 95 % 1020,7 hPa 0,0 l/m 10,2 km/h (2 Bft) SW 229 0 min 0,000 mm 1,0 UV-I 110 W/m 13,5 C 12,3 C 19,3 km/h (3 Bft) 100,00 %
17.07.2016 12:10 14,3 C 95 % 1020,8 hPa 0,0 l/m 13,8 km/h (3 Bft) W 267 0 min 0,000 mm 1,1 UV-I 127 W/m 13,5 C 10,8 C 20,9 km/h (4 Bft) 100,00 %
17.07.2016 12:12 14,3 C 95 % 1020,7 hPa 0,0 l/m 14,6 km/h (3 Bft) S-SW 202 0 min 0,000 mm 1,4 UV-I 154 W/m 13,5 C 10,5 C 20,9 km/h (4 Bft) 100,00 %
17.07.2016 12:14 14,4 C 95 % 1020,7 hPa 0,2 l/m 17,4 km/h (3 Bft) W-SW 245 0 min 0,000 mm 1,7 UV-I 192 W/m 13,6 C 9,7 C 27,4 km/h (4 Bft) 95,74 %
17.07.2016 12:16 14,4 C 95 % 1020,6 hPa 0,0 l/m 16,0 km/h (3 Bft) SW 234 0 min 0,000 mm 1,7 UV-I 199 W/m 13,6 C 10,1 C 22,5 km/h (4 Bft) 97,87 %
17.07.2016 12:18 14,4 C 95 % 1020,6 hPa 0,0 l/m 18,3 km/h (3 Bft) SW 234 0 min 0,000 mm 1,8 UV-I 204 W/m 13,6 C 9,4 C 25,7 km/h (4 Bft) 97,92 %
17.07.2016 12:20 14,5 C 95 % 1020,6 hPa 0,0 l/m 14,4 km/h (3 Bft) W-SW 246 0 min 0,000 mm 1,9 UV-I 220 W/m 13,7 C 10,8 C 25,7 km/h (4 Bft) 100,00 %
17.07.2016 12:22 14,6 C 95 % 1020,6 hPa 0,0 l/m 16,4 km/h (3 Bft) SW 224 0 min 0,000 mm 2,0 UV-I 223 W/m 13,8 C 10,3 C 22,5 km/h (4 Bft) 100,00 %
17.07.2016 12:24 14,6 C 95 % 1020,6 hPa 0,0 l/m 15,5 km/h (3 Bft) W-SW 243 0 min 0,000 mm 1,9 UV-I 209 W/m 13,8 C 10,5 C 24,1 km/h (4 Bft) 100,00 %
17.07.2016 12:26 14,7 C 95 % 1020,6 hPa 0,0 l/m 15,1 km/h (3 Bft) S-SW 192 0 min 0,000 mm 1,8 UV-I 200 W/m 13,9 C 10,8 C 25,7 km/h (4 Bft) 100,00 %
17.07.2016 12:28 14,7 C 95 % 1020,6 hPa 0,0 l/m 19,1 km/h (3 Bft) W-SW 257 0 min 0,000 mm 1,8 UV-I 191 W/m 13,9 C 9,6 C 25,7 km/h (4 Bft) 100,00 %
17.07.2016 12:30 14,7 C 95 % 1020,6 hPa 0,0 l/m 15,4 km/h (3 Bft) SW 229 0 min 0,000 mm 1,8 UV-I 197 W/m 13,9 C 10,7 C 20,9 km/h (4 Bft) 100,00 %
17.07.2016 12:32 14,7 C 95 % 1020,6 hPa 0,0 l/m 17,2 km/h (3 Bft) W 265 0 min 0,000 mm 2,3 UV-I 254 W/m 13,9 C 10,1 C 25,7 km/h (4 Bft) 97,87 %
17.07.2016 12:34 14,7 C 94 % 1020,6 hPa 0,0 l/m 16,9 km/h (3 Bft) SW 229 0 min 0,000 mm 2,7 UV-I 296 W/m 13,7 C 10,2 C 24,1 km/h (4 Bft) 97,87 %
17.07.2016 12:36 14,8 C 95 % 1020,6 hPa 0,0 l/m 14,6 km/h (3 Bft) SW 234 0 min 0,000 mm 2,6 UV-I 287 W/m 14,0 C 11,1 C 22,5 km/h (4 Bft) 97,87 %
17.07.2016 12:38 14,9 C 95 % 1020,6 hPa 0,0 l/m 15,6 km/h (3 Bft) S-SW 208 0 min 0,000 mm 2,5 UV-I 273 W/m 14,1 C 10,9 C 25,7 km/h (4 Bft) 98,00 %
17.07.2016 12:40 14,9 C 95 % 1020,6 hPa 0,0 l/m 17,1 km/h (3 Bft) W-SW 242 0 min 0,000 mm 2,3 UV-I 245 W/m 14,1 C 10,4 C 24,1 km/h (4 Bft) 97,14 %
17.07.2016 12:42 14,9 C 94 % 1020,6 hPa 0,0 l/m 12,6 km/h (3 Bft) S-SW 197 0 min 0,000 mm 2,0 UV-I 212 W/m 13,9 C 11,9 C 20,9 km/h (4 Bft) 100,00 %
17.07.2016 12:44 14,9 C 94 % 1020,7 hPa 0,0 l/m 13,1 km/h (3 Bft) SW 222 0 min 0,000 mm 1,9 UV-I 208 W/m 13,9 C 11,7 C 25,7 km/h (4 Bft) 97,87 %
17.07.2016 12:46 14,9 C 94 % 1020,6 hPa 0,0 l/m 13,6 km/h (3 Bft) S-SW 206 0 min 0,000 mm 1,8 UV-I 196 W/m 13,9 C 11,6 C 19,3 km/h (3 Bft) 97,87 %
17.07.2016 12:48 15,0 C 95 % 1020,6 hPa 0,0 l/m 11,5 km/h (2 Bft) W 268 0 min 0,000 mm 1,5 UV-I 170 W/m 14,2 C 12,5 C 16,1 km/h (3 Bft) 97,87 %
17.07.2016 12:50 15,1 C 95 % 1020,6 hPa 0,0 l/m 11,5 km/h (2 Bft) SW 225 0 min 0,000 mm 1,5 UV-I 166 W/m 14,3 C 12,6 C 17,7 km/h (3 Bft) 100,00 %
17.07.2016 12:52 15,1 C 94 % 1020,6 hPa 0,0 l/m 12,8 km/h (3 Bft) S-SW 210 0 min 0,000 mm 1,7 UV-I 186 W/m 14,1 C 12,1 C 20,9 km/h (4 Bft) 97,92 %
17.07.2016 12:54 15,1 C 94 % 1020,6 hPa 0,0 l/m 13,0 km/h (3 Bft) S-SW 209 0 min 0,000 mm 2,0 UV-I 227 W/m 14,1 C 12,0 C 20,9 km/h (4 Bft) 97,87 %
17.07.2016 12:56 15,1 C 94 % 1020,6 hPa 0,0 l/m 16,2 km/h (3 Bft) SW 236 0 min 0,000 mm 2,2 UV-I 246 W/m 14,1 C 10,9 C 27,4 km/h (4 Bft) 97,92 %
17.07.2016 12:58 15,2 C 94 % 1020,6 hPa 0,0 l/m 15,5 km/h (3 Bft) S-SW 205 0 min 0,000 mm 1,8 UV-I 217 W/m 14,2 C 11,3 C 24,1 km/h (4 Bft) 96,00 %
17.07.2016 13:00 15,2 C 94 % 1020,6 hPa 0,0 l/m 18,2 km/h (3 Bft) SW 229 0 min 0,102 mm 1,8 UV-I 211 W/m 14,2 C 10,5 C 25,7 km/h (4 Bft) 97,22 %
17.07.2016 13:02 15,2 C 94 % 1020,5 hPa 0,0 l/m 14,7 km/h (3 Bft) S-SW 207 0 min 0,000 mm 2,0 UV-I 234 W/m 14,2 C 11,5 C 22,5 km/h (4 Bft) 98,04 %
17.07.2016 13:04 15,3 C 93 % 1020,5 hPa 0,0 l/m 13,1 km/h (3 Bft) W-SW 241 0 min 0,000 mm 2,1 UV-I 243 W/m 14,2 C 12,2 C 19,3 km/h (3 Bft) 95,74 %
17.07.2016 13:06 15,3 C 93 % 1020,5 hPa 0,0 l/m 10,2 km/h (2 Bft) W 262 0 min 0,000 mm 2,1 UV-I 244 W/m 14,2 C 13,4 C 19,3 km/h (3 Bft) 95,74 %
17.07.2016 13:08 15,4 C 94 % 1020,5 hPa 0,0 l/m 11,7 km/h (2 Bft) S-SW 209 0 min 0,000 mm 2,4 UV-I 273 W/m 14,4 C 12,8 C 20,9 km/h (4 Bft) 97,87 %
17.07.2016 13:10 15,5 C 93 % 1020,4 hPa 0,0 l/m 13,1 km/h (3 Bft) SW 215 0 min 0,000 mm 2,7 UV-I 311 W/m 14,4 C 12,4 C 24,1 km/h (4 Bft) 97,87 %
17.07.2016 13:12 15,6 C 93 % 1020,4 hPa 0,0 l/m 12,4 km/h (3 Bft) W-SW 242 0 min 0,000 mm 3,0 UV-I 345 W/m 14,5 C 12,8 C 24,1 km/h (4 Bft) 98,00 %
17.07.2016 13:14 15,7 C 93 % 1020,4 hPa 0,0 l/m 20,0 km/h (4 Bft) W-SW 240 0 min 0,000 mm 3,0 UV-I 353 W/m 14,6 C 10,7 C 27,4 km/h (4 Bft) 96,00 %
17.07.2016 13:16 15,8 C 92 % 1020,4 hPa 0,0 l/m 15,5 km/h (3 Bft) SW 219 0 min 0,000 mm 3,0 UV-I 341 W/m 14,5 C 12,0 C 24,1 km/h (4 Bft) 97,37 %
17.07.2016 13:18 15,8 C 91 % 1020,4 hPa 0,0 l/m 12,8 km/h (3 Bft) S 187 0 min 0,000 mm 2,8 UV-I 320 W/m 14,3 C 12,9 C 19,3 km/h (3 Bft) 97,87 %
17.07.2016 13:20 15,9 C 91 % 1020,4 hPa 0,0 l/m 16,1 km/h (3 Bft) W-SW 238 0 min 0,000 mm 2,4 UV-I 282 W/m 14,4 C 11,9 C 27,4 km/h (4 Bft) 97,87 %
17.07.2016 13:22 15,9 C 91 % 1020,4 hPa 0,0 l/m 16,7 km/h (3 Bft) S-SW 210 0 min 0,000 mm 2,3 UV-I 247 W/m 14,4 C 11,8 C 24,1 km/h (4 Bft) 94,00 %
17.07.2016 13:24 15,9 C 91 % 1020,4 hPa 0,0 l/m 16,6 km/h (3 Bft) W-SW 239 0 min 0,000 mm 2,4 UV-I 261 W/m 14,4 C 11,8 C 24,1 km/h (4 Bft) 96,00 %
17.07.2016 13:26 16,1 C 91 % 1020,4 hPa 0,0 l/m 15,0 km/h (3 Bft) SW 223 0 min 0,000 mm 2,6 UV-I 280 W/m 14,6 C 12,5 C 22,5 km/h (4 Bft) 100,00 %
17.07.2016 13:28 16,2 C 91 % 1020,4 hPa 0,0 l/m 15,5 km/h (3 Bft) S-SW 205 0 min 0,000 mm 2,8 UV-I 317 W/m 14,7 C 12,5 C 22,5 km/h (4 Bft) 100,00 %
17.07.2016 13:30 16,3 C 90 % 1020,4 hPa 0,0 l/m 17,8 km/h (3 Bft) W-SW 238 0 min 0,000 mm 2,8 UV-I 330 W/m 14,7 C 12,0 C 22,5 km/h (4 Bft) 100,00 %
17.07.2016 13:32 16,3 C 90 % 1020,4 hPa 0,0 l/m 16,1 km/h (3 Bft) SW 227 0 min 0,000 mm 2,6 UV-I 304 W/m 14,7 C 12,4 C 27,4 km/h (4 Bft) 95,74 %
17.07.2016 13:34 16,4 C 90 % 1020,4 hPa 0,0 l/m 17,6 km/h (3 Bft) SW 232 0 min 0,000 mm 2,6 UV-I 302 W/m 14,8 C 12,2 C 27,4 km/h (4 Bft) 95,74 %
17.07.2016 13:36 16,5 C 90 % 1020,4 hPa 0,0 l/m 14,0 km/h (3 Bft) W 263 0 min 0,000 mm 2,6 UV-I 313 W/m 14,9 C 13,3 C 27,4 km/h (4 Bft) 100,00 %
17.07.2016 13:38 16,6 C 91 % 1020,4 hPa 0,0 l/m 14,6 km/h (3 Bft) W-SW 251 0 min 0,000 mm 2,1 UV-I 249 W/m 15,1 C 13,3 C 24,1 km/h (4 Bft) 100,00 %
17.07.2016 13:40 16,6 C 89 % 1020,5 hPa 0,0 l/m 19,5 km/h (3 Bft) S-SW 200 0 min 0,000 mm 1,8 UV-I 205 W/m 14,8 C 11,9 C 25,7 km/h (4 Bft) 100,00 %
17.07.2016 13:42 16,6 C 88 % 1020,4 hPa 0,0 l/m 15,6 km/h (3 Bft) S-SW 194 0 min 0,000 mm 1,9 UV-I 228 W/m 14,6 C 13,0 C 20,9 km/h (4 Bft) 100,00 %
17.07.2016 13:44 16,5 C 88 % 1020,5 hPa 0,0 l/m 15,5 km/h (3 Bft) SW 234 0 min 0,000 mm 2,0 UV-I 247 W/m 14,5 C 12,9 C 27,4 km/h (4 Bft) 100,00 %
17.07.2016 13:46 16,6 C 89 % 1020,4 hPa 0,0 l/m 15,3 km/h (3 Bft) SW 227 0 min 0,000 mm 2,0 UV-I 243 W/m 14,8 C 13,0 C 24,1 km/h (4 Bft) 100,00 %
17.07.2016 13:48 16,6 C 90 % 1020,5 hPa 0,0 l/m 11,8 km/h (2 Bft) W-SW 240 0 min 0,000 mm 2,1 UV-I 260 W/m 15,0 C 14,2 C 19,3 km/h (3 Bft) 100,00 %
17.07.2016 13:50 16,7 C 89 % 1020,5 hPa 0,0 l/m 12,6 km/h (3 Bft) SW 236 0 min 0,000 mm 2,0 UV-I 253 W/m 14,9 C 14,0 C 19,3 km/h (3 Bft) 100,00 %
17.07.2016 13:52 16,7 C 88 % 1020,5 hPa 0,0 l/m 12,6 km/h (3 Bft) S-SW 211 0 min 0,000 mm 1,9 UV-I 234 W/m 14,7 C 14,0 C 22,5 km/h (4 Bft) 97,87 %
17.07.2016 13:54 16,7 C 88 % 1020,5 hPa 0,0 l/m 14,7 km/h (3 Bft) W 270 0 min 0,000 mm 1,6 UV-I 203 W/m 14,7 C 13,3 C 24,1 km/h (4 Bft) 97,87 %
17.07.2016 13:56 16,7 C 88 % 1020,5 hPa 0,0 l/m 16,9 km/h (3 Bft) SW 233 0 min 0,000 mm 1,4 UV-I 178 W/m 14,7 C 12,7 C 30,6 km/h (5 Bft) 100,00 %
17.07.2016 13:58 16,7 C 87 % 1020,4 hPa 0,0 l/m 17,5 km/h (3 Bft) W 260 0 min 0,000 mm 1,4 UV-I 165 W/m 14,5 C 12,6 C 27,4 km/h (4 Bft) 100,00 %
17.07.2016 14:00 16,7 C 88 % 1020,4 hPa 0,0 l/m 14,1 km/h (3 Bft) SW 216 0 min 0,000 mm 1,5 UV-I 175 W/m 14,7 C 13,5 C 19,3 km/h (3 Bft) 100,00 %
17.07.2016 14:02 16,7 C 88 % 1020,4 hPa 0,0 l/m 15,4 km/h (3 Bft) SW 227 0 min 0,152 mm 1,9 UV-I 212 W/m 14,7 C 13,1 C 24,1 km/h (4 Bft) 100,00 %
17.07.2016 14:04 16,7 C 88 % 1020,5 hPa 0,0 l/m 15,4 km/h (3 Bft) SW 216 0 min 0,000 mm 1,8 UV-I 208 W/m 14,7 C 13,1 C 29,0 km/h (5 Bft) 100,00 %
17.07.2016 14:06 16,8 C 88 % 1020,5 hPa 0,0 l/m 16,2 km/h (3 Bft) SW 219 0 min 0,000 mm 1,8 UV-I 213 W/m 14,8 C 13,0 C 22,5 km/h (4 Bft) 100,00 %
17.07.2016 14:08 16,8 C 87 % 1020,5 hPa 0,0 l/m 17,7 km/h (3 Bft) SW 234 0 min 0,000 mm 1,7 UV-I 199 W/m 14,6 C 12,6 C 27,4 km/h (4 Bft) 95,74 %
17.07.2016 14:10 16,8 C 87 % 1020,5 hPa 0,0 l/m 15,8 km/h (3 Bft) S-SW 192 0 min 0,000 mm 1,7 UV-I 206 W/m 14,6 C 13,1 C 22,5 km/h (4 Bft) 98,04 %
17.07.2016 14:12 16,8 C 87 % 1020,5 hPa 0,0 l/m 16,2 km/h (3 Bft) W-SW 245 0 min 0,000 mm 1,6 UV-I 184 W/m 14,6 C 13,0 C 27,4 km/h (4 Bft) 100,00 %
17.07.2016 14:14 16,8 C 87 % 1020,5 hPa 0,0 l/m 14,5 km/h (3 Bft) W 267 0 min 0,000 mm 1,4 UV-I 166 W/m 14,6 C 13,5 C 24,1 km/h (4 Bft) 97,87 %
17.07.2016 14:16 16,8 C 87 % 1020,5 hPa 0,0 l/m 16,3 km/h (3 Bft) W 261 0 min 0,000 mm 1,3 UV-I 157 W/m 14,6 C 13,0 C 25,7 km/h (4 Bft) 100,00 %
17.07.2016 14:18 16,8 C 86 % 1020,5 hPa 0,0 l/m 15,3 km/h (3 Bft) SW 225 0 min 0,000 mm 1,2 UV-I 148 W/m 14,4 C 13,3 C 22,5 km/h (4 Bft) 97,87 %
17.07.2016 14:20 16,8 C 87 % 1020,5 hPa 0,0 l/m 15,2 km/h (3 Bft) SW 233 0 min 0,000 mm 1,0 UV-I 126 W/m 14,6 C 13,3 C 24,1 km/h (4 Bft) 97,87 %
17.07.2016 14:22 16,7 C 86 % 1020,5 hPa 0,0 l/m 16,9 km/h (3 Bft) SW 227 0 min 0,000 mm 1,0 UV-I 119 W/m 14,3 C 12,7 C 25,7 km/h (4 Bft) 95,83 %
17.07.2016 14:24 16,7 C 87 % 1020,5 hPa 0,0 l/m 18,2 km/h (3 Bft) SW 221 0 min 0,000 mm 0,9 UV-I 118 W/m 14,5 C 12,4 C 27,4 km/h (4 Bft) 100,00 %
17.07.2016 14:26 16,8 C 87 % 1020,5 hPa 0,0 l/m 15,9 km/h (3 Bft) SW 220 0 min 0,000 mm 1,0 UV-I 122 W/m 14,6 C 13,1 C 25,7 km/h (4 Bft) 95,74 %
17.07.2016 14:28 16,8 C 86 % 1020,4 hPa 0,0 l/m 13,7 km/h (3 Bft) SW 234 0 min 0,000 mm 1,3 UV-I 156 W/m 14,4 C 13,8 C 20,9 km/h (4 Bft) 98,00 %
17.07.2016 14:30 16,8 C 86 % 1020,4 hPa 0,0 l/m 11,5 km/h (2 Bft) W-SW 240 0 min 0,000 mm 1,5 UV-I 166 W/m 14,4 C 14,5 C 24,1 km/h (4 Bft) 100,00 %
17.07.2016 14:32 16,8 C 86 % 1020,4 hPa 0,0 l/m 14,9 km/h (3 Bft) SW 225 0 min 0,000 mm 1,6 UV-I 175 W/m 14,4 C 13,4 C 22,5 km/h (4 Bft) 97,87 %
17.07.2016 14:34 16,8 C 87 % 1020,3 hPa 0,0 l/m 11,7 km/h (2 Bft) S-SW 210 0 min 0,000 mm 2,4 UV-I 261 W/m 14,6 C 14,5 C 19,3 km/h (3 Bft) 97,87 %
17.07.2016 14:36 17,0 C 87 % 1020,3 hPa 0,0 l/m 10,0 km/h (2 Bft) SW 232 0 min 0,000 mm 2,9 UV-I 335 W/m 14,8 C 15,3 C 17,7 km/h (3 Bft) 97,14 %
17.07.2016 14:38 17,2 C 87 % 1020,3 hPa 0,0 l/m 13,6 km/h (3 Bft) SW 214 0 min 0,000 mm 3,2 UV-I 408 W/m 15,0 C 14,3 C 24,1 km/h (4 Bft) 100,00 %
17.07.2016 14:40 17,5 C 85 % 1020,3 hPa 0,0 l/m 14,3 km/h (3 Bft) S 188 0 min 0,000 mm 3,4 UV-I 452 W/m 14,9 C 14,4 C 20,9 km/h (4 Bft) 97,87 %
17.07.2016 14:42 17,6 C 84 % 1020,3 hPa 0,0 l/m 15,8 km/h (3 Bft) SW 234 0 min 0,000 mm 3,3 UV-I 434 W/m 14,9 C 14,1 C 25,7 km/h (4 Bft) 97,87 %
17.07.2016 14:44 17,8 C 84 % 1020,3 hPa 0,0 l/m 14,3 km/h (3 Bft) SW 231 0 min 0,000 mm 2,8 UV-I 359 W/m 15,1 C 14,8 C 24,1 km/h (4 Bft) 97,87 %
17.07.2016 14:46 17,8 C 83 % 1020,3 hPa 0,0 l/m 13,5 km/h (3 Bft) S 185 0 min 0,000 mm 2,6 UV-I 340 W/m 14,9 C 15,0 C 20,9 km/h (4 Bft) 100,00 %
17.07.2016 14:48 17,8 C 83 % 1020,2 hPa 0,0 l/m 13,9 km/h (3 Bft) SW 230 0 min 0,000 mm 2,2 UV-I 288 W/m 14,9 C 14,9 C 19,3 km/h (3 Bft) 96,23 %
17.07.2016 14:50 17,8 C 83 % 1020,2 hPa 0,0 l/m 13,2 km/h (3 Bft) SW 220 0 min 0,000 mm 2,1 UV-I 267 W/m 14,9 C 15,1 C 20,9 km/h (4 Bft) 95,74 %
17.07.2016 14:52 17,8 C 83 % 1020,3 hPa 0,0 l/m 9,2 km/h (2 Bft) SW 226 0 min 0,000 mm 1,8 UV-I 247 W/m 14,9 C 16,5 C 16,1 km/h (3 Bft) 97,87 %
17.07.2016 14:54 17,8 C 83 % 1020,2 hPa 0,0 l/m 15,0 km/h (3 Bft) S 172 0 min 0,000 mm 1,9 UV-I 266 W/m 14,9 C 14,6 C 27,4 km/h (4 Bft) 97,87 %
17.07.2016 14:56 17,8 C 83 % 1020,2 hPa 0,0 l/m 12,2 km/h (2 Bft) S-SO 154 0 min 0,000 mm 1,9 UV-I 269 W/m 14,9 C 15,4 C 17,7 km/h (3 Bft) 97,87 %
17.07.2016 14:58 17,8 C 84 % 1020,3 hPa 0,0 l/m 13,1 km/h (3 Bft) SW 214 0 min 0,000 mm 1,7 UV-I 231 W/m 15,1 C 15,1 C 22,5 km/h (4 Bft) 98,04 %
17.07.2016 15:00 17,8 C 84 % 1020,3 hPa 0,0 l/m 13,3 km/h (3 Bft) SW 221 0 min 0,153 mm 1,5 UV-I 203 W/m 15,1 C 15,1 C 22,5 km/h (4 Bft) 95,65 %
17.07.2016 15:02 17,8 C 83 % 1020,1 hPa 0,0 l/m 14,3 km/h (3 Bft) SW 232 0 min 0,000 mm 1,6 UV-I 210 W/m 14,9 C 14,8 C 25,7 km/h (4 Bft) 94,44 %
17.07.2016 15:04 17,8 C 83 % 1020,1 hPa 0,0 l/m 9,6 km/h (2 Bft) S-SW 198 0 min 0,000 mm 1,7 UV-I 219 W/m 14,9 C 16,4 C 16,1 km/h (3 Bft) 96,00 %
17.07.2016 15:06 17,9 C 84 % 1020,1 hPa 0,0 l/m 8,5 km/h (2 Bft) S-SW 202 0 min 0,000 mm 1,8 UV-I 246 W/m 15,2 C 16,9 C 17,7 km/h (3 Bft) 93,62 %
17.07.2016 15:08 17,9 C 83 % 1020,1 hPa 0,0 l/m 13,6 km/h (3 Bft) SW 217 0 min 0,000 mm 1,4 UV-I 198 W/m 15,0 C 15,1 C 27,4 km/h (4 Bft) 97,87 %
17.07.2016 15:10 17,9 C 83 % 1020,1 hPa 0,0 l/m 15,4 km/h (3 Bft) S-SW 192 0 min 0,000 mm 1,1 UV-I 147 W/m 15,0 C 14,6 C 22,5 km/h (4 Bft) 98,00 %
17.07.2016 15:12 17,9 C 82 % 1020,1 hPa 0,0 l/m 12,9 km/h (3 Bft) SW 224 0 min 0,000 mm 1,0 UV-I 140 W/m 14,8 C 15,3 C 20,9 km/h (4 Bft) 97,87 %
17.07.2016 15:14 17,9 C 83 % 1020,1 hPa 0,0 l/m 13,7 km/h (3 Bft) S 182 0 min 0,000 mm 1,1 UV-I 151 W/m 15,0 C 15,1 C 24,1 km/h (4 Bft) 95,74 %
17.07.2016 15:16 17,9 C 83 % 1020,0 hPa 0,0 l/m 10,5 km/h (2 Bft) SW 219 0 min 0,000 mm 1,2 UV-I 172 W/m 15,0 C 16,1 C 19,3 km/h (3 Bft) 96,00 %
17.07.2016 15:18 17,9 C 83 % 1020,1 hPa 0,0 l/m 14,6 km/h (3 Bft) S-SW 192 0 min 0,000 mm 1,0 UV-I 138 W/m 15,0 C 14,8 C 20,9 km/h (4 Bft) 97,87 %
17.07.2016 15:20 17,9 C 83 % 1019,9 hPa 0,0 l/m 12,9 km/h (3 Bft) S-SW 194 0 min 0,000 mm 0,8 UV-I 100 W/m 15,0 C 15,3 C 24,1 km/h (4 Bft) 95,74 %
17.07.2016 15:22 17,9 C 83 % 1020,0 hPa 0,0 l/m 14,0 km/h (3 Bft) W-SW 246 0 min 0,000 mm 0,5 UV-I 68 W/m 15,0 C 15,0 C 24,1 km/h (4 Bft) 97,87 %
17.07.2016 15:24 17,9 C 83 % 1020,0 hPa 0,0 l/m 11,2 km/h (2 Bft) S-SW 195 0 min 0,000 mm 0,3 UV-I 64 W/m 15,0 C 15,9 C 17,7 km/h (3 Bft) 97,37 %
17.07.2016 15:26 17,8 C 83 % 1020,0 hPa 0,0 l/m 12,6 km/h (3 Bft) SW 232 0 min 0,000 mm 0,7 UV-I 87 W/m 14,9 C 15,3 C 22,5 km/h (4 Bft) 100,00 %
17.07.2016 15:28 17,8 C 83 % 1019,9 hPa 0,0 l/m 12,0 km/h (2 Bft) S-SW 194 0 min 0,000 mm 0,7 UV-I 91 W/m 14,9 C 15,5 C 16,1 km/h (3 Bft) 95,74 %
17.07.2016 15:30 17,8 C 83 % 1019,9 hPa 0,0 l/m 8,9 km/h (2 Bft) W-SW 240 0 min 0,000 mm 0,7 UV-I 99 W/m 14,9 C 16,7 C 16,1 km/h (3 Bft) 100,00 %
17.07.2016 15:32 17,8 C 83 % 1019,9 hPa 0,0 l/m 12,4 km/h (3 Bft) S-SW 209 0 min 0,000 mm 0,8 UV-I 112 W/m 14,9 C 15,4 C 19,3 km/h (3 Bft) 100,00 %
17.07.2016 15:34 17,9 C 83 % 1019,8 hPa 0,0 l/m 9,7 km/h (2 Bft) S-SW 192 0 min 0,000 mm 0,9 UV-I 133 W/m 15,0 C 16,4 C 14,5 km/h (3 Bft) 97,87 %
17.07.2016 15:36 17,9 C 83 % 1019,8 hPa 0,0 l/m 11,3 km/h (2 Bft) W-SW 252 0 min 0,000 mm 1,0 UV-I 129 W/m 15,0 C 15,8 C 17,7 km/h (3 Bft) 95,83 %
17.07.2016 15:38 18,0 C 82 % 1019,8 hPa 0,0 l/m 13,6 km/h (3 Bft) SW 223 0 min 0,000 mm 0,9 UV-I 121 W/m 14,9 C 15,2 C 24,1 km/h (4 Bft) 100,00 %
17.07.2016 15:40 18,0 C 82 % 1019,7 hPa 0,0 l/m 14,1 km/h (3 Bft) SW 236 0 min 0,000 mm 0,7 UV-I 96 W/m 14,9 C 15,1 C 22,5 km/h (4 Bft) 100,00 %
17.07.2016 15:42 18,1 C 82 % 1019,7 hPa 0,0 l/m 12,7 km/h (3 Bft) SW 224 0 min 0,000 mm 1,0 UV-I 140 W/m 15,0 C 15,6 C 20,9 km/h (4 Bft) 100,00 %
17.07.2016 15:44 18,1 C 82 % 1019,7 hPa 0,0 l/m 12,3 km/h (3 Bft) W-SW 252 0 min 0,000 mm 1,4 UV-I 181 W/m 15,0 C 15,7 C 20,9 km/h (4 Bft) 93,62 %
17.07.2016 15:46 18,2 C 82 % 1019,7 hPa 0,0 l/m 12,7 km/h (3 Bft) S-SW 209 0 min 0,000 mm 1,7 UV-I 202 W/m 15,1 C 15,7 C 20,9 km/h (4 Bft) 100,00 %
17.07.2016 15:48 18,3 C 82 % 1019,7 hPa 0,0 l/m 13,2 km/h (3 Bft) S-SW 211 0 min 0,000 mm 2,1 UV-I 291 W/m 15,2 C 15,7 C 20,9 km/h (4 Bft) 100,00 %
17.07.2016 15:50 18,3 C 82 % 1019,7 hPa 0,0 l/m 14,3 km/h (3 Bft) SW 215 0 min 0,000 mm 1,7 UV-I 261 W/m 15,2 C 15,4 C 25,7 km/h (4 Bft) 97,87 %
17.07.2016 15:52 18,4 C 81 % 1019,7 hPa 0,0 l/m 13,2 km/h (3 Bft) SW 229 0 min 0,000 mm 1,8 UV-I 266 W/m 15,1 C 15,8 C 19,3 km/h (3 Bft) 100,00 %
17.07.2016 15:54 18,5 C 81 % 1019,7 hPa 0,0 l/m 13,6 km/h (3 Bft) SW 223 0 min 0,000 mm 1,6 UV-I 225 W/m 15,2 C 15,8 C 20,9 km/h (4 Bft) 100,00 %
17.07.2016 15:56 18,6 C 81 % 1019,7 hPa 0,0 l/m 12,0 km/h (2 Bft) W-SW 253 0 min 0,000 mm 1,8 UV-I 253 W/m 15,3 C 16,4 C 22,5 km/h (4 Bft) 97,87 %
17.07.2016 15:58 18,6 C 81 % 1019,7 hPa 0,0 l/m 11,2 km/h (2 Bft) SW 216 0 min 0,000 mm 1,9 UV-I 284 W/m 15,3 C 16,7 C 17,7 km/h (3 Bft) 100,00 %
17.07.2016 16:00 18,7 C 82 % 1019,7 hPa 0,0 l/m 12,7 km/h (3 Bft) S-SW 196 0 min 0,127 mm 2,0 UV-I 300 W/m 15,6 C 16,3 C 24,1 km/h (4 Bft) 100,00 %
17.07.2016 16:02 18,8 C 81 % 1019,7 hPa 0,0 l/m 13,4 km/h (3 Bft) SW 233 0 min 0,000 mm 1,6 UV-I 226 W/m 15,5 C 16,2 C 17,7 km/h (3 Bft) 100,00 %
17.07.2016 16:04 18,8 C 81 % 1019,7 hPa 0,0 l/m 13,1 km/h (3 Bft) SW 221 0 min 0,000 mm 1,6 UV-I 230 W/m 15,5 C 16,3 C 17,7 km/h (3 Bft) 100,00 %
17.07.2016 16:06 18,8 C 81 % 1019,6 hPa 0,0 l/m 15,4 km/h (3 Bft) S-SW 202 0 min 0,000 mm 2,1 UV-I 317 W/m 15,5 C 15,7 C 24,1 km/h (4 Bft) 97,87 %
17.07.2016 16:08 18,9 C 82 % 1019,5 hPa 0,0 l/m 12,9 km/h (3 Bft) S-SW 213 2 min 0,000 mm 2,8 UV-I 405 W/m 15,8 C 16,5 C 22,5 km/h (4 Bft) 100,00 %
17.07.2016 16:10 19,1 C 81 % 1019,5 hPa 0,0 l/m 15,3 km/h (3 Bft) S 175 0 min 0,000 mm 2,4 UV-I 340 W/m 15,8 C 16,1 C 22,5 km/h (4 Bft) 100,00 %
17.07.2016 16:12 19,1 C 81 % 1019,5 hPa 0,0 l/m 15,9 km/h (3 Bft) SW 216 0 min 0,000 mm 2,4 UV-I 374 W/m 15,8 C 15,9 C 24,1 km/h (4 Bft) 100,00 %
17.07.2016 16:14 19,2 C 81 % 1019,5 hPa 0,0 l/m 17,2 km/h (3 Bft) S-SW 207 0 min 0,000 mm 2,2 UV-I 343 W/m 15,9 C 15,8 C 24,1 km/h (4 Bft) 100,00 %
17.07.2016 16:16 19,2 C 80 % 1019,4 hPa 0,0 l/m 14,0 km/h (3 Bft) S 170 0 min 0,000 mm 1,7 UV-I 251 W/m 15,7 C 16,5 C 24,1 km/h (4 Bft) 97,87 %
17.07.2016 16:18 19,2 C 80 % 1019,4 hPa 0,0 l/m 15,7 km/h (3 Bft) S-SW 200 0 min 0,000 mm 1,5 UV-I 215 W/m 15,7 C 16,1 C 22,5 km/h (4 Bft) 100,00 %
17.07.2016 16:20 19,2 C 80 % 1019,4 hPa 0,0 l/m 13,5 km/h (3 Bft) O-SO 123 0 min 0,000 mm 1,5 UV-I 243 W/m 15,7 C 16,7 C 20,9 km/h (4 Bft) 98,00 %
17.07.2016 16:22 19,2 C 80 % 1019,4 hPa 0,0 l/m 11,4 km/h (2 Bft) S 190 0 min 0,000 mm 1,8 UV-I 304 W/m 15,7 C 17,3 C 19,3 km/h (3 Bft) 98,00 %
17.07.2016 16:24 19,3 C 80 % 1019,4 hPa 0,0 l/m 14,9 km/h (3 Bft) S 186 2 min 0,000 mm 2,2 UV-I 386 W/m 15,8 C 16,4 C 22,5 km/h (4 Bft) 100,00 %
17.07.2016 16:26 19,4 C 80 % 1019,3 hPa 0,0 l/m 16,3 km/h (3 Bft) SO 138 2 min 0,000 mm 2,4 UV-I 416 W/m 15,9 C 16,2 C 25,7 km/h (4 Bft) 100,00 %
17.07.2016 16:28 19,7 C 80 % 1019,3 hPa 0,0 l/m 19,0 km/h (3 Bft) S 177 0 min 0,000 mm 2,1 UV-I 351 W/m 16,1 C 16,0 C 27,4 km/h (4 Bft) 97,87 %
17.07.2016 16:30 19,8 C 78 % 1019,3 hPa 0,0 l/m 19,9 km/h (4 Bft) SW 232 0 min 0,000 mm 2,0 UV-I 321 W/m 15,8 C 16,0 C 29,0 km/h (5 Bft) 97,87 %
17.07.2016 16:32 19,8 C 78 % 1019,3 hPa 0,0 l/m 16,3 km/h (3 Bft) W-SW 242 0 min 0,000 mm 1,9 UV-I 302 W/m 15,8 C 16,7 C 24,1 km/h (4 Bft) 100,00 %
17.07.2016 16:34 19,8 C 77 % 1019,3 hPa 0,0 l/m 17,5 km/h (3 Bft) SW 219 0 min 0,000 mm 1,8 UV-I 287 W/m 15,6 C 16,4 C 32,2 km/h (5 Bft) 97,87 %
17.07.2016 16:36 19,8 C 78 % 1019,3 hPa 0,0 l/m 18,6 km/h (3 Bft) S-SW 202 0 min 0,000 mm 1,6 UV-I 266 W/m 15,8 C 16,2 C 30,6 km/h (5 Bft) 100,00 %
17.07.2016 16:38 19,8 C 77 % 1019,3 hPa 0,0 l/m 19,1 km/h (3 Bft) SW 234 0 min 0,000 mm 1,4 UV-I 239 W/m 15,6 C 16,1 C 25,7 km/h (4 Bft) 100,00 %
17.07.2016 16:40 19,8 C 78 % 1019,3 hPa 0,0 l/m 15,3 km/h (3 Bft) S-SW 210 0 min 0,000 mm 1,5 UV-I 260 W/m 15,8 C 16,9 C 22,5 km/h (4 Bft) 97,50 %
17.07.2016 16:42 19,8 C 77 % 1019,2 hPa 0,0 l/m 17,9 km/h (3 Bft) SW 215 0 min 0,000 mm 1,5 UV-I 253 W/m 15,6 C 16,4 C 27,4 km/h (4 Bft) 97,87 %
17.07.2016 16:44 19,7 C 77 % 1019,2 hPa 0,0 l/m 17,2 km/h (3 Bft) W-SW 248 0 min 0,000 mm 1,3 UV-I 212 W/m 15,5 C 16,4 C 24,1 km/h (4 Bft) 100,00 %
17.07.2016 16:46 19,7 C 78 % 1019,2 hPa 0,0 l/m 13,5 km/h (3 Bft) SW 234 0 min 0,000 mm 1,1 UV-I 183 W/m 15,8 C 17,3 C 22,5 km/h (4 Bft) 95,74 %
17.07.2016 16:48 19,7 C 78 % 1019,2 hPa 0,0 l/m 13,6 km/h (3 Bft) S-SW 211 0 min 0,000 mm 1,1 UV-I 185 W/m 15,8 C 17,2 C 24,1 km/h (4 Bft) 93,62 %
17.07.2016 16:50 19,7 C 78 % 1019,2 hPa 0,0 l/m 15,6 km/h (3 Bft) SW 216 0 min 0,000 mm 1,3 UV-I 240 W/m 15,8 C 16,7 C 24,1 km/h (4 Bft) 95,74 %
17.07.2016 16:52 19,7 C 78 % 1019,1 hPa 0,0 l/m 13,3 km/h (3 Bft) W-SW 247 0 min 0,000 mm 1,4 UV-I 248 W/m 15,8 C 17,3 C 22,5 km/h (4 Bft) 97,87 %
17.07.2016 16:54 19,8 C 78 % 1019,0 hPa 0,0 l/m 12,6 km/h (3 Bft) SW 232 0 min 0,000 mm 1,3 UV-I 222 W/m 15,8 C 17,6 C 22,5 km/h (4 Bft) 95,74 %
17.07.2016 16:56 19,8 C 79 % 1019,1 hPa 0,0 l/m 11,9 km/h (2 Bft) W 265 0 min 0,000 mm 1,4 UV-I 235 W/m 16,0 C 17,8 C 22,5 km/h (4 Bft) 97,92 %
17.07.2016 16:58 19,9 C 78 % 1019,1 hPa 0,0 l/m 12,2 km/h (2 Bft) W-SW 242 0 min 0,000 mm 1,5 UV-I 251 W/m 15,9 C 17,9 C 25,7 km/h (4 Bft) 97,87 %
17.07.2016 17:00 20,1 C 78 % 1019,0 hPa 0,0 l/m 13,6 km/h (3 Bft) SW 234 0 min 0,203 mm 1,3 UV-I 217 W/m 16,1 C 17,7 C 22,5 km/h (4 Bft) 97,87 %
17.07.2016 17:02 20,1 C 78 % 1019,0 hPa 0,0 l/m 15,2 km/h (3 Bft) W 259 0 min 0,000 mm 1,1 UV-I 193 W/m 16,1 C 17,3 C 24,1 km/h (4 Bft) 95,74 %
17.07.2016 17:04 20,1 C 77 % 1019,0 hPa 0,0 l/m 16,1 km/h (3 Bft) S-SW 196 0 min 0,000 mm 1,1 UV-I 191 W/m 15,9 C 17,1 C 27,4 km/h (4 Bft) 93,62 %
17.07.2016 17:06 20,1 C 77 % 1019,0 hPa 0,0 l/m 18,2 km/h (3 Bft) SW 230 0 min 0,000 mm 1,1 UV-I 203 W/m 15,9 C 16,7 C 30,6 km/h (5 Bft) 97,87 %
17.07.2016 17:08 20,0 C 76 % 1019,0 hPa 0,0 l/m 20,2 km/h (4 Bft) W 267 0 min 0,000 mm 1,1 UV-I 206 W/m 15,6 C 16,2 C 30,6 km/h (5 Bft) 97,87 %
17.07.2016 17:10 20,0 C 76 % 1019,0 hPa 0,0 l/m 15,6 km/h (3 Bft) SW 226 0 min 0,000 mm 1,1 UV-I 200 W/m 15,6 C 17,1 C 24,1 km/h (4 Bft) 97,87 %
17.07.2016 17:12 20,0 C 76 % 1019,0 hPa 0,0 l/m 17,8 km/h (3 Bft) SW 215 0 min 0,000 mm 1,0 UV-I 194 W/m 15,6 C 16,6 C 32,2 km/h (5 Bft) 97,87 %
17.07.2016 17:14 19,9 C 76 % 1019,0 hPa 0,0 l/m 18,4 km/h (3 Bft) SW 222 0 min 0,000 mm 1,0 UV-I 190 W/m 15,5 C 16,4 C 27,4 km/h (4 Bft) 96,00 %
17.07.2016 17:16 19,9 C 76 % 1019,0 hPa 0,0 l/m 20,8 km/h (4 Bft) W 267 0 min 0,000 mm 1,0 UV-I 189 W/m 15,5 C 15,9 C 30,6 km/h (5 Bft) 97,87 %
17.07.2016 17:18 19,9 C 77 % 1019,0 hPa 0,0 l/m 15,2 km/h (3 Bft) SW 217 0 min 0,000 mm 1,0 UV-I 192 W/m 15,7 C 17,1 C 20,9 km/h (4 Bft) 97,37 %
17.07.2016 17:20 19,9 C 76 % 1019,0 hPa 0,0 l/m 13,2 km/h (3 Bft) SW 217 0 min 0,000 mm 1,0 UV-I 196 W/m 15,5 C 17,6 C 20,9 km/h (4 Bft) 97,87 %
17.07.2016 17:22 19,9 C 76 % 1019,0 hPa 0,0 l/m 17,0 km/h (3 Bft) W 259 0 min 0,000 mm 1,0 UV-I 194 W/m 15,5 C 16,7 C 22,5 km/h (4 Bft) 97,87 %
17.07.2016 17:24 19,9 C 76 % 1019,1 hPa 0,0 l/m 16,8 km/h (3 Bft) SW 221 0 min 0,000 mm 0,9 UV-I 186 W/m 15,5 C 16,7 C 25,7 km/h (4 Bft) 96,00 %
17.07.2016 17:26 19,9 C 76 % 1019,1 hPa 0,0 l/m 16,4 km/h (3 Bft) W-SW 258 0 min 0,000 mm 0,9 UV-I 176 W/m 15,5 C 16,8 C 22,5 km/h (4 Bft) 97,96 %
17.07.2016 17:28 19,8 C 76 % 1019,0 hPa 0,0 l/m 17,2 km/h (3 Bft) SW 231 0 min 0,000 mm 0,8 UV-I 165 W/m 15,4 C 16,5 C 24,1 km/h (4 Bft) 100,00 %
17.07.2016 17:30 19,8 C 76 % 1019,1 hPa 0,0 l/m 14,3 km/h (3 Bft) W 264 0 min 0,000 mm 0,8 UV-I 152 W/m 15,4 C 17,2 C 24,1 km/h (4 Bft) 100,00 %
17.07.2016 17:32 19,8 C 77 % 1019,0 hPa 0,0 l/m 13,3 km/h (3 Bft) W-SW 248 0 min 0,000 mm 0,7 UV-I 136 W/m 15,6 C 17,4 C 19,3 km/h (3 Bft) 97,87 %
17.07.2016 17:34 19,8 C 77 % 1019,0 hPa 0,0 l/m 12,2 km/h (2 Bft) SW 235 0 min 0,000 mm 0,6 UV-I 126 W/m 15,6 C 17,7 C 20,9 km/h (4 Bft) 95,74 %
17.07.2016 17:36 19,8 C 77 % 1019,0 hPa 0,0 l/m 12,3 km/h (3 Bft) W 259 0 min 0,000 mm 0,6 UV-I 118 W/m 15,6 C 17,7 C 17,7 km/h (3 Bft) 97,87 %
17.07.2016 17:38 19,7 C 77 % 1019,0 hPa 0,0 l/m 12,0 km/h (2 Bft) W-SW 244 0 min 0,000 mm 0,5 UV-I 107 W/m 15,5 C 17,7 C 20,9 km/h (4 Bft) 97,44 %
17.07.2016 17:40 19,7 C 78 % 1019,0 hPa 0,0 l/m 12,7 km/h (3 Bft) S-SW 211 0 min 0,000 mm 0,5 UV-I 100 W/m 15,8 C 17,5 C 19,3 km/h (3 Bft) 100,00 %
17.07.2016 17:42 19,7 C 78 % 1018,9 hPa 0,0 l/m 13,2 km/h (3 Bft) W-SW 238 0 min 0,000 mm 0,5 UV-I 98 W/m 15,8 C 17,3 C 22,5 km/h (4 Bft) 91,49 %
17.07.2016 17:44 19,6 C 78 % 1018,9 hPa 0,0 l/m 15,8 km/h (3 Bft) W-SW 255 0 min 0,000 mm 0,5 UV-I 99 W/m 15,7 C 16,6 C 25,7 km/h (4 Bft) 97,87 %
17.07.2016 17:46 19,6 C 78 % 1019,0 hPa 0,0 l/m 15,6 km/h (3 Bft) SW 225 0 min 0,000 mm 0,5 UV-I 102 W/m 15,7 C 16,6 C 22,5 km/h (4 Bft) 100,00 %
17.07.2016 17:48 19,6 C 78 % 1019,0 hPa 0,0 l/m 15,6 km/h (3 Bft) W-SW 242 0 min 0,000 mm 0,5 UV-I 102 W/m 15,7 C 16,6 C 25,7 km/h (4 Bft) 97,87 %
17.07.2016 17:50 19,6 C 80 % 1019,0 hPa 0,0 l/m 10,8 km/h (2 Bft) W-SW 238 0 min 0,000 mm 0,5 UV-I 102 W/m 16,1 C 17,9 C 14,5 km/h (3 Bft) 97,87 %
17.07.2016 17:52 19,5 C 80 % 1019,0 hPa 0,0 l/m 12,0 km/h (2 Bft) W 259 0 min 0,000 mm 0,5 UV-I 104 W/m 16,0 C 17,5 C 20,9 km/h (4 Bft) 100,00 %
17.07.2016 17:54 19,4 C 81 % 1018,9 hPa 0,0 l/m 10,3 km/h (2 Bft) W-SW 253 0 min 0,000 mm 0,5 UV-I 104 W/m 16,1 C 17,9 C 17,7 km/h (3 Bft) 97,87 %
17.07.2016 17:56 19,4 C 80 % 1019,0 hPa 0,0 l/m 10,7 km/h (2 Bft) W-SW 248 0 min 0,000 mm 0,5 UV-I 104 W/m 15,9 C 17,7 C 17,7 km/h (3 Bft) 100,00 %
17.07.2016 17:58 19,4 C 80 % 1019,0 hPa 0,0 l/m 13,1 km/h (3 Bft) SW 227 0 min 0,000 mm 0,5 UV-I 106 W/m 15,9 C 17,0 C 20,9 km/h (4 Bft) 97,87 %
17.07.2016 18:00 19,5 C 81 % 1019,0 hPa 0,0 l/m 9,7 km/h (2 Bft) SW 236 0 min 0,000 mm 0,5 UV-I 110 W/m 16,1 C 18,2 C 14,5 km/h (3 Bft) 100,00 %
17.07.2016 18:02 19,5 C 80 % 1019,0 hPa 0,0 l/m 12,4 km/h (3 Bft) W-SW 258 0 min 0,127 mm 0,5 UV-I 115 W/m 16,0 C 17,3 C 20,9 km/h (4 Bft) 96,00 %
17.07.2016 18:04 19,6 C 80 % 1019,1 hPa 0,0 l/m 15,0 km/h (3 Bft) W-SW 243 0 min 0,000 mm 0,5 UV-I 120 W/m 16,1 C 16,8 C 20,9 km/h (4 Bft) 100,00 %
17.07.2016 18:06 19,6 C 79 % 1019,1 hPa 0,0 l/m 14,4 km/h (3 Bft) W-SW 250 0 min 0,000 mm 0,5 UV-I 119 W/m 15,9 C 16,9 C 22,5 km/h (4 Bft) 100,00 %
17.07.2016 18:08 19,7 C 79 % 1019,1 hPa 0,0 l/m 10,6 km/h (2 Bft) SW 228 0 min 0,000 mm 0,5 UV-I 118 W/m 16,0 C 18,1 C 16,1 km/h (3 Bft) 97,87 %
17.07.2016 18:10 19,7 C 79 % 1019,2 hPa 0,0 l/m 10,5 km/h (2 Bft) W-SW 250 0 min 0,000 mm 0,5 UV-I 119 W/m 16,0 C 18,1 C 14,5 km/h (3 Bft) 100,00 %
17.07.2016 18:12 19,7 C 78 % 1019,2 hPa 0,0 l/m 15,8 km/h (3 Bft) SW 232 0 min 0,000 mm 0,5 UV-I 121 W/m 15,8 C 16,7 C 20,9 km/h (4 Bft) 100,00 %
17.07.2016 18:14 19,8 C 77 % 1019,2 hPa 0,0 l/m 18,0 km/h (3 Bft) SW 234 0 min 0,000 mm 0,5 UV-I 121 W/m 15,6 C 16,3 C 24,1 km/h (4 Bft) 100,00 %
17.07.2016 18:16 19,8 C 77 % 1019,2 hPa 0,0 l/m 14,6 km/h (3 Bft) W-SW 250 0 min 0,000 mm 0,5 UV-I 114 W/m 15,6 C 17,1 C 22,5 km/h (4 Bft) 97,87 %
17.07.2016 18:18 19,8 C 77 % 1019,2 hPa 0,0 l/m 13,5 km/h (3 Bft) SW 230 0 min 0,000 mm 0,5 UV-I 114 W/m 15,6 C 17,4 C 17,7 km/h (3 Bft) 100,00 %
17.07.2016 18:20 19,8 C 76 % 1019,3 hPa 0,0 l/m 16,8 km/h (3 Bft) W-SW 242 0 min 0,000 mm 0,5 UV-I 121 W/m 15,4 C 16,6 C 25,7 km/h (4 Bft) 100,00 %
17.07.2016 18:22 19,8 C 77 % 1019,3 hPa 0,0 l/m 16,0 km/h (3 Bft) SW 232 0 min 0,000 mm 0,5 UV-I 130 W/m 15,6 C 16,8 C 22,5 km/h (4 Bft) 98,00 %
17.07.2016 18:24 19,8 C 77 % 1019,3 hPa 0,0 l/m 13,4 km/h (3 Bft) W 261 0 min 0,000 mm 0,5 UV-I 130 W/m 15,6 C 17,4 C 19,3 km/h (3 Bft) 100,00 %
17.07.2016 18:26 19,7 C 78 % 1019,3 hPa 0,0 l/m 12,3 km/h (3 Bft) W 259 0 min 0,000 mm 0,5 UV-I 135 W/m 15,8 C 17,6 C 17,7 km/h (3 Bft) 100,00 %
17.07.2016 18:28 19,7 C 77 % 1019,3 hPa 0,0 l/m 16,2 km/h (3 Bft) W-SW 244 0 min 0,000 mm 0,5 UV-I 134 W/m 15,5 C 16,6 C 22,5 km/h (4 Bft) 97,87 %
17.07.2016 18:30 19,7 C 77 % 1019,3 hPa 0,0 l/m 15,9 km/h (3 Bft) W-SW 238 0 min 0,000 mm 0,5 UV-I 117 W/m 15,5 C 16,7 C 27,4 km/h (4 Bft) 100,00 %
17.07.2016 18:32 19,7 C 77 % 1019,3 hPa 0,0 l/m 16,1 km/h (3 Bft) W-SW 246 0 min 0,000 mm 0,2 UV-I 100 W/m 15,5 C 16,6 C 22,5 km/h (4 Bft) 100,00 %
17.07.2016 18:34 19,7 C 77 % 1019,4 hPa 0,0 l/m 14,9 km/h (3 Bft) W 281 0 min 0,000 mm 0,0 UV-I 89 W/m 15,5 C 16,9 C 24,1 km/h (4 Bft) 97,87 %
17.07.2016 18:36 19,6 C 77 % 1019,4 hPa 0,0 l/m 14,6 km/h (3 Bft) W 260 0 min 0,000 mm 0,0 UV-I 89 W/m 15,5 C 16,9 C 19,3 km/h (3 Bft) 100,00 %
17.07.2016 18:38 19,6 C 77 % 1019,3 hPa 0,0 l/m 16,9 km/h (3 Bft) SW 227 0 min 0,000 mm 0,0 UV-I 101 W/m 15,5 C 16,3 C 24,1 km/h (4 Bft) 100,00 %
17.07.2016 18:40 19,6 C 77 % 1019,4 hPa 0,0 l/m 18,7 km/h (3 Bft) SW 233 0 min 0,000 mm 0,0 UV-I 114 W/m 15,5 C 15,9 C 25,7 km/h (4 Bft) 97,87 %
17.07.2016 18:42 19,6 C 77 % 1019,4 hPa 0,0 l/m 14,6 km/h (3 Bft) W-SW 252 0 min 0,000 mm 0,0 UV-I 123 W/m 15,5 C 16,9 C 24,1 km/h (4 Bft) 100,00 %
17.07.2016 18:44 19,5 C 78 % 1019,4 hPa 0,0 l/m 14,3 km/h (3 Bft) W 267 0 min 0,000 mm 0,0 UV-I 124 W/m 15,6 C 16,8 C 22,5 km/h (4 Bft) 97,87 %
17.07.2016 18:46 19,4 C 77 % 1019,4 hPa 0,0 l/m 14,5 km/h (3 Bft) W 281 0 min 0,000 mm 0,0 UV-I 125 W/m 15,3 C 16,6 C 19,3 km/h (3 Bft) 93,62 %
17.07.2016 18:48 19,4 C 78 % 1019,4 hPa 0,0 l/m 16,4 km/h (3 Bft) W-SW 251 0 min 0,000 mm 0,0 UV-I 117 W/m 15,5 C 16,2 C 27,4 km/h (4 Bft) 100,00 %
17.07.2016 18:50 19,4 C 77 % 1019,3 hPa 0,0 l/m 15,4 km/h (3 Bft) W-SW 238 0 min 0,000 mm 0,0 UV-I 108 W/m 15,3 C 16,4 C 24,1 km/h (4 Bft) 97,92 %
17.07.2016 18:52 19,4 C 77 % 1019,3 hPa 0,0 l/m 15,1 km/h (3 Bft) W-SW 238 0 min 0,000 mm 0,0 UV-I 100 W/m 15,3 C 16,5 C 22,5 km/h (4 Bft) 93,62 %
17.07.2016 18:54 19,4 C 77 % 1019,4 hPa 0,0 l/m 13,9 km/h (3 Bft) W-SW 245 0 min 0,000 mm 0,0 UV-I 97 W/m 15,3 C 16,8 C 19,3 km/h (3 Bft) 97,87 %
17.07.2016 18:56 19,4 C 78 % 1019,4 hPa 0,0 l/m 15,2 km/h (3 Bft) W 265 0 min 0,000 mm 0,0 UV-I 95 W/m 15,5 C 16,5 C 27,4 km/h (4 Bft) 95,74 %
17.07.2016 18:58 19,4 C 77 % 1019,4 hPa 0,0 l/m 17,0 km/h (3 Bft) W-SW 248 0 min 0,000 mm 0,0 UV-I 92 W/m 15,3 C 16,1 C 25,7 km/h (4 Bft) 97,87 %
17.07.2016 19:00 19,4 C 77 % 1019,5 hPa 0,0 l/m 18,2 km/h (3 Bft) W-SW 246 0 min 0,000 mm 0,0 UV-I 86 W/m 15,3 C 15,8 C 24,1 km/h (4 Bft) 95,74 %
17.07.2016 19:02 19,4 C 76 % 1019,5 hPa 0,0 l/m 16,0 km/h (3 Bft) W-NW 288 0 min 0,102 mm 0,0 UV-I 75 W/m 15,1 C 16,3 C 25,7 km/h (4 Bft) 98,04 %
17.07.2016 19:04 19,4 C 77 % 1019,5 hPa 0,0 l/m 18,5 km/h (3 Bft) SW 219 0 min 0,000 mm 0,0 UV-I 68 W/m 15,3 C 15,7 C 25,7 km/h (4 Bft) 98,00 %
17.07.2016 19:06 19,3 C 77 % 1019,5 hPa 0,0 l/m 19,7 km/h (3 Bft) W-SW 251 0 min 0,000 mm 0,0 UV-I 62 W/m 15,2 C 15,4 C 30,6 km/h (5 Bft) 93,62 %
17.07.2016 19:08 19,3 C 78 % 1019,5 hPa 0,0 l/m 17,9 km/h (3 Bft) W-SW 242 0 min 0,000 mm 0,0 UV-I 63 W/m 15,4 C 15,7 C 24,1 km/h (4 Bft) 95,74 %
17.07.2016 19:10 19,3 C 78 % 1019,5 hPa 0,0 l/m 16,0 km/h (3 Bft) W 278 0 min 0,000 mm 0,0 UV-I 62 W/m 15,4 C 16,2 C 24,1 km/h (4 Bft) 95,74 %
17.07.2016 19:12 19,2 C 78 % 1019,6 hPa 0,0 l/m 16,4 km/h (3 Bft) SW 233 0 min 0,000 mm 0,0 UV-I 58 W/m 15,3 C 15,9 C 22,5 km/h (4 Bft) 97,92 %
17.07.2016 19:14 19,2 C 78 % 1019,6 hPa 0,0 l/m 14,5 km/h (3 Bft) SW 229 0 min 0,000 mm 0,0 UV-I 56 W/m 15,3 C 16,4 C 20,9 km/h (4 Bft) 97,87 %
17.07.2016 19:16 19,1 C 78 % 1019,6 hPa 0,0 l/m 14,7 km/h (3 Bft) SW 230 0 min 0,000 mm 0,0 UV-I 57 W/m 15,2 C 16,2 C 22,5 km/h (4 Bft) 95,74 %
17.07.2016 19:18 19,1 C 79 % 1019,6 hPa 0,0 l/m 13,4 km/h (3 Bft) S-SW 210 0 min 0,000 mm 0,0 UV-I 59 W/m 15,4 C 16,6 C 17,7 km/h (3 Bft) 94,74 %
17.07.2016 19:20 19,1 C 79 % 1019,6 hPa 0,0 l/m 12,8 km/h (3 Bft) W-SW 246 0 min 0,000 mm 0,0 UV-I 62 W/m 15,4 C 16,8 C 19,3 km/h (3 Bft) 100,00 %
17.07.2016 19:22 19,1 C 79 % 1019,7 hPa 0,0 l/m 13,0 km/h (3 Bft) W-SW 257 0 min 0,000 mm 0,0 UV-I 61 W/m 15,4 C 16,7 C 22,5 km/h (4 Bft) 97,87 %
17.07.2016 19:24 19,1 C 79 % 1019,8 hPa 0,0 l/m 15,0 km/h (3 Bft) W-SW 251 0 min 0,000 mm 0,0 UV-I 61 W/m 15,4 C 16,2 C 19,3 km/h (3 Bft) 100,00 %
17.07.2016 19:26 19,1 C 80 % 1019,7 hPa 0,0 l/m 11,8 km/h (2 Bft) SW 234 0 min 0,000 mm 0,0 UV-I 62 W/m 15,6 C 17,1 C 20,9 km/h (4 Bft) 100,00 %
17.07.2016 19:28 19,0 C 80 % 1019,7 hPa 0,0 l/m 13,2 km/h (3 Bft) S-SW 211 0 min 0,000 mm 0,0 UV-I 62 W/m 15,5 C 16,5 C 19,3 km/h (3 Bft) 100,00 %
17.07.2016 19:30 18,9 C 80 % 1019,7 hPa 0,0 l/m 11,9 km/h (2 Bft) W-SW 244 0 min 0,000 mm 0,0 UV-I 56 W/m 15,4 C 16,8 C 17,7 km/h (3 Bft) 97,92 %
17.07.2016 19:32 18,9 C 81 % 1019,7 hPa 0,0 l/m 12,9 km/h (3 Bft) SW 234 0 min 0,000 mm 0,0 UV-I 48 W/m 15,6 C 16,5 C 17,7 km/h (3 Bft) 100,00 %
17.07.2016 19:34 18,9 C 81 % 1019,7 hPa 0,0 l/m 11,7 km/h (2 Bft) S-SW 210 0 min 0,000 mm 0,0 UV-I 40 W/m 15,6 C 16,9 C 17,7 km/h (3 Bft) 97,87 %
17.07.2016 19:36 18,8 C 81 % 1019,7 hPa 0,0 l/m 11,7 km/h (2 Bft) W-SW 255 0 min 0,000 mm 0,0 UV-I 32 W/m 15,5 C 16,7 C 16,1 km/h (3 Bft) 100,00 %
17.07.2016 19:38 18,8 C 82 % 1019,7 hPa 0,0 l/m 10,2 km/h (2 Bft) W-SW 258 0 min 0,000 mm 0,0 UV-I 27 W/m 15,7 C 17,2 C 16,1 km/h (3 Bft) 100,00 %
17.07.2016 19:40 18,7 C 82 % 1019,7 hPa 0,0 l/m 11,5 km/h (2 Bft) SW 230 0 min 0,000 mm 0,0 UV-I 24 W/m 15,6 C 16,7 C 16,1 km/h (3 Bft) 100,00 %
17.07.2016 19:42 18,7 C 82 % 1019,7 hPa 0,0 l/m 13,2 km/h (3 Bft) W-SW 250 0 min 0,000 mm 0,0 UV-I 23 W/m 15,6 C 16,2 C 19,3 km/h (3 Bft) 97,87 %
17.07.2016 19:44 18,7 C 82 % 1019,7 hPa 0,0 l/m 11,7 km/h (2 Bft) W-SW 250 0 min 0,000 mm 0,0 UV-I 24 W/m 15,6 C 16,6 C 16,1 km/h (3 Bft) 100,00 %
17.07.2016 19:46 18,6 C 82 % 1019,7 hPa 0,0 l/m 12,0 km/h (2 Bft) W-SW 256 0 min 0,000 mm 0,0 UV-I 24 W/m 15,5 C 16,4 C 17,7 km/h (3 Bft) 97,87 %
17.07.2016 19:48 18,6 C 82 % 1019,7 hPa 0,0 l/m 12,2 km/h (2 Bft) W-SW 248 0 min 0,000 mm 0,0 UV-I 22 W/m 15,5 C 16,4 C 19,3 km/h (3 Bft) 100,00 %
17.07.2016 19:50 18,6 C 82 % 1019,7 hPa 0,0 l/m 12,8 km/h (3 Bft) W 273 0 min 0,000 mm 0,0 UV-I 21 W/m 15,5 C 16,2 C 20,9 km/h (4 Bft) 100,00 %
17.07.2016 19:52 18,6 C 82 % 1019,7 hPa 0,0 l/m 12,7 km/h (3 Bft) W-SW 254 0 min 0,000 mm 0,0 UV-I 21 W/m 15,5 C 16,2 C 17,7 km/h (3 Bft) 98,68 %
17.07.2016 19:54 18,5 C 82 % 1019,7 hPa 0,0 l/m 10,2 km/h (2 Bft) W-SW 243 0 min 0,000 mm 0,0 UV-I 23 W/m 15,4 C 16,9 C 14,5 km/h (3 Bft) 95,74 %
17.07.2016 19:56 18,5 C 83 % 1019,7 hPa 0,0 l/m 11,7 km/h (2 Bft) W 259 0 min 0,000 mm 0,0 UV-I 28 W/m 15,6 C 16,4 C 17,7 km/h (3 Bft) 97,87 %
17.07.2016 19:58 18,4 C 83 % 1019,7 hPa 0,0 l/m 14,1 km/h (3 Bft) W 267 0 min 0,000 mm 0,0 UV-I 36 W/m 15,5 C 15,6 C 20,9 km/h (4 Bft) 100,00 %
17.07.2016 20:00 18,3 C 84 % 1019,7 hPa 0,2 l/m 12,3 km/h (3 Bft) W-SW 246 0 min 0,000 mm 0,0 UV-I 46 W/m 15,5 C 16,0 C 17,7 km/h (3 Bft) 97,87 %
17.07.2016 20:02 18,2 C 85 % 1019,7 hPa 0,2 l/m 9,1 km/h (2 Bft) W-SW 244 0 min 0,076 mm 0,0 UV-I 54 W/m 15,6 C 17,0 C 16,1 km/h (3 Bft) 97,87 %
17.07.2016 20:04 18,1 C 85 % 1019,7 hPa 0,0 l/m 10,6 km/h (2 Bft) W-SW 240 0 min 0,000 mm 0,0 UV-I 58 W/m 15,5 C 16,3 C 17,7 km/h (3 Bft) 100,00 %
17.07.2016 20:06 18,0 C 86 % 1019,7 hPa 0,0 l/m 11,4 km/h (2 Bft) W-SW 240 0 min 0,000 mm 0,0 UV-I 58 W/m 15,6 C 15,9 C 17,7 km/h (3 Bft) 95,74 %
17.07.2016 20:08 17,9 C 86 % 1019,8 hPa 0,0 l/m 13,1 km/h (3 Bft) W-SW 249 0 min 0,000 mm 0,0 UV-I 55 W/m 15,5 C 15,3 C 19,3 km/h (3 Bft) 100,00 %
17.07.2016 20:10 17,8 C 87 % 1019,7 hPa 0,0 l/m 11,2 km/h (2 Bft) W-SW 244 0 min 0,000 mm 0,0 UV-I 48 W/m 15,6 C 15,8 C 17,7 km/h (3 Bft) 97,87 %
17.07.2016 20:12 17,8 C 87 % 1019,7 hPa 0,0 l/m 11,2 km/h (2 Bft) W-SW 238 0 min 0,000 mm 0,0 UV-I 40 W/m 15,6 C 15,8 C 19,3 km/h (3 Bft) 100,00 %
17.07.2016 20:14 17,7 C 87 % 1019,7 hPa 0,0 l/m 10,5 km/h (2 Bft) W-SW 238 0 min 0,000 mm 0,0 UV-I 32 W/m 15,5 C 15,9 C 14,5 km/h (3 Bft) 95,83 %
17.07.2016 20:16 17,7 C 88 % 1019,7 hPa 0,0 l/m 8,1 km/h (2 Bft) W-SW 240 0 min 0,000 mm 0,0 UV-I 24 W/m 15,7 C 16,9 C 14,5 km/h (3 Bft) 97,87 %
17.07.2016 20:18 17,6 C 88 % 1019,7 hPa 0,0 l/m 8,0 km/h (2 Bft) W-SW 250 0 min 0,000 mm 0,0 UV-I 19 W/m 15,6 C 16,8 C 12,9 km/h (3 Bft) 100,00 %
17.07.2016 20:20 17,6 C 88 % 1019,7 hPa 0,0 l/m 8,8 km/h (2 Bft) SW 217 0 min 0,000 mm 0,0 UV-I 18 W/m 15,6 C 16,5 C 14,5 km/h (3 Bft) 100,00 %
17.07.2016 20:22 17,5 C 88 % 1019,7 hPa 0,0 l/m 7,9 km/h (2 Bft) W-SW 237 0 min 0,000 mm 0,0 UV-I 18 W/m 15,5 C 16,8 C 12,9 km/h (3 Bft) 100,00 %
17.07.2016 20:24 17,4 C 89 % 1019,7 hPa 0,0 l/m 6,8 km/h (2 Bft) SW 236 0 min 0,000 mm 0,0 UV-I 18 W/m 15,6 C 17,2 C 9,7 km/h (2 Bft) 97,87 %
17.07.2016 20:26 17,4 C 89 % 1019,7 hPa 0,0 l/m 9,1 km/h (2 Bft) W-SW 248 0 min 0,000 mm 0,0 UV-I 18 W/m 15,6 C 16,1 C 12,9 km/h (3 Bft) 97,87 %
17.07.2016 20:28 17,4 C 89 % 1019,7 hPa 0,0 l/m 6,5 km/h (2 Bft) SW 234 0 min 0,000 mm 0,0 UV-I 17 W/m 15,6 C 17,4 C 9,7 km/h (2 Bft) 100,00 %
17.07.2016 20:30 17,3 C 90 % 1019,8 hPa 0,0 l/m 6,2 km/h (2 Bft) W-SW 244 0 min 0,000 mm 0,0 UV-I 14 W/m 15,6 C 17,3 C 9,7 km/h (2 Bft) 100,00 %
17.07.2016 20:32 17,3 C 90 % 1019,7 hPa 0,0 l/m 6,1 km/h (2 Bft) SW 220 0 min 0,000 mm 0,0 UV-I 13 W/m 15,6 C 17,3 C 9,7 km/h (2 Bft) 100,00 %
17.07.2016 20:34 17,3 C 90 % 1019,8 hPa 0,0 l/m 6,7 km/h (2 Bft) SW 229 0 min 0,000 mm 0,0 UV-I 12 W/m 15,6 C 17,2 C 9,7 km/h (2 Bft) 100,00 %
17.07.2016 20:36 17,3 C 90 % 1019,7 hPa 0,0 l/m 6,4 km/h (2 Bft) SW 221 0 min 0,000 mm 0,0 UV-I 12 W/m 15,6 C 17,3 C 11,3 km/h (2 Bft) 100,00 %
17.07.2016 20:38 17,3 C 90 % 1019,7 hPa 0,0 l/m 5,7 km/h (1 Bft) SW 225 0 min 0,000 mm 0,0 UV-I 12 W/m 15,6 C 17,3 C 8,0 km/h (2 Bft) 100,00 %
17.07.2016 20:40 17,3 C 90 % 1019,7 hPa 0,0 l/m 6,1 km/h (2 Bft) SW 227 0 min 0,000 mm 0,0 UV-I 11 W/m 15,6 C 17,3 C 9,7 km/h (2 Bft) 93,62 %
17.07.2016 20:42 17,3 C 90 % 1019,7 hPa 0,0 l/m 6,0 km/h (2 Bft) S-SW 201 0 min 0,000 mm 0,0 UV-I 11 W/m 15,6 C 17,3 C 8,0 km/h (2 Bft) 95,74 %
17.07.2016 20:44 17,2 C 90 % 1019,7 hPa 0,0 l/m 7,6 km/h (2 Bft) S-SW 208 0 min 0,000 mm 0,0 UV-I 9 W/m 15,5 C 16,6 C 14,5 km/h (3 Bft) 97,87 %
17.07.2016 20:46 17,3 C 90 % 1019,7 hPa 0,0 l/m 6,5 km/h (2 Bft) W-SW 250 0 min 0,000 mm 0,0 UV-I 8 W/m 15,6 C 17,3 C 11,3 km/h (2 Bft) 93,62 %
17.07.2016 20:48 17,3 C 90 % 1019,6 hPa 0,0 l/m 6,9 km/h (2 Bft) S-SW 207 0 min 0,000 mm 0,0 UV-I 7 W/m 15,6 C 17,1 C 11,3 km/h (2 Bft) 97,92 %
17.07.2016 20:50 17,3 C 89 % 1019,6 hPa 0,0 l/m 6,0 km/h (2 Bft) S 180 0 min 0,000 mm 0,0 UV-I 6 W/m 15,5 C 17,3 C 11,3 km/h (2 Bft) 97,87 %
17.07.2016 20:52 17,3 C 89 % 1019,6 hPa 0,0 l/m 6,3 km/h (2 Bft) S-SW 196 0 min 0,000 mm 0,0 UV-I 4 W/m 15,5 C 17,3 C 9,7 km/h (2 Bft) 95,74 %
17.07.2016 20:54 17,3 C 89 % 1019,7 hPa 0,0 l/m 6,6 km/h (2 Bft) SW 217 0 min 0,000 mm 0,0 UV-I 0 W/m 15,5 C 17,2 C 9,7 km/h (2 Bft) 96,00 %
17.07.2016 20:56 17,3 C 89 % 1019,7 hPa 0,0 l/m 5,6 km/h (1 Bft) SW 236 0 min 0,000 mm 0,0 UV-I 0 W/m 15,5 C 17,3 C 11,3 km/h (2 Bft) 97,87 %
17.07.2016 20:58 17,3 C 90 % 1019,8 hPa 0,0 l/m 4,3 km/h (1 Bft) SW 218 0 min 0,000 mm 0,0 UV-I 0 W/m 15,6 C 17,3 C 6,4 km/h (2 Bft) 97,87 %
17.07.2016 21:00 17,3 C 90 % 1019,8 hPa 0,0 l/m 3,8 km/h (1 Bft) W-SW 237 0 min 0,025 mm 0,0 UV-I 0 W/m 15,6 C 17,3 C 6,4 km/h (2 Bft) 95,74 %
17.07.2016 21:02 17,3 C 90 % 1019,8 hPa 0,0 l/m 4,3 km/h (1 Bft) SW 232 0 min 0,000 mm 0,0 UV-I 0 W/m 15,6 C 17,3 C 6,4 km/h (2 Bft) 97,87 %
17.07.2016 21:04 17,2 C 90 % 1019,8 hPa 0,0 l/m 5,2 km/h (1 Bft) S-SW 205 0 min 0,000 mm 0,0 UV-I 0 W/m 15,5 C 17,2 C 6,4 km/h (2 Bft) 97,87 %
17.07.2016 21:06 17,2 C 90 % 1019,7 hPa 0,0 l/m 7,2 km/h (2 Bft) S-SW 204 0 min 0,000 mm 0,0 UV-I 0 W/m 15,5 C 16,8 C 11,3 km/h (2 Bft) 95,74 %
17.07.2016 21:08 17,2 C 90 % 1019,7 hPa 0,0 l/m 9,0 km/h (2 Bft) S-SW 211 0 min 0,000 mm 0,0 UV-I 0 W/m 15,5 C 16,0 C 12,9 km/h (3 Bft) 93,62 %
17.07.2016 21:10 17,2 C 90 % 1019,6 hPa 0,0 l/m 7,6 km/h (2 Bft) S-SW 206 0 min 0,000 mm 0,0 UV-I 0 W/m 15,5 C 16,6 C 11,3 km/h (2 Bft) 98,00 %
17.07.2016 21:12 17,2 C 90 % 1019,7 hPa 0,0 l/m 6,6 km/h (2 Bft) W-SW 242 0 min 0,000 mm 0,0 UV-I 0 W/m 15,5 C 17,1 C 11,3 km/h (2 Bft) 95,74 %
17.07.2016 21:14 17,2 C 89 % 1019,7 hPa 0,0 l/m 6,5 km/h (2 Bft) S 191 0 min 0,000 mm 0,0 UV-I 0 W/m 15,4 C 17,2 C 11,3 km/h (2 Bft) 94,74 %
17.07.2016 21:16 17,2 C 89 % 1019,7 hPa 0,0 l/m 6,2 km/h (2 Bft) S-SW 211 0 min 0,000 mm 0,0 UV-I 0 W/m 15,4 C 17,2 C 8,0 km/h (2 Bft) 97,87 %
17.07.2016 21:18 17,2 C 89 % 1019,7 hPa 0,0 l/m 7,0 km/h (2 Bft) SW 214 0 min 0,000 mm 0,0 UV-I 0 W/m 15,4 C 16,9 C 11,3 km/h (2 Bft) 96,00 %
17.07.2016 21:20 17,2 C 90 % 1019,7 hPa 0,0 l/m 5,5 km/h (1 Bft) W-SW 248 0 min 0,000 mm 0,0 UV-I 0 W/m 15,5 C 17,2 C 8,0 km/h (2 Bft) 93,62 %
17.07.2016 21:22 17,2 C 90 % 1019,8 hPa 0,0 l/m 4,7 km/h (1 Bft) W-SW 254 0 min 0,000 mm 0,0 UV-I 0 W/m 15,5 C 17,2 C 8,0 km/h (2 Bft) 100,00 %
17.07.2016 21:24 17,1 C 90 % 1019,8 hPa 0,0 l/m 5,0 km/h (1 Bft) SW 216 0 min 0,000 mm 0,0 UV-I 0 W/m 15,4 C 17,1 C 8,0 km/h (2 Bft) 97,87 %
17.07.2016 21:26 17,1 C 90 % 1019,7 hPa 0,0 l/m 5,6 km/h (1 Bft) SW 227 0 min 0,000 mm 0,0 UV-I 0 W/m 15,4 C 17,1 C 9,7 km/h (2 Bft) 97,87 %
17.07.2016 21:28 17,1 C 90 % 1019,7 hPa 0,0 l/m 6,9 km/h (2 Bft) S-SW 200 0 min 0,000 mm 0,0 UV-I 0 W/m 15,4 C 16,9 C 9,7 km/h (2 Bft) 97,87 %
17.07.2016 21:30 17,1 C 90 % 1019,7 hPa 0,0 l/m 7,5 km/h (2 Bft) S-SW 211 0 min 0,000 mm 0,0 UV-I 0 W/m 15,4 C 16,5 C 11,3 km/h (2 Bft) 97,87 %
17.07.2016 21:32 17,1 C 90 % 1019,7 hPa 0,0 l/m 5,8 km/h (2 Bft) SW 231 0 min 0,000 mm 0,0 UV-I 0 W/m 15,4 C 17,1 C 9,7 km/h (2 Bft) 100,00 %
17.07.2016 21:34 17,1 C 90 % 1019,7 hPa 0,0 l/m 6,1 km/h (2 Bft) S-SW 209 0 min 0,000 mm 0,0 UV-I 0 W/m 15,4 C 17,1 C 9,7 km/h (2 Bft) 100,00 %
17.07.2016 21:36 17,1 C 89 % 1019,8 hPa 0,0 l/m 7,2 km/h (2 Bft) S 186 0 min 0,000 mm 0,0 UV-I 0 W/m 15,3 C 16,7 C 9,7 km/h (2 Bft) 97,87 %
17.07.2016 21:38 17,2 C 89 % 1019,8 hPa 0,0 l/m 6,7 km/h (2 Bft) S-SW 202 0 min 0,000 mm 0,0 UV-I 0 W/m 15,4 C 17,1 C 9,7 km/h (2 Bft) 100,00 %
17.07.2016 21:40 17,2 C 89 % 1019,8 hPa 0,0 l/m 5,5 km/h (1 Bft) SW 235 0 min 0,000 mm 0,0 UV-I 0 W/m 15,4 C 17,2 C 9,7 km/h (2 Bft) 100,00 %
17.07.2016 21:42 17,2 C 89 % 1019,8 hPa 0,0 l/m 6,0 km/h (2 Bft) S-SW 200 0 min 0,000 mm 0,0 UV-I 0 W/m 15,4 C 17,2 C 8,0 km/h (2 Bft) 100,00 %
17.07.2016 21:44 17,2 C 89 % 1019,8 hPa 0,0 l/m 5,6 km/h (1 Bft) SW 221 0 min 0,000 mm 0,0 UV-I 0 W/m 15,4 C 17,2 C 8,0 km/h (2 Bft) 97,87 %
17.07.2016 21:46 17,2 C 89 % 1019,8 hPa 0,0 l/m 5,0 km/h (1 Bft) W-SW 245 0 min 0,000 mm 0,0 UV-I 0 W/m 15,4 C 17,2 C 8,0 km/h (2 Bft) 100,00 %
17.07.2016 21:48 17,2 C 89 % 1019,8 hPa 0,0 l/m 6,0 km/h (2 Bft) SW 236 0 min 0,000 mm 0,0 UV-I 0 W/m 15,4 C 17,2 C 8,0 km/h (2 Bft) 100,00 %
17.07.2016 21:50 17,2 C 89 % 1019,8 hPa 0,0 l/m 6,3 km/h (2 Bft) SW 233 0 min 0,000 mm 0,0 UV-I 0 W/m 15,4 C 17,2 C 8,0 km/h (2 Bft) 100,00 %
17.07.2016 21:52 17,1 C 89 % 1019,8 hPa 0,0 l/m 3,9 km/h (1 Bft) SW 228 0 min 0,000 mm 0,0 UV-I 0 W/m 15,3 C 17,1 C 4,8 km/h (1 Bft) 97,87 %
17.07.2016 21:54 17,1 C 89 % 1019,8 hPa 0,0 l/m 4,3 km/h (1 Bft) SW 221 0 min 0,000 mm 0,0 UV-I 0 W/m 15,3 C 17,1 C 6,4 km/h (2 Bft) 100,00 %
17.07.2016 21:56 17,1 C 89 % 1019,8 hPa 0,0 l/m 5,8 km/h (2 Bft) S-SW 196 0 min 0,000 mm 0,0 UV-I 0 W/m 15,3 C 17,1 C 8,0 km/h (2 Bft) 97,14 %
17.07.2016 21:58 17,1 C 90 % 1019,8 hPa 0,0 l/m 7,1 km/h (2 Bft) S-SW 213 0 min 0,000 mm 0,0 UV-I 0 W/m 15,4 C 16,7 C 9,7 km/h (2 Bft) 100,00 %
17.07.2016 22:00 17,1 C 90 % 1019,8 hPa 0,0 l/m 8,4 km/h (2 Bft) S-SW 209 0 min 0,000 mm 0,0 UV-I 0 W/m 15,4 C 16,1 C 11,3 km/h (2 Bft) 97,87 %
17.07.2016 22:02 17,0 C 90 % 1019,8 hPa 0,0 l/m 6,2 km/h (2 Bft) S-SW 196 0 min 0,000 mm 0,0 UV-I 0 W/m 15,3 C 17,0 C 8,0 km/h (2 Bft) 100,00 %
17.07.2016 22:04 17,0 C 90 % 1019,8 hPa 0,0 l/m 6,6 km/h (2 Bft) SW 214 0 min 0,000 mm 0,0 UV-I 0 W/m 15,3 C 16,9 C 9,7 km/h (2 Bft) 97,87 %
17.07.2016 22:06 17,0 C 90 % 1019,8 hPa 0,0 l/m 6,2 km/h (2 Bft) S-SW 198 0 min 0,000 mm 0,0 UV-I 0 W/m 15,3 C 17,0 C 8,0 km/h (2 Bft) 95,74 %
17.07.2016 22:08 17,0 C 90 % 1019,9 hPa 0,0 l/m 6,1 km/h (2 Bft) S-SW 212 0 min 0,000 mm 0,0 UV-I 0 W/m 15,3 C 17,0 C 8,0 km/h (2 Bft) 97,44 %
17.07.2016 22:10 17,0 C 90 % 1019,9 hPa 0,0 l/m 5,3 km/h (1 Bft) SW 219 0 min 0,000 mm 0,0 UV-I 0 W/m 15,3 C 17,0 C 8,0 km/h (2 Bft) 100,00 %
17.07.2016 22:12 17,0 C 90 % 1019,8 hPa 0,0 l/m 4,1 km/h (1 Bft) S-SW 206 0 min 0,000 mm 0,0 UV-I 0 W/m 15,3 C 17,0 C 8,0 km/h (2 Bft) 100,00 %
17.07.2016 22:14 17,0 C 90 % 1019,9 hPa 0,0 l/m 5,5 km/h (1 Bft) SW 236 0 min 0,000 mm 0,0 UV-I 0 W/m 15,3 C 17,0 C 8,0 km/h (2 Bft) 100,00 %
17.07.2016 22:16 17,0 C 90 % 1019,9 hPa 0,0 l/m 5,7 km/h (1 Bft) S 175 0 min 0,000 mm 0,0 UV-I 0 W/m 15,3 C 17,0 C 8,0 km/h (2 Bft) 100,00 %
17.07.2016 22:18 17,0 C 90 % 1019,8 hPa 0,0 l/m 5,2 km/h (1 Bft) S-SW 204 0 min 0,000 mm 0,0 UV-I 0 W/m 15,3 C 17,0 C 9,7 km/h (2 Bft) 100,00 %
17.07.2016 22:20 17,0 C 90 % 1019,8 hPa 0,0 l/m 4,2 km/h (1 Bft) SW 234 0 min 0,000 mm 0,0 UV-I 0 W/m 15,3 C 17,0 C 6,4 km/h (2 Bft) 100,00 %
17.07.2016 22:22 16,9 C 90 % 1019,8 hPa 0,0 l/m 4,6 km/h (1 Bft) SW 225 0 min 0,000 mm 0,0 UV-I 0 W/m 15,2 C 16,9 C 6,4 km/h (2 Bft) 100,00 %
17.07.2016 22:24 16,9 C 90 % 1019,8 hPa 0,0 l/m 4,2 km/h (1 Bft) W-SW 245 0 min 0,000 mm 0,0 UV-I 0 W/m 15,2 C 16,9 C 8,0 km/h (2 Bft) 100,00 %
17.07.2016 22:26 16,9 C 90 % 1019,8 hPa 0,0 l/m 3,7 km/h (1 Bft) SW 227 0 min 0,000 mm 0,0 UV-I 0 W/m 15,2 C 16,9 C 4,8 km/h (1 Bft) 100,00 %
17.07.2016 22:28 16,9 C 90 % 1019,8 hPa 0,0 l/m 2,3 km/h (1 Bft) SW 227 0 min 0,000 mm 0,0 UV-I 0 W/m 15,2 C 16,9 C 4,8 km/h (1 Bft) 97,87 %
17.07.2016 22:30 16,9 C 90 % 1019,8 hPa 0,0 l/m 1,5 km/h (1 Bft) SW 227 0 min 0,000 mm 0,0 UV-I 0 W/m 15,2 C 16,9 C 3,2 km/h (1 Bft) 97,14 %
17.07.2016 22:32 16,8 C 91 % 1019,8 hPa 0,0 l/m 1,2 km/h (1 Bft) SW 227 0 min 0,000 mm 0,0 UV-I 0 W/m 15,3 C 16,8 C 3,2 km/h (1 Bft) 100,00 %
17.07.2016 22:34 16,8 C 91 % 1019,9 hPa 0,0 l/m 0,8 km/h (0 Bft) SW 227 0 min 0,000 mm 0,0 UV-I 0 W/m 15,3 C 16,8 C 1,6 km/h (1 Bft) 100,00 %
17.07.2016 22:36 16,7 C 91 % 1019,9 hPa 0,0 l/m 0,0 km/h (0 Bft) SW 227 0 min 0,000 mm 0,0 UV-I 0 W/m 15,2 C 16,7 C 0,0 km/h (0 Bft) 100,00 %
17.07.2016 22:38 16,7 C 91 % 1019,9 hPa 0,0 l/m 0,9 km/h (0 Bft) SW 227 0 min 0,000 mm 0,0 UV-I 0 W/m 15,2 C 16,7 C 1,6 km/h (1 Bft) 100,00 %
17.07.2016 22:40 16,7 C 91 % 1019,9 hPa 0,0 l/m 1,1 km/h (1 Bft) SW 227 0 min 0,000 mm 0,0 UV-I 0 W/m 15,2 C 16,7 C 1,6 km/h (1 Bft) 100,00 %
17.07.2016 22:42 16,7 C 91 % 1019,9 hPa 0,0 l/m 1,1 km/h (1 Bft) SW 227 0 min 0,000 mm 0,0 UV-I 0 W/m 15,2 C 16,7 C 3,2 km/h (1 Bft) 100,00 %
17.07.2016 22:44 16,7 C 91 % 1019,8 hPa 0,0 l/m 2,0 km/h (1 Bft) SW 227 0 min 0,000 mm 0,0 UV-I 0 W/m 15,2 C 16,7 C 3,2 km/h (1 Bft) 100,00 %
17.07.2016 22:46 16,7 C 91 % 1019,8 hPa 0,0 l/m 2,0 km/h (1 Bft) SW 227 0 min 0,000 mm 0,0 UV-I 0 W/m 15,2 C 16,7 C 3,2 km/h (1 Bft) 100,00 %
17.07.2016 22:48 16,7 C 91 % 1019,8 hPa 0,0 l/m 2,0 km/h (1 Bft) SW 227 0 min 0,000 mm 0,0 UV-I 0 W/m 15,2 C 16,7 C 3,2 km/h (1 Bft) 93,62 %
17.07.2016 22:50 16,7 C 91 % 1019,8 hPa 0,0 l/m 1,6 km/h (1 Bft) SW 227 0 min 0,000 mm 0,0 UV-I 0 W/m 15,2 C 16,7 C 3,2 km/h (1 Bft) 97,22 %
17.07.2016 22:52 16,7 C 91 % 1019,8 hPa 0,0 l/m 1,3 km/h (1 Bft) SW 227 0 min 0,000 mm 0,0 UV-I 0 W/m 15,2 C 16,7 C 4,8 km/h (1 Bft) 97,87 %
17.07.2016 22:54 16,7 C 91 % 1019,8 hPa 0,0 l/m 3,9 km/h (1 Bft) SW 227 0 min 0,000 mm 0,0 UV-I 0 W/m 15,2 C 16,7 C 4,8 km/h (1 Bft) 95,74 %
17.07.2016 22:56 16,7 C 91 % 1019,8 hPa 0,0 l/m 4,4 km/h (1 Bft) S-SW 198 0 min 0,000 mm 0,0 UV-I 0 W/m 15,2 C 16,7 C 4,8 km/h (1 Bft) 95,74 %
17.07.2016 22:58 16,7 C 91 % 1019,7 hPa 0,0 l/m 4,1 km/h (1 Bft) S-SW 198 0 min 0,000 mm 0,0 UV-I 0 W/m 15,2 C 16,7 C 6,4 km/h (2 Bft) 95,74 %
17.07.2016 23:00 16,7 C 91 % 1019,8 hPa 0,0 l/m 4,6 km/h (1 Bft) S-SW 205 0 min 0,000 mm 0,0 UV-I 0 W/m 15,2 C 16,7 C 6,4 km/h (2 Bft) 97,87 %
17.07.2016 23:02 16,7 C 91 % 1019,7 hPa 0,0 l/m 4,2 km/h (1 Bft) S-SW 205 0 min 0,000 mm 0,0 UV-I 0 W/m 15,2 C 16,7 C 6,4 km/h (2 Bft) 94,00 %
17.07.2016 23:04 16,7 C 91 % 1019,7 hPa 0,0 l/m 3,9 km/h (1 Bft) S-SW 204 0 min 0,000 mm 0,0 UV-I 0 W/m 15,2 C 16,7 C 4,8 km/h (1 Bft) 97,87 %
17.07.2016 23:06 16,7 C 91 % 1019,7 hPa 0,0 l/m 4,2 km/h (1 Bft) SW 219 0 min 0,000 mm 0,0 UV-I 0 W/m 15,2 C 16,7 C 6,4 km/h (2 Bft) 95,74 %
17.07.2016 23:08 16,7 C 91 % 1019,8 hPa 0,0 l/m 3,5 km/h (1 Bft) SW 228 0 min 0,000 mm 0,0 UV-I 0 W/m 15,2 C 16,7 C 4,8 km/h (1 Bft) 95,74 %
17.07.2016 23:10 16,7 C 91 % 1019,8 hPa 0,0 l/m 3,2 km/h (1 Bft) SW 228 0 min 0,000 mm 0,0 UV-I 0 W/m 15,2 C 16,7 C 4,8 km/h (1 Bft) 95,74 %
17.07.2016 23:12 16,7 C 91 % 1019,8 hPa 0,0 l/m 1,6 km/h (1 Bft) SW 232 0 min 0,000 mm 0,0 UV-I 0 W/m 15,2 C 16,7 C 3,2 km/h (1 Bft) 95,74 %
17.07.2016 23:14 16,6 C 91 % 1019,8 hPa 0,0 l/m 0,5 km/h (0 Bft) SW 232 0 min 0,000 mm 0,0 UV-I 0 W/m 15,1 C 16,6 C 1,6 km/h (1 Bft) 95,74 %
17.07.2016 23:16 16,6 C 92 % 1019,8 hPa 0,0 l/m 0,7 km/h (0 Bft) W-SW 240 0 min 0,000 mm 0,0 UV-I 0 W/m 15,3 C 16,6 C 1,6 km/h (1 Bft) 97,87 %
17.07.2016 23:18 16,4 C 92 % 1019,8 hPa 0,0 l/m 0,1 km/h (0 Bft) W-SW 257 0 min 0,000 mm 0,0 UV-I 0 W/m 15,1 C 16,4 C 1,6 km/h (1 Bft) 97,87 %
17.07.2016 23:20 16,4 C 92 % 1019,9 hPa 0,0 l/m 0,0 km/h (0 Bft) N 355 0 min 0,000 mm 0,0 UV-I 0 W/m 15,1 C 16,4 C 1,6 km/h (1 Bft) 100,00 %
17.07.2016 23:22 16,3 C 93 % 1020,0 hPa 0,0 l/m 0,1 km/h (0 Bft) N 360 0 min 0,000 mm 0,0 UV-I 0 W/m 15,2 C 16,3 C 1,6 km/h (1 Bft) 97,87 %
17.07.2016 23:24 16,3 C 93 % 1020,0 hPa 0,0 l/m 1,4 km/h (1 Bft) N 355 0 min 0,000 mm 0,0 UV-I 0 W/m 15,2 C 16,3 C 4,8 km/h (1 Bft) 95,74 %
17.07.2016 23:26 16,2 C 93 % 1020,1 hPa 0,0 l/m 3,7 km/h (1 Bft) N 5 0 min 0,000 mm 0,0 UV-I 0 W/m 15,1 C 16,2 C 6,4 km/h (2 Bft) 100,00 %
17.07.2016 23:28 16,2 C 93 % 1020,1 hPa 0,0 l/m 4,4 km/h (1 Bft) N 11 0 min 0,000 mm 0,0 UV-I 0 W/m 15,1 C 16,2 C 9,7 km/h (2 Bft) 100,00 %
17.07.2016 23:30 16,2 C 94 % 1020,2 hPa 0,0 l/m 7,4 km/h (2 Bft) N-NO 15 0 min 0,000 mm 0,0 UV-I 0 W/m 15,2 C 15,7 C 14,5 km/h (3 Bft) 98,00 %
17.07.2016 23:32 16,3 C 94 % 1020,3 hPa 0,0 l/m 8,5 km/h (2 Bft) N-NO 18 0 min 0,000 mm 0,0 UV-I 0 W/m 15,3 C 15,2 C 17,7 km/h (3 Bft) 95,74 %
17.07.2016 23:34 16,3 C 94 % 1020,3 hPa 0,0 l/m 7,9 km/h (2 Bft) NO 42 0 min 0,000 mm 0,0 UV-I 0 W/m 15,3 C 15,5 C 16,1 km/h (3 Bft) 100,00 %
17.07.2016 23:36 16,3 C 94 % 1020,3 hPa 0,0 l/m 2,9 km/h (1 Bft) N 9 0 min 0,000 mm 0,0 UV-I 0 W/m 15,3 C 16,3 C 9,7 km/h (2 Bft) 97,87 %
17.07.2016 23:38 16,3 C 95 % 1020,2 hPa 0,0 l/m 4,4 km/h (1 Bft) N-NO 19 0 min 0,000 mm 0,0 UV-I 0 W/m 15,5 C 16,3 C 8,0 km/h (2 Bft) 97,87 %
17.07.2016 23:40 16,4 C 94 % 1020,1 hPa 0,0 l/m 4,1 km/h (1 Bft) N-NO 15 0 min 0,000 mm 0,0 UV-I 0 W/m 15,4 C 16,4 C 6,4 km/h (2 Bft) 100,00 %
17.07.2016 23:42 16,4 C 94 % 1020,3 hPa 0,0 l/m 2,8 km/h (1 Bft) N 5 0 min 0,000 mm 0,0 UV-I 0 W/m 15,4 C 16,4 C 6,4 km/h (2 Bft) 100,00 %
17.07.2016 23:44 16,4 C 94 % 1020,3 hPa 0,0 l/m 4,1 km/h (1 Bft) N 10 0 min 0,000 mm 0,0 UV-I 0 W/m 15,4 C 16,4 C 8,0 km/h (2 Bft) 100,00 %
17.07.2016 23:46 16,4 C 94 % 1020,3 hPa 0,0 l/m 5,5 km/h (1 Bft) N-NO 26 0 min 0,000 mm 0,0 UV-I 0 W/m 15,4 C 16,4 C 11,3 km/h (2 Bft) 97,87 %
17.07.2016 23:48 16,5 C 94 % 1020,4 hPa 0,0 l/m 7,9 km/h (2 Bft) N-NO 12 0 min 0,000 mm 0,0 UV-I 0 W/m 15,5 C 15,7 C 12,9 km/h (3 Bft) 100,00 %
17.07.2016 23:50 16,5 C 94 % 1020,4 hPa 0,4 l/m 4,9 km/h (1 Bft) N 11 0 min 0,000 mm 0,0 UV-I 0 W/m 15,5 C 16,5 C 9,7 km/h (2 Bft) 100,00 %
17.07.2016 23:52 16,5 C 94 % 1020,5 hPa 0,4 l/m 5,1 km/h (1 Bft) N 9 0 min 0,000 mm 0,0 UV-I 0 W/m 15,5 C 16,5 C 12,9 km/h (3 Bft) 97,87 %
17.07.2016 23:54 16,6 C 94 % 1020,4 hPa 0,4 l/m 6,0 km/h (2 Bft) N-NO 29 0 min 0,000 mm 0,0 UV-I 0 W/m 15,6 C 16,6 C 11,3 km/h (2 Bft) 100,00 %
17.07.2016 23:56 16,6 C 95 % 1020,4 hPa 0,2 l/m 6,3 km/h (2 Bft) N-NO 13 0 min 0,000 mm 0,0 UV-I 0 W/m 15,8 C 16,6 C 14,5 km/h (3 Bft) 100,00 %
17.07.2016 23:58 16,6 C 95 % 1020,4 hPa 0,2 l/m 6,2 km/h (2 Bft) N-NO 15 0 min 0,000 mm 0,0 UV-I 0 W/m 15,8 C 16,6 C 12,9 km/h (3 Bft) 100,00 %
_ Min-Zeit 03:20 00:50 17:42 - 22:36 - - - - - - 02:22 08:34 22:36 05:10
Minimum _ 13,5 C 71 % 1018,9 hPa - 0,0 km/h (0 Bft) - - - - - - 10,0 C 9,3 C 0,0 km/h (0 Bft) 91,49 %
_ Max-Zeit 17:00 12:08 00:00 23:50 11:18 - - 06:54 17:00 14:40 14:40 18:00 18:00 07:42 00:04
Maximum _ 20,1 C 95 % 1021,1 hPa 0,4 l/m 21,5 km/h
SW (4 Bft)
- - 2 min 0,203 mm 3,4 UV-I 452 W/m 16,1 C 18,2 C 33,8 km/h
SW (5 Bft)
100,00 %
Durchschnitt _ 16,1 C 84 % 1020,2 hPa #2,8 l/m 11,1 km/h (2 Bft) SW - #32 min. #1,727 mm 1,4 UV-I 139 W/m 13,3 C 14,0 C 17,3 km/h (3 Bft) 98,27 %